<gpx xmlns="http://www.topografix.com/GPX/1/1" xmlns:xsi="http://www.w3.org/2001/XMLSchema-instance" version="1.1" xsi:schemaLocation="http://www.topografix.com/GPX/1/1 http://www.topografix.com/GPX/1/1/gpx.xsd" creator="MotionXGPSFull 24.1 Build 5049R64">
<trk>
<name>Track 001</name>
<desc>11 Jan 2017  7:48 am</desc>
<trkseg>
<trkpt lat="-27.3581349" lon="152.9694595">
<ele>29.033</ele>
<time>2017-01-10T21:48:00.612Z</time>
</trkpt>
<trkpt lat="-27.3581349" lon="152.9694595">
<ele>28.908</ele>
<time>2017-01-10T21:48:14.253Z</time>
</trkpt>
<trkpt lat="-27.3580337" lon="152.9692865">
<ele>28.854</ele>
<time>2017-01-10T21:48:56.078Z</time>
</trkpt>
<trkpt lat="-27.3580245" lon="152.9692865">
<ele>28.662</ele>
<time>2017-01-10T21:48:57.000Z</time>
</trkpt>
<trkpt lat="-27.3580245" lon="152.9692865">
<ele>28.184</ele>
<time>2017-01-10T21:49:06.000Z</time>
</trkpt>
<trkpt lat="-27.3580245" lon="152.9692865">
<ele>27.779</ele>
<time>2017-01-10T21:50:33.794Z</time>
</trkpt>
<trkpt lat="-27.3582047" lon="152.9693166">
<ele>27.785</ele>
<time>2017-01-10T21:50:44.578Z</time>
</trkpt>
<trkpt lat="-27.3583075" lon="152.9693280">
<ele>28.013</ele>
<time>2017-01-10T21:50:48.145Z</time>
</trkpt>
<trkpt lat="-27.3584199" lon="152.9693553">
<ele>28.222</ele>
<time>2017-01-10T21:50:51.562Z</time>
</trkpt>
<trkpt lat="-27.3585183" lon="152.9694282">
<ele>28.366</ele>
<time>2017-01-10T21:50:54.736Z</time>
</trkpt>
<trkpt lat="-27.3585407" lon="152.9695269">
<ele>28.389</ele>
<time>2017-01-10T21:50:57.180Z</time>
</trkpt>
<trkpt lat="-27.3585870" lon="152.9696217">
<ele>28.086</ele>
<time>2017-01-10T21:50:59.660Z</time>
</trkpt>
<trkpt lat="-27.3586961" lon="152.9696848">
<ele>27.332</ele>
<time>2017-01-10T21:51:02.523Z</time>
</trkpt>
<trkpt lat="-27.3587896" lon="152.9697342">
<ele>26.362</ele>
<time>2017-01-10T21:51:05.000Z</time>
</trkpt>
<trkpt lat="-27.3587896" lon="152.9697342">
<ele>25.593</ele>
<time>2017-01-10T21:51:11.000Z</time>
</trkpt>
<trkpt lat="-27.3587896" lon="152.9697342">
<ele>25.258</ele>
<time>2017-01-10T22:33:18.890Z</time>
</trkpt>
<trkpt lat="-27.3588479" lon="152.9699753">
<ele>25.397</ele>
<time>2017-01-10T22:33:32.286Z</time>
</trkpt>
<trkpt lat="-27.3589294" lon="152.9699243">
<ele>26.255</ele>
<time>2017-01-10T22:33:36.980Z</time>
</trkpt>
<trkpt lat="-27.3590087" lon="152.9698645">
<ele>27.781</ele>
<time>2017-01-10T22:33:41.152Z</time>
</trkpt>
<trkpt lat="-27.3590190" lon="152.9697309">
<ele>29.266</ele>
<time>2017-01-10T22:33:45.157Z</time>
</trkpt>
<trkpt lat="-27.3590222" lon="152.9695996">
<ele>30.296</ele>
<time>2017-01-10T22:33:48.758Z</time>
</trkpt>
<trkpt lat="-27.3589987" lon="152.9694088">
<ele>30.973</ele>
<time>2017-01-10T22:33:52.203Z</time>
</trkpt>
<trkpt lat="-27.3589983" lon="152.9691815">
<ele>31.381</ele>
<time>2017-01-10T22:33:55.255Z</time>
</trkpt>
<trkpt lat="-27.3590403" lon="152.9689744">
<ele>31.817</ele>
<time>2017-01-10T22:33:58.291Z</time>
</trkpt>
<trkpt lat="-27.3591096" lon="152.9688543">
<ele>32.641</ele>
<time>2017-01-10T22:34:00.781Z</time>
</trkpt>
<trkpt lat="-27.3593684" lon="152.9688639">
<ele>33.731</ele>
<time>2017-01-10T22:34:05.506Z</time>
</trkpt>
<trkpt lat="-27.3595116" lon="152.9688779">
<ele>34.713</ele>
<time>2017-01-10T22:34:07.585Z</time>
</trkpt>
<trkpt lat="-27.3596661" lon="152.9688820">
<ele>35.412</ele>
<time>2017-01-10T22:34:10.110Z</time>
</trkpt>
<trkpt lat="-27.3597625" lon="152.9688757">
<ele>35.679</ele>
<time>2017-01-10T22:34:12.000Z</time>
</trkpt>
<trkpt lat="-27.3597625" lon="152.9688757">
<ele>35.486</ele>
<time>2017-01-10T22:34:16.000Z</time>
</trkpt>
<trkpt lat="-27.3597625" lon="152.9688757">
<ele>35.223</ele>
<time>2017-01-10T22:34:28.352Z</time>
</trkpt>
<trkpt lat="-27.3599951" lon="152.9688406">
<ele>35.228</ele>
<time>2017-01-10T22:34:33.521Z</time>
</trkpt>
<trkpt lat="-27.3602505" lon="152.9687714">
<ele>35.477</ele>
<time>2017-01-10T22:34:36.526Z</time>
</trkpt>
<trkpt lat="-27.3605647" lon="152.9686211">
<ele>35.878</ele>
<time>2017-01-10T22:34:39.779Z</time>
</trkpt>
<trkpt lat="-27.3607577" lon="152.9685068">
<ele>36.346</ele>
<time>2017-01-10T22:34:41.672Z</time>
</trkpt>
<trkpt lat="-27.3610498" lon="152.9683077">
<ele>36.718</ele>
<time>2017-01-10T22:34:44.613Z</time>
</trkpt>
<trkpt lat="-27.3612054" lon="152.9681235">
<ele>36.722</ele>
<time>2017-01-10T22:34:46.534Z</time>
</trkpt>
<trkpt lat="-27.3613526" lon="152.9679179">
<ele>36.185</ele>
<time>2017-01-10T22:34:48.494Z</time>
</trkpt>
<trkpt lat="-27.3615658" lon="152.9675876">
<ele>35.361</ele>
<time>2017-01-10T22:34:51.515Z</time>
</trkpt>
<trkpt lat="-27.3617041" lon="152.9673714">
<ele>34.691</ele>
<time>2017-01-10T22:34:53.545Z</time>
</trkpt>
<trkpt lat="-27.3618980" lon="152.9670648">
<ele>34.337</ele>
<time>2017-01-10T22:34:56.456Z</time>
</trkpt>
<trkpt lat="-27.3620930" lon="152.9667509">
<ele>34.241</ele>
<time>2017-01-10T22:34:59.375Z</time>
</trkpt>
<trkpt lat="-27.3622319" lon="152.9665273">
<ele>34.395</ele>
<time>2017-01-10T22:35:01.356Z</time>
</trkpt>
<trkpt lat="-27.3623759" lon="152.9662957">
<ele>34.818</ele>
<time>2017-01-10T22:35:03.355Z</time>
</trkpt>
<trkpt lat="-27.3625920" lon="152.9659479">
<ele>35.385</ele>
<time>2017-01-10T22:35:06.329Z</time>
</trkpt>
<trkpt lat="-27.3627391" lon="152.9657112">
<ele>35.878</ele>
<time>2017-01-10T22:35:08.324Z</time>
</trkpt>
<trkpt lat="-27.3628818" lon="152.9654816">
<ele>36.299</ele>
<time>2017-01-10T22:35:10.251Z</time>
</trkpt>
<trkpt lat="-27.3631043" lon="152.9651236">
<ele>36.811</ele>
<time>2017-01-10T22:35:13.278Z</time>
</trkpt>
<trkpt lat="-27.3632514" lon="152.9648868">
<ele>37.479</ele>
<time>2017-01-10T22:35:15.322Z</time>
</trkpt>
<trkpt lat="-27.3633898" lon="152.9646641">
<ele>38.132</ele>
<time>2017-01-10T22:35:17.274Z</time>
</trkpt>
<trkpt lat="-27.3636144" lon="152.9643417">
<ele>38.544</ele>
<time>2017-01-10T22:35:20.234Z</time>
</trkpt>
<trkpt lat="-27.3638412" lon="152.9640303">
<ele>38.700</ele>
<time>2017-01-10T22:35:23.106Z</time>
</trkpt>
<trkpt lat="-27.3640004" lon="152.9638206">
<ele>38.898</ele>
<time>2017-01-10T22:35:24.972Z</time>
</trkpt>
<trkpt lat="-27.3641728" lon="152.9635768">
<ele>39.348</ele>
<time>2017-01-10T22:35:26.990Z</time>
</trkpt>
<trkpt lat="-27.3643616" lon="152.9633522">
<ele>40.006</ele>
<time>2017-01-10T22:35:28.939Z</time>
</trkpt>
<trkpt lat="-27.3646002" lon="152.9631642">
<ele>40.680</ele>
<time>2017-01-10T22:35:30.995Z</time>
</trkpt>
<trkpt lat="-27.3648518" lon="152.9630204">
<ele>41.155</ele>
<time>2017-01-10T22:35:33.081Z</time>
</trkpt>
<trkpt lat="-27.3652089" lon="152.9628987">
<ele>41.331</ele>
<time>2017-01-10T22:35:36.082Z</time>
</trkpt>
<trkpt lat="-27.3655246" lon="152.9628343">
<ele>41.275</ele>
<time>2017-01-10T22:35:39.041Z</time>
</trkpt>
<trkpt lat="-27.3658035" lon="152.9628437">
<ele>41.112</ele>
<time>2017-01-10T22:35:42.093Z</time>
</trkpt>
<trkpt lat="-27.3659020" lon="152.9629684">
<ele>41.022</ele>
<time>2017-01-10T22:35:43.798Z</time>
</trkpt>
<trkpt lat="-27.3659534" lon="152.9632251">
<ele>41.151</ele>
<time>2017-01-10T22:35:45.918Z</time>
</trkpt>
<trkpt lat="-27.3660267" lon="152.9637226">
<ele>42.034</ele>
<time>2017-01-10T22:35:49.125Z</time>
</trkpt>
<trkpt lat="-27.3660716" lon="152.9640614">
<ele>44.692</ele>
<time>2017-01-10T22:35:51.171Z</time>
</trkpt>
<trkpt lat="-27.3661385" lon="152.9645314">
<ele>49.063</ele>
<time>2017-01-10T22:35:54.125Z</time>
</trkpt>
<trkpt lat="-27.3662020" lon="152.9649773">
<ele>53.243</ele>
<time>2017-01-10T22:35:56.974Z</time>
</trkpt>
<trkpt lat="-27.3662716" lon="152.9654658">
<ele>55.486</ele>
<time>2017-01-10T22:36:00.008Z</time>
</trkpt>
<trkpt lat="-27.3663377" lon="152.9659551">
<ele>55.520</ele>
<time>2017-01-10T22:36:02.983Z</time>
</trkpt>
<trkpt lat="-27.3663942" lon="152.9664671">
<ele>53.708</ele>
<time>2017-01-10T22:36:06.120Z</time>
</trkpt>
<trkpt lat="-27.3663674" lon="152.9669148">
<ele>50.464</ele>
<time>2017-01-10T22:36:09.049Z</time>
</trkpt>
<trkpt lat="-27.3662954" lon="152.9671568">
<ele>46.527</ele>
<time>2017-01-10T22:36:10.854Z</time>
</trkpt>
<trkpt lat="-27.3661509" lon="152.9673866">
<ele>43.134</ele>
<time>2017-01-10T22:36:12.851Z</time>
</trkpt>
<trkpt lat="-27.3659041" lon="152.9677194">
<ele>41.308</ele>
<time>2017-01-10T22:36:15.848Z</time>
</trkpt>
<trkpt lat="-27.3657049" lon="152.9680999">
<ele>41.043</ele>
<time>2017-01-10T22:36:18.803Z</time>
</trkpt>
<trkpt lat="-27.3656148" lon="152.9683798">
<ele>41.577</ele>
<time>2017-01-10T22:36:20.791Z</time>
</trkpt>
<trkpt lat="-27.3655665" lon="152.9687994">
<ele>42.155</ele>
<time>2017-01-10T22:36:23.689Z</time>
</trkpt>
<trkpt lat="-27.3656053" lon="152.9690722">
<ele>42.599</ele>
<time>2017-01-10T22:36:25.677Z</time>
</trkpt>
<trkpt lat="-27.3657553" lon="152.9694268">
<ele>43.245</ele>
<time>2017-01-10T22:36:28.640Z</time>
</trkpt>
<trkpt lat="-27.3658629" lon="152.9696380">
<ele>44.576</ele>
<time>2017-01-10T22:36:30.613Z</time>
</trkpt>
<trkpt lat="-27.3659651" lon="152.9698332">
<ele>46.869</ele>
<time>2017-01-10T22:36:32.643Z</time>
</trkpt>
<trkpt lat="-27.3660727" lon="152.9700634">
<ele>49.910</ele>
<time>2017-01-10T22:36:35.355Z</time>
</trkpt>
<trkpt lat="-27.3661499" lon="152.9702234">
<ele>53.319</ele>
<time>2017-01-10T22:36:37.841Z</time>
</trkpt>
<trkpt lat="-27.3662401" lon="152.9703994">
<ele>56.721</ele>
<time>2017-01-10T22:36:41.489Z</time>
</trkpt>
<trkpt lat="-27.3663691" lon="152.9704941">
<ele>59.669</ele>
<time>2017-01-10T22:36:44.605Z</time>
</trkpt>
<trkpt lat="-27.3667324" lon="152.9701693">
<ele>62.009</ele>
<time>2017-01-10T22:36:49.401Z</time>
</trkpt>
<trkpt lat="-27.3669849" lon="152.9699702">
<ele>64.080</ele>
<time>2017-01-10T22:36:51.543Z</time>
</trkpt>
<trkpt lat="-27.3672333" lon="152.9697901">
<ele>65.959</ele>
<time>2017-01-10T22:36:53.468Z</time>
</trkpt>
<trkpt lat="-27.3676643" lon="152.9695796">
<ele>67.190</ele>
<time>2017-01-10T22:36:56.468Z</time>
</trkpt>
<trkpt lat="-27.3680992" lon="152.9693923">
<ele>67.687</ele>
<time>2017-01-10T22:36:59.417Z</time>
</trkpt>
<trkpt lat="-27.3685209" lon="152.9691747">
<ele>68.165</ele>
<time>2017-01-10T22:37:02.409Z</time>
</trkpt>
<trkpt lat="-27.3688966" lon="152.9688873">
<ele>69.013</ele>
<time>2017-01-10T22:37:05.399Z</time>
</trkpt>
<trkpt lat="-27.3691219" lon="152.9686511">
<ele>69.955</ele>
<time>2017-01-10T22:37:07.367Z</time>
</trkpt>
<trkpt lat="-27.3694613" lon="152.9682501">
<ele>70.695</ele>
<time>2017-01-10T22:37:10.402Z</time>
</trkpt>
<trkpt lat="-27.3696880" lon="152.9679950">
<ele>71.170</ele>
<time>2017-01-10T22:37:12.348Z</time>
</trkpt>
<trkpt lat="-27.3700865" lon="152.9676527">
<ele>71.394</ele>
<time>2017-01-10T22:37:15.388Z</time>
</trkpt>
<trkpt lat="-27.3703734" lon="152.9674630">
<ele>71.477</ele>
<time>2017-01-10T22:37:17.315Z</time>
</trkpt>
<trkpt lat="-27.3706926" lon="152.9672699">
<ele>71.552</ele>
<time>2017-01-10T22:37:19.316Z</time>
</trkpt>
<trkpt lat="-27.3711861" lon="152.9669629">
<ele>71.631</ele>
<time>2017-01-10T22:37:22.377Z</time>
</trkpt>
<trkpt lat="-27.3714902" lon="152.9667622">
<ele>71.538</ele>
<time>2017-01-10T22:37:24.300Z</time>
</trkpt>
<trkpt lat="-27.3717861" lon="152.9665146">
<ele>71.232</ele>
<time>2017-01-10T22:37:26.299Z</time>
</trkpt>
<trkpt lat="-27.3720937" lon="152.9659980">
<ele>71.136</ele>
<time>2017-01-10T22:37:29.257Z</time>
</trkpt>
<trkpt lat="-27.3722601" lon="152.9653825">
<ele>71.708</ele>
<time>2017-01-10T22:37:32.270Z</time>
</trkpt>
<trkpt lat="-27.3724421" lon="152.9647693">
<ele>72.981</ele>
<time>2017-01-10T22:37:35.289Z</time>
</trkpt>
<trkpt lat="-27.3726335" lon="152.9644027">
<ele>74.492</ele>
<time>2017-01-10T22:37:37.270Z</time>
</trkpt>
<trkpt lat="-27.3730596" lon="152.9639604">
<ele>75.823</ele>
<time>2017-01-10T22:37:40.277Z</time>
</trkpt>
<trkpt lat="-27.3734401" lon="152.9634674">
<ele>77.097</ele>
<time>2017-01-10T22:37:43.218Z</time>
</trkpt>
<trkpt lat="-27.3735962" lon="152.9630374">
<ele>78.380</ele>
<time>2017-01-10T22:37:45.210Z</time>
</trkpt>
<trkpt lat="-27.3736709" lon="152.9625540">
<ele>79.439</ele>
<time>2017-01-10T22:37:47.210Z</time>
</trkpt>
<trkpt lat="-27.3737075" lon="152.9617929">
<ele>80.529</ele>
<time>2017-01-10T22:37:50.254Z</time>
</trkpt>
<trkpt lat="-27.3737285" lon="152.9613108">
<ele>82.234</ele>
<time>2017-01-10T22:37:52.254Z</time>
</trkpt>
<trkpt lat="-27.3737593" lon="152.9606376">
<ele>84.379</ele>
<time>2017-01-10T22:37:55.191Z</time>
</trkpt>
<trkpt lat="-27.3737852" lon="152.9599805">
<ele>86.074</ele>
<time>2017-01-10T22:37:58.227Z</time>
</trkpt>
<trkpt lat="-27.3738153" lon="152.9593673">
<ele>86.918</ele>
<time>2017-01-10T22:38:01.139Z</time>
</trkpt>
<trkpt lat="-27.3738314" lon="152.9587347">
<ele>87.253</ele>
<time>2017-01-10T22:38:04.106Z</time>
</trkpt>
<trkpt lat="-27.3738481" lon="152.9582980">
<ele>87.664</ele>
<time>2017-01-10T22:38:06.130Z</time>
</trkpt>
<trkpt lat="-27.3738914" lon="152.9578901">
<ele>88.483</ele>
<time>2017-01-10T22:38:08.051Z</time>
</trkpt>
<trkpt lat="-27.3740198" lon="152.9574739">
<ele>89.388</ele>
<time>2017-01-10T22:38:10.112Z</time>
</trkpt>
<trkpt lat="-27.3743174" lon="152.9569228">
<ele>90.044</ele>
<time>2017-01-10T22:38:13.113Z</time>
</trkpt>
<trkpt lat="-27.3745122" lon="152.9565588">
<ele>90.928</ele>
<time>2017-01-10T22:38:15.086Z</time>
</trkpt>
<trkpt lat="-27.3746696" lon="152.9561627">
<ele>92.496</ele>
<time>2017-01-10T22:38:17.085Z</time>
</trkpt>
<trkpt lat="-27.3747782" lon="152.9557378">
<ele>94.387</ele>
<time>2017-01-10T22:38:19.066Z</time>
</trkpt>
<trkpt lat="-27.3748423" lon="152.9550434">
<ele>96.000</ele>
<time>2017-01-10T22:38:22.119Z</time>
</trkpt>
<trkpt lat="-27.3748524" lon="152.9543668">
<ele>97.063</ele>
<time>2017-01-10T22:38:25.072Z</time>
</trkpt>
<trkpt lat="-27.3748477" lon="152.9536974">
<ele>97.512</ele>
<time>2017-01-10T22:38:28.059Z</time>
</trkpt>
<trkpt lat="-27.3749310" lon="152.9532770">
<ele>97.467</ele>
<time>2017-01-10T22:38:30.018Z</time>
</trkpt>
<trkpt lat="-27.3752137" lon="152.9526977">
<ele>97.179</ele>
<time>2017-01-10T22:38:33.030Z</time>
</trkpt>
<trkpt lat="-27.3756018" lon="152.9522027">
<ele>96.961</ele>
<time>2017-01-10T22:38:36.028Z</time>
</trkpt>
<trkpt lat="-27.3758593" lon="152.9518719">
<ele>96.971</ele>
<time>2017-01-10T22:38:38.006Z</time>
</trkpt>
<trkpt lat="-27.3762685" lon="152.9513871">
<ele>97.089</ele>
<time>2017-01-10T22:38:40.972Z</time>
</trkpt>
<trkpt lat="-27.3765766" lon="152.9510922">
<ele>97.243</ele>
<time>2017-01-10T22:38:42.961Z</time>
</trkpt>
<trkpt lat="-27.3770718" lon="152.9506899">
<ele>97.793</ele>
<time>2017-01-10T22:38:45.972Z</time>
</trkpt>
<trkpt lat="-27.3773913" lon="152.9504256">
<ele>98.995</ele>
<time>2017-01-10T22:38:47.955Z</time>
</trkpt>
<trkpt lat="-27.3777188" lon="152.9501829">
<ele>100.472</ele>
<time>2017-01-10T22:38:49.959Z</time>
</trkpt>
<trkpt lat="-27.3780460" lon="152.9499790">
<ele>101.748</ele>
<time>2017-01-10T22:38:51.942Z</time>
</trkpt>
<trkpt lat="-27.3785505" lon="152.9497500">
<ele>102.632</ele>
<time>2017-01-10T22:38:54.938Z</time>
</trkpt>
<trkpt lat="-27.3788777" lon="152.9496032">
<ele>102.774</ele>
<time>2017-01-10T22:38:56.954Z</time>
</trkpt>
<trkpt lat="-27.3791819" lon="152.9494479">
<ele>102.015</ele>
<time>2017-01-10T22:38:58.854Z</time>
</trkpt>
<trkpt lat="-27.3796658" lon="152.9490650">
<ele>100.883</ele>
<time>2017-01-10T22:39:02.168Z</time>
</trkpt>
<trkpt lat="-27.3800428" lon="152.9487184">
<ele>100.068</ele>
<time>2017-01-10T22:39:05.003Z</time>
</trkpt>
<trkpt lat="-27.3802765" lon="152.9484912">
<ele>99.694</ele>
<time>2017-01-10T22:39:07.067Z</time>
</trkpt>
<trkpt lat="-27.3805824" lon="152.9483134">
<ele>99.549</ele>
<time>2017-01-10T22:39:09.691Z</time>
</trkpt>
<trkpt lat="-27.3809073" lon="152.9483522">
<ele>99.585</ele>
<time>2017-01-10T22:39:12.771Z</time>
</trkpt>
<trkpt lat="-27.3810725" lon="152.9484143">
<ele>99.919</ele>
<time>2017-01-10T22:39:14.809Z</time>
</trkpt>
<trkpt lat="-27.3812658" lon="152.9485064">
<ele>100.488</ele>
<time>2017-01-10T22:39:17.914Z</time>
</trkpt>
<trkpt lat="-27.3813655" lon="152.9484776">
<ele>101.065</ele>
<time>2017-01-10T22:39:20.000Z</time>
</trkpt>
<trkpt lat="-27.3813655" lon="152.9484776">
<ele>101.476</ele>
<time>2017-01-10T22:39:23.000Z</time>
</trkpt>
<trkpt lat="-27.3813655" lon="152.9484776">
<ele>101.631</ele>
<time>2017-01-10T22:39:43.447Z</time>
</trkpt>
<trkpt lat="-27.3815341" lon="152.9483241">
<ele>101.566</ele>
<time>2017-01-10T22:39:48.271Z</time>
</trkpt>
<trkpt lat="-27.3815718" lon="152.9480770">
<ele>101.741</ele>
<time>2017-01-10T22:39:50.355Z</time>
</trkpt>
<trkpt lat="-27.3816064" lon="152.9475694">
<ele>102.619</ele>
<time>2017-01-10T22:39:53.871Z</time>
</trkpt>
<trkpt lat="-27.3816184" lon="152.9472254">
<ele>103.839</ele>
<time>2017-01-10T22:39:55.943Z</time>
</trkpt>
<trkpt lat="-27.3816760" lon="152.9468949">
<ele>104.556</ele>
<time>2017-01-10T22:39:57.873Z</time>
</trkpt>
<trkpt lat="-27.3817857" lon="152.9463853">
<ele>104.423</ele>
<time>2017-01-10T22:40:00.842Z</time>
</trkpt>
<trkpt lat="-27.3818421" lon="152.9460353">
<ele>103.694</ele>
<time>2017-01-10T22:40:02.784Z</time>
</trkpt>
<trkpt lat="-27.3819064" lon="152.9456805">
<ele>102.764</ele>
<time>2017-01-10T22:40:04.718Z</time>
</trkpt>
<trkpt lat="-27.3819655" lon="152.9453374">
<ele>101.716</ele>
<time>2017-01-10T22:40:06.602Z</time>
</trkpt>
<trkpt lat="-27.3820247" lon="152.9447940">
<ele>100.571</ele>
<time>2017-01-10T22:40:09.585Z</time>
</trkpt>
<trkpt lat="-27.3820787" lon="152.9444402">
<ele>99.659</ele>
<time>2017-01-10T22:40:11.606Z</time>
</trkpt>
<trkpt lat="-27.3821457" lon="152.9439181">
<ele>99.436</ele>
<time>2017-01-10T22:40:14.733Z</time>
</trkpt>
<trkpt lat="-27.3822073" lon="152.9436207">
<ele>99.890</ele>
<time>2017-01-10T22:40:16.784Z</time>
</trkpt>
<trkpt lat="-27.3823435" lon="152.9432148">
<ele>100.419</ele>
<time>2017-01-10T22:40:19.992Z</time>
</trkpt>
<trkpt lat="-27.3824819" lon="152.9429055">
<ele>100.546</ele>
<time>2017-01-10T22:40:23.059Z</time>
</trkpt>
<trkpt lat="-27.3825968" lon="152.9427715">
<ele>100.348</ele>
<time>2017-01-10T22:40:24.943Z</time>
</trkpt>
<trkpt lat="-27.3828962" lon="152.9427837">
<ele>100.057</ele>
<time>2017-01-10T22:40:27.954Z</time>
</trkpt>
<trkpt lat="-27.3831065" lon="152.9429043">
<ele>99.843</ele>
<time>2017-01-10T22:40:29.799Z</time>
</trkpt>
<trkpt lat="-27.3833248" lon="152.9430830">
<ele>99.645</ele>
<time>2017-01-10T22:40:31.759Z</time>
</trkpt>
<trkpt lat="-27.3835535" lon="152.9432470">
<ele>98.771</ele>
<time>2017-01-10T22:40:33.847Z</time>
</trkpt>
<trkpt lat="-27.3838640" lon="152.9434310">
<ele>96.580</ele>
<time>2017-01-10T22:40:37.086Z</time>
</trkpt>
<trkpt lat="-27.3839814" lon="152.9435518">
<ele>93.085</ele>
<time>2017-01-10T22:40:39.163Z</time>
</trkpt>
<trkpt lat="-27.3841532" lon="152.9436803">
<ele>88.764</ele>
<time>2017-01-10T22:40:41.537Z</time>
</trkpt>
<trkpt lat="-27.3843988" lon="152.9436973">
<ele>84.819</ele>
<time>2017-01-10T22:40:43.632Z</time>
</trkpt>
<trkpt lat="-27.3846778" lon="152.9437323">
<ele>82.864</ele>
<time>2017-01-10T22:40:45.754Z</time>
</trkpt>
<trkpt lat="-27.3849289" lon="152.9437548">
<ele>83.389</ele>
<time>2017-01-10T22:40:47.785Z</time>
</trkpt>
<trkpt lat="-27.3852658" lon="152.9437658">
<ele>85.292</ele>
<time>2017-01-10T22:40:50.643Z</time>
</trkpt>
<trkpt lat="-27.3854784" lon="152.9438171">
<ele>87.215</ele>
<time>2017-01-10T22:40:52.526Z</time>
</trkpt>
<trkpt lat="-27.3857397" lon="152.9438111">
<ele>89.153</ele>
<time>2017-01-10T22:40:54.633Z</time>
</trkpt>
<trkpt lat="-27.3860087" lon="152.9439132">
<ele>91.437</ele>
<time>2017-01-10T22:40:56.685Z</time>
</trkpt>
<trkpt lat="-27.3862758" lon="152.9440161">
<ele>93.503</ele>
<time>2017-01-10T22:40:58.689Z</time>
</trkpt>
<trkpt lat="-27.3865074" lon="152.9441600">
<ele>94.788</ele>
<time>2017-01-10T22:41:00.687Z</time>
</trkpt>
<trkpt lat="-27.3867073" lon="152.9443234">
<ele>94.523</ele>
<time>2017-01-10T22:41:02.624Z</time>
</trkpt>
<trkpt lat="-27.3868789" lon="152.9445437">
<ele>91.711</ele>
<time>2017-01-10T22:41:04.641Z</time>
</trkpt>
<trkpt lat="-27.3870814" lon="152.9447336">
<ele>87.087</ele>
<time>2017-01-10T22:41:06.777Z</time>
</trkpt>
<trkpt lat="-27.3874499" lon="152.9447826">
<ele>82.504</ele>
<time>2017-01-10T22:41:09.948Z</time>
</trkpt>
<trkpt lat="-27.3876097" lon="152.9449597">
<ele>79.111</ele>
<time>2017-01-10T22:41:11.841Z</time>
</trkpt>
<trkpt lat="-27.3878272" lon="152.9450995">
<ele>77.327</ele>
<time>2017-01-10T22:41:13.734Z</time>
</trkpt>
<trkpt lat="-27.3882538" lon="152.9452175">
<ele>77.360</ele>
<time>2017-01-10T22:41:16.835Z</time>
</trkpt>
<trkpt lat="-27.3885427" lon="152.9452643">
<ele>79.641</ele>
<time>2017-01-10T22:41:18.920Z</time>
</trkpt>
<trkpt lat="-27.3888017" lon="152.9452583">
<ele>83.851</ele>
<time>2017-01-10T22:41:21.157Z</time>
</trkpt>
<trkpt lat="-27.3889963" lon="152.9452223">
<ele>88.007</ele>
<time>2017-01-10T22:41:23.238Z</time>
</trkpt>
<trkpt lat="-27.3891574" lon="152.9451824">
<ele>90.410</ele>
<time>2017-01-10T22:41:25.288Z</time>
</trkpt>
<trkpt lat="-27.3893475" lon="152.9451247">
<ele>91.153</ele>
<time>2017-01-10T22:41:27.788Z</time>
</trkpt>
<trkpt lat="-27.3895626" lon="152.9450552">
<ele>91.262</ele>
<time>2017-01-10T22:41:30.440Z</time>
</trkpt>
<trkpt lat="-27.3897454" lon="152.9450037">
<ele>91.654</ele>
<time>2017-01-10T22:41:32.413Z</time>
</trkpt>
<trkpt lat="-27.3900223" lon="152.9449192">
<ele>92.806</ele>
<time>2017-01-10T22:41:35.278Z</time>
</trkpt>
<trkpt lat="-27.3902108" lon="152.9447988">
<ele>94.800</ele>
<time>2017-01-10T22:41:37.272Z</time>
</trkpt>
<trkpt lat="-27.3904038" lon="152.9446475">
<ele>97.367</ele>
<time>2017-01-10T22:41:39.341Z</time>
</trkpt>
<trkpt lat="-27.3907298" lon="152.9444947">
<ele>100.243</ele>
<time>2017-01-10T22:41:42.580Z</time>
</trkpt>
<trkpt lat="-27.3909112" lon="152.9445086">
<ele>103.467</ele>
<time>2017-01-10T22:41:44.700Z</time>
</trkpt>
<trkpt lat="-27.3911244" lon="152.9445898">
<ele>106.552</ele>
<time>2017-01-10T22:41:47.725Z</time>
</trkpt>
<trkpt lat="-27.3912501" lon="152.9446227">
<ele>108.521</ele>
<time>2017-01-10T22:41:49.413Z</time>
</trkpt>
<trkpt lat="-27.3914992" lon="152.9447194">
<ele>109.278</ele>
<time>2017-01-10T22:41:52.654Z</time>
</trkpt>
<trkpt lat="-27.3916502" lon="152.9447936">
<ele>109.751</ele>
<time>2017-01-10T22:41:54.661Z</time>
</trkpt>
<trkpt lat="-27.3918615" lon="152.9449017">
<ele>110.517</ele>
<time>2017-01-10T22:41:57.714Z</time>
</trkpt>
<trkpt lat="-27.3920627" lon="152.9449918">
<ele>111.291</ele>
<time>2017-01-10T22:42:01.082Z</time>
</trkpt>
<trkpt lat="-27.3921718" lon="152.9450326">
<ele>111.480</ele>
<time>2017-01-10T22:42:03.286Z</time>
</trkpt>
<trkpt lat="-27.3922713" lon="152.9450279">
<ele>110.971</ele>
<time>2017-01-10T22:42:05.117Z</time>
</trkpt>
<trkpt lat="-27.3923257" lon="152.9448728">
<ele>110.238</ele>
<time>2017-01-10T22:42:07.309Z</time>
</trkpt>
<trkpt lat="-27.3923188" lon="152.9446755">
<ele>109.876</ele>
<time>2017-01-10T22:42:09.271Z</time>
</trkpt>
<trkpt lat="-27.3923665" lon="152.9443273">
<ele>109.984</ele>
<time>2017-01-10T22:42:12.279Z</time>
</trkpt>
<trkpt lat="-27.3925223" lon="152.9439725">
<ele>110.007</ele>
<time>2017-01-10T22:42:15.210Z</time>
</trkpt>
<trkpt lat="-27.3926746" lon="152.9435687">
<ele>109.158</ele>
<time>2017-01-10T22:42:18.126Z</time>
</trkpt>
<trkpt lat="-27.3926993" lon="152.9432416">
<ele>107.344</ele>
<time>2017-01-10T22:42:20.205Z</time>
</trkpt>
<trkpt lat="-27.3926911" lon="152.9427715">
<ele>105.318</ele>
<time>2017-01-10T22:42:23.263Z</time>
</trkpt>
<trkpt lat="-27.3926652" lon="152.9425158">
<ele>103.552</ele>
<time>2017-01-10T22:42:25.011Z</time>
</trkpt>
<trkpt lat="-27.3926640" lon="152.9422205">
<ele>101.961</ele>
<time>2017-01-10T22:42:27.028Z</time>
</trkpt>
<trkpt lat="-27.3927745" lon="152.9418190">
<ele>100.689</ele>
<time>2017-01-10T22:42:29.933Z</time>
</trkpt>
<trkpt lat="-27.3929460" lon="152.9414564">
<ele>100.002</ele>
<time>2017-01-10T22:42:32.892Z</time>
</trkpt>
<trkpt lat="-27.3930045" lon="152.9412036">
<ele>99.923</ele>
<time>2017-01-10T22:42:34.812Z</time>
</trkpt>
<trkpt lat="-27.3930496" lon="152.9407866">
<ele>100.367</ele>
<time>2017-01-10T22:42:37.790Z</time>
</trkpt>
<trkpt lat="-27.3930656" lon="152.9402983">
<ele>101.000</ele>
<time>2017-01-10T22:42:41.068Z</time>
</trkpt>
<trkpt lat="-27.3931009" lon="152.9400279">
<ele>101.344</ele>
<time>2017-01-10T22:42:42.918Z</time>
</trkpt>
<trkpt lat="-27.3931814" lon="152.9397709">
<ele>101.258</ele>
<time>2017-01-10T22:42:44.888Z</time>
</trkpt>
<trkpt lat="-27.3933571" lon="152.9394666">
<ele>101.066</ele>
<time>2017-01-10T22:42:47.748Z</time>
</trkpt>
<trkpt lat="-27.3935307" lon="152.9393485">
<ele>101.055</ele>
<time>2017-01-10T22:42:49.718Z</time>
</trkpt>
<trkpt lat="-27.3936922" lon="152.9392041">
<ele>101.033</ele>
<time>2017-01-10T22:42:51.989Z</time>
</trkpt>
<trkpt lat="-27.3938672" lon="152.9390938">
<ele>100.515</ele>
<time>2017-01-10T22:42:54.829Z</time>
</trkpt>
<trkpt lat="-27.3939814" lon="152.9390154">
<ele>98.730</ele>
<time>2017-01-10T22:42:57.380Z</time>
</trkpt>
<trkpt lat="-27.3941444" lon="152.9389157">
<ele>95.514</ele>
<time>2017-01-10T22:43:00.567Z</time>
</trkpt>
<trkpt lat="-27.3942780" lon="152.9388427">
<ele>91.832</ele>
<time>2017-01-10T22:43:02.680Z</time>
</trkpt>
<trkpt lat="-27.3944195" lon="152.9387803">
<ele>88.572</ele>
<time>2017-01-10T22:43:05.022Z</time>
</trkpt>
<trkpt lat="-27.3944362" lon="152.9386142">
<ele>85.762</ele>
<time>2017-01-10T22:43:08.019Z</time>
</trkpt>
<trkpt lat="-27.3944223" lon="152.9385057">
<ele>83.424</ele>
<time>2017-01-10T22:43:10.783Z</time>
</trkpt>
<trkpt lat="-27.3944020" lon="152.9384033">
<ele>81.876</ele>
<time>2017-01-10T22:43:13.503Z</time>
</trkpt>
<trkpt lat="-27.3944409" lon="152.9382384">
<ele>81.333</ele>
<time>2017-01-10T22:43:16.687Z</time>
</trkpt>
<trkpt lat="-27.3945705" lon="152.9381570">
<ele>81.484</ele>
<time>2017-01-10T22:43:18.968Z</time>
</trkpt>
<trkpt lat="-27.3948095" lon="152.9381202">
<ele>81.733</ele>
<time>2017-01-10T22:43:22.071Z</time>
</trkpt>
<trkpt lat="-27.3950879" lon="152.9380486">
<ele>81.275</ele>
<time>2017-01-10T22:43:25.458Z</time>
</trkpt>
<trkpt lat="-27.3952919" lon="152.9380334">
<ele>79.462</ele>
<time>2017-01-10T22:43:28.272Z</time>
</trkpt>
<trkpt lat="-27.3954034" lon="152.9380231">
<ele>76.498</ele>
<time>2017-01-10T22:43:31.057Z</time>
</trkpt>
<trkpt lat="-27.3954958" lon="152.9379992">
<ele>73.393</ele>
<time>2017-01-10T22:43:34.000Z</time>
</trkpt>
<trkpt lat="-27.3954958" lon="152.9379992">
<ele>71.154</ele>
<time>2017-01-10T22:43:35.000Z</time>
</trkpt>
<trkpt lat="-27.3954958" lon="152.9379992">
<ele>70.239</ele>
<time>2017-01-10T22:44:08.333Z</time>
</trkpt>
<trkpt lat="-27.3956527" lon="152.9379858">
<ele>70.341</ele>
<time>2017-01-10T22:44:11.906Z</time>
</trkpt>
<trkpt lat="-27.3958832" lon="152.9379255">
<ele>70.523</ele>
<time>2017-01-10T22:44:14.207Z</time>
</trkpt>
<trkpt lat="-27.3962509" lon="152.9378511">
<ele>70.168</ele>
<time>2017-01-10T22:44:17.323Z</time>
</trkpt>
<trkpt lat="-27.3965111" lon="152.9378137">
<ele>69.140</ele>
<time>2017-01-10T22:44:19.455Z</time>
</trkpt>
<trkpt lat="-27.3968752" lon="152.9377347">
<ele>67.459</ele>
<time>2017-01-10T22:44:22.409Z</time>
</trkpt>
<trkpt lat="-27.3971395" lon="152.9376819">
<ele>65.425</ele>
<time>2017-01-10T22:44:24.475Z</time>
</trkpt>
<trkpt lat="-27.3974021" lon="152.9376559">
<ele>63.438</ele>
<time>2017-01-10T22:44:26.470Z</time>
</trkpt>
<trkpt lat="-27.3977866" lon="152.9375890">
<ele>61.794</ele>
<time>2017-01-10T22:44:29.411Z</time>
</trkpt>
<trkpt lat="-27.3981757" lon="152.9375385">
<ele>60.679</ele>
<time>2017-01-10T22:44:32.359Z</time>
</trkpt>
<trkpt lat="-27.3984406" lon="152.9374961">
<ele>59.630</ele>
<time>2017-01-10T22:44:34.332Z</time>
</trkpt>
<trkpt lat="-27.3987041" lon="152.9374465">
<ele>58.360</ele>
<time>2017-01-10T22:44:36.346Z</time>
</trkpt>
<trkpt lat="-27.3989576" lon="152.9374016">
<ele>57.439</ele>
<time>2017-01-10T22:44:38.475Z</time>
</trkpt>
<trkpt lat="-27.3992724" lon="152.9373421">
<ele>57.423</ele>
<time>2017-01-10T22:44:41.348Z</time>
</trkpt>
<trkpt lat="-27.3994608" lon="152.9373047">
<ele>58.061</ele>
<time>2017-01-10T22:44:43.178Z</time>
</trkpt>
<trkpt lat="-27.3996683" lon="152.9372407">
<ele>58.586</ele>
<time>2017-01-10T22:44:45.249Z</time>
</trkpt>
<trkpt lat="-27.3999457" lon="152.9371730">
<ele>58.387</ele>
<time>2017-01-10T22:44:48.088Z</time>
</trkpt>
<trkpt lat="-27.4001241" lon="152.9371533">
<ele>57.170</ele>
<time>2017-01-10T22:44:50.306Z</time>
</trkpt>
<trkpt lat="-27.4003160" lon="152.9371353">
<ele>54.914</ele>
<time>2017-01-10T22:44:53.421Z</time>
</trkpt>
<trkpt lat="-27.4004347" lon="152.9371181">
<ele>52.132</ele>
<time>2017-01-10T22:44:56.093Z</time>
</trkpt>
<trkpt lat="-27.4005278" lon="152.9371052">
<ele>49.625</ele>
<time>2017-01-10T22:44:58.650Z</time>
</trkpt>
<trkpt lat="-27.4006229" lon="152.9370739">
<ele>47.971</ele>
<time>2017-01-10T22:45:01.321Z</time>
</trkpt>
<trkpt lat="-27.4006575" lon="152.9368490">
<ele>47.330</ele>
<time>2017-01-10T22:45:04.715Z</time>
</trkpt>
<trkpt lat="-27.4007470" lon="152.9365400">
<ele>47.540</ele>
<time>2017-01-10T22:45:08.046Z</time>
</trkpt>
<trkpt lat="-27.4009740" lon="152.9363887">
<ele>48.448</ele>
<time>2017-01-10T22:45:10.977Z</time>
</trkpt>
<trkpt lat="-27.4011351" lon="152.9364342">
<ele>49.801</ele>
<time>2017-01-10T22:45:13.183Z</time>
</trkpt>
<trkpt lat="-27.4012431" lon="152.9365665">
<ele>51.045</ele>
<time>2017-01-10T22:45:15.837Z</time>
</trkpt>
<trkpt lat="-27.4013127" lon="152.9366672">
<ele>51.531</ele>
<time>2017-01-10T22:45:18.501Z</time>
</trkpt>
<trkpt lat="-27.4014012" lon="152.9367537">
<ele>51.175</ele>
<time>2017-01-10T22:45:22.155Z</time>
</trkpt>
<trkpt lat="-27.4014680" lon="152.9368332">
<ele>50.586</ele>
<time>2017-01-10T22:45:26.000Z</time>
</trkpt>
<trkpt lat="-27.4014680" lon="152.9368332">
<ele>50.283</ele>
<time>2017-01-10T22:45:32.000Z</time>
</trkpt>
<trkpt lat="-27.4014680" lon="152.9368332">
<ele>50.254</ele>
<time>2017-01-10T22:45:34.482Z</time>
</trkpt>
<trkpt lat="-27.4016117" lon="152.9370054">
<ele>50.344</ele>
<time>2017-01-10T22:45:40.810Z</time>
</trkpt>
<trkpt lat="-27.4017151" lon="152.9371044">
<ele>50.607</ele>
<time>2017-01-10T22:45:42.751Z</time>
</trkpt>
<trkpt lat="-27.4018303" lon="152.9372160">
<ele>51.103</ele>
<time>2017-01-10T22:45:44.628Z</time>
</trkpt>
<trkpt lat="-27.4020177" lon="152.9373962">
<ele>51.612</ele>
<time>2017-01-10T22:45:47.498Z</time>
</trkpt>
<trkpt lat="-27.4021483" lon="152.9375091">
<ele>51.912</ele>
<time>2017-01-10T22:45:49.255Z</time>
</trkpt>
<trkpt lat="-27.4022979" lon="152.9376345">
<ele>52.025</ele>
<time>2017-01-10T22:45:51.054Z</time>
</trkpt>
<trkpt lat="-27.4024883" lon="152.9377920">
<ele>52.073</ele>
<time>2017-01-10T22:45:53.077Z</time>
</trkpt>
<trkpt lat="-27.4027821" lon="152.9380547">
<ele>52.147</ele>
<time>2017-01-10T22:45:56.079Z</time>
</trkpt>
<trkpt lat="-27.4030806" lon="152.9383246">
<ele>52.203</ele>
<time>2017-01-10T22:45:59.090Z</time>
</trkpt>
<trkpt lat="-27.4033578" lon="152.9385936">
<ele>52.008</ele>
<time>2017-01-10T22:46:02.016Z</time>
</trkpt>
<trkpt lat="-27.4035418" lon="152.9387752">
<ele>51.473</ele>
<time>2017-01-10T22:46:03.978Z</time>
</trkpt>
<trkpt lat="-27.4038292" lon="152.9390543">
<ele>50.906</ele>
<time>2017-01-10T22:46:07.009Z</time>
</trkpt>
<trkpt lat="-27.4041138" lon="152.9393033">
<ele>50.634</ele>
<time>2017-01-10T22:46:09.914Z</time>
</trkpt>
<trkpt lat="-27.4043097" lon="152.9394552">
<ele>50.633</ele>
<time>2017-01-10T22:46:11.870Z</time>
</trkpt>
<trkpt lat="-27.4046110" lon="152.9396535">
<ele>50.733</ele>
<time>2017-01-10T22:46:14.768Z</time>
</trkpt>
<trkpt lat="-27.4049397" lon="152.9398318">
<ele>50.817</ele>
<time>2017-01-10T22:46:17.771Z</time>
</trkpt>
<trkpt lat="-27.4052965" lon="152.9399728">
<ele>50.777</ele>
<time>2017-01-10T22:46:20.842Z</time>
</trkpt>
<trkpt lat="-27.4055260" lon="152.9400448">
<ele>50.562</ele>
<time>2017-01-10T22:46:22.956Z</time>
</trkpt>
<trkpt lat="-27.4057768" lon="152.9401372">
<ele>50.125</ele>
<time>2017-01-10T22:46:25.671Z</time>
</trkpt>
<trkpt lat="-27.4059067" lon="152.9401897">
<ele>49.471</ele>
<time>2017-01-10T22:46:27.596Z</time>
</trkpt>
<trkpt lat="-27.4060044" lon="152.9402291">
<ele>48.780</ele>
<time>2017-01-10T22:46:29.473Z</time>
</trkpt>
<trkpt lat="-27.4061300" lon="152.9402798">
<ele>48.271</ele>
<time>2017-01-10T22:46:33.000Z</time>
</trkpt>
<trkpt lat="-27.4061300" lon="152.9402798">
<ele>48.029</ele>
<time>2017-01-10T22:46:36.000Z</time>
</trkpt>
<trkpt lat="-27.4061300" lon="152.9402798">
<ele>48.036</ele>
<time>2017-01-10T22:46:39.693Z</time>
</trkpt>
<trkpt lat="-27.4062941" lon="152.9402503">
<ele>48.133</ele>
<time>2017-01-10T22:46:43.768Z</time>
</trkpt>
<trkpt lat="-27.4063248" lon="152.9399869">
<ele>48.280</ele>
<time>2017-01-10T22:46:46.866Z</time>
</trkpt>
<trkpt lat="-27.4063419" lon="152.9397943">
<ele>48.501</ele>
<time>2017-01-10T22:46:49.000Z</time>
</trkpt>
<trkpt lat="-27.4063419" lon="152.9397943">
<ele>48.667</ele>
<time>2017-01-10T22:46:55.000Z</time>
</trkpt>
<trkpt lat="-27.4063419" lon="152.9397943">
<ele>48.667</ele>
<time>2017-01-10T22:47:42.884Z</time>
</trkpt>
<trkpt lat="-27.4063645" lon="152.9395395">
<ele>48.600</ele>
<time>2017-01-10T22:47:49.813Z</time>
</trkpt>
<trkpt lat="-27.4063764" lon="152.9394055">
<ele>48.628</ele>
<time>2017-01-10T22:47:51.104Z</time>
</trkpt>
<trkpt lat="-27.4064219" lon="152.9389617">
<ele>49.049</ele>
<time>2017-01-10T22:47:54.773Z</time>
</trkpt>
<trkpt lat="-27.4064691" lon="152.9385578">
<ele>50.247</ele>
<time>2017-01-10T22:47:57.721Z</time>
</trkpt>
<trkpt lat="-27.4064413" lon="152.9381487">
<ele>52.181</ele>
<time>2017-01-10T22:48:00.529Z</time>
</trkpt>
<trkpt lat="-27.4063434" lon="152.9376908">
<ele>54.227</ele>
<time>2017-01-10T22:48:03.619Z</time>
</trkpt>
<trkpt lat="-27.4062416" lon="152.9372762">
<ele>55.695</ele>
<time>2017-01-10T22:48:06.356Z</time>
</trkpt>
<trkpt lat="-27.4061119" lon="152.9368230">
<ele>56.215</ele>
<time>2017-01-10T22:48:09.257Z</time>
</trkpt>
<trkpt lat="-27.4059862" lon="152.9363665">
<ele>55.953</ele>
<time>2017-01-10T22:48:12.107Z</time>
</trkpt>
<trkpt lat="-27.4059174" lon="152.9360957">
<ele>55.551</ele>
<time>2017-01-10T22:48:13.817Z</time>
</trkpt>
<trkpt lat="-27.4058593" lon="152.9357738">
<ele>55.523</ele>
<time>2017-01-10T22:48:15.804Z</time>
</trkpt>
<trkpt lat="-27.4058154" lon="152.9354982">
<ele>55.818</ele>
<time>2017-01-10T22:48:17.503Z</time>
</trkpt>
<trkpt lat="-27.4057764" lon="152.9351972">
<ele>56.017</ele>
<time>2017-01-10T22:48:19.401Z</time>
</trkpt>
<trkpt lat="-27.4057105" lon="152.9346899">
<ele>55.889</ele>
<time>2017-01-10T22:48:22.698Z</time>
</trkpt>
<trkpt lat="-27.4056712" lon="152.9343872">
<ele>55.683</ele>
<time>2017-01-10T22:48:24.711Z</time>
</trkpt>
<trkpt lat="-27.4056245" lon="152.9340266">
<ele>55.715</ele>
<time>2017-01-10T22:48:27.112Z</time>
</trkpt>
<trkpt lat="-27.4055665" lon="152.9335798">
<ele>56.010</ele>
<time>2017-01-10T22:48:30.092Z</time>
</trkpt>
<trkpt lat="-27.4055247" lon="152.9332582">
<ele>56.384</ele>
<time>2017-01-10T22:48:32.260Z</time>
</trkpt>
<trkpt lat="-27.4054866" lon="152.9329700">
<ele>56.637</ele>
<time>2017-01-10T22:48:34.179Z</time>
</trkpt>
<trkpt lat="-27.4054441" lon="152.9326607">
<ele>56.820</ele>
<time>2017-01-10T22:48:36.217Z</time>
</trkpt>
<trkpt lat="-27.4054054" lon="152.9323795">
<ele>57.205</ele>
<time>2017-01-10T22:48:38.092Z</time>
</trkpt>
<trkpt lat="-27.4053458" lon="152.9319348">
<ele>58.021</ele>
<time>2017-01-10T22:48:41.096Z</time>
</trkpt>
<trkpt lat="-27.4053106" lon="152.9316437">
<ele>59.390</ele>
<time>2017-01-10T22:48:43.081Z</time>
</trkpt>
<trkpt lat="-27.4052658" lon="152.9312154">
<ele>61.027</ele>
<time>2017-01-10T22:48:46.034Z</time>
</trkpt>
<trkpt lat="-27.4052641" lon="152.9309389">
<ele>62.260</ele>
<time>2017-01-10T22:48:47.968Z</time>
</trkpt>
<trkpt lat="-27.4052285" lon="152.9306448">
<ele>62.782</ele>
<time>2017-01-10T22:48:50.051Z</time>
</trkpt>
<trkpt lat="-27.4051608" lon="152.9303720">
<ele>62.852</ele>
<time>2017-01-10T22:48:52.022Z</time>
</trkpt>
<trkpt lat="-27.4051242" lon="152.9299369">
<ele>62.866</ele>
<time>2017-01-10T22:48:55.003Z</time>
</trkpt>
<trkpt lat="-27.4050635" lon="152.9294836">
<ele>63.035</ele>
<time>2017-01-10T22:48:58.000Z</time>
</trkpt>
<trkpt lat="-27.4050220" lon="152.9291697">
<ele>63.065</ele>
<time>2017-01-10T22:48:59.997Z</time>
</trkpt>
<trkpt lat="-27.4049549" lon="152.9286919">
<ele>62.644</ele>
<time>2017-01-10T22:49:03.057Z</time>
</trkpt>
<trkpt lat="-27.4048984" lon="152.9282448">
<ele>62.051</ele>
<time>2017-01-10T22:49:05.994Z</time>
</trkpt>
<trkpt lat="-27.4048520" lon="152.9279415">
<ele>61.903</ele>
<time>2017-01-10T22:49:08.004Z</time>
</trkpt>
<trkpt lat="-27.4048079" lon="152.9276367">
<ele>62.510</ele>
<time>2017-01-10T22:49:09.983Z</time>
</trkpt>
<trkpt lat="-27.4047454" lon="152.9271713">
<ele>63.497</ele>
<time>2017-01-10T22:49:12.995Z</time>
</trkpt>
<trkpt lat="-27.4046894" lon="152.9267307">
<ele>64.319</ele>
<time>2017-01-10T22:49:16.038Z</time>
</trkpt>
<trkpt lat="-27.4046334" lon="152.9263658">
<ele>64.991</ele>
<time>2017-01-10T22:49:18.966Z</time>
</trkpt>
<trkpt lat="-27.4045897" lon="152.9260516">
<ele>65.728</ele>
<time>2017-01-10T22:49:21.849Z</time>
</trkpt>
<trkpt lat="-27.4045721" lon="152.9258517">
<ele>66.535</ele>
<time>2017-01-10T22:49:23.918Z</time>
</trkpt>
<trkpt lat="-27.4046757" lon="152.9256490">
<ele>67.305</ele>
<time>2017-01-10T22:49:26.533Z</time>
</trkpt>
<trkpt lat="-27.4048654" lon="152.9255925">
<ele>68.081</ele>
<time>2017-01-10T22:49:28.765Z</time>
</trkpt>
<trkpt lat="-27.4050879" lon="152.9255508">
<ele>69.181</ele>
<time>2017-01-10T22:49:30.883Z</time>
</trkpt>
<trkpt lat="-27.4054359" lon="152.9254909">
<ele>70.559</ele>
<time>2017-01-10T22:49:33.975Z</time>
</trkpt>
<trkpt lat="-27.4057597" lon="152.9254388">
<ele>71.611</ele>
<time>2017-01-10T22:49:36.911Z</time>
</trkpt>
<trkpt lat="-27.4060651" lon="152.9253864">
<ele>71.810</ele>
<time>2017-01-10T22:49:39.792Z</time>
</trkpt>
<trkpt lat="-27.4063887" lon="152.9252935">
<ele>70.967</ele>
<time>2017-01-10T22:49:42.780Z</time>
</trkpt>
<trkpt lat="-27.4066282" lon="152.9251849">
<ele>69.197</ele>
<time>2017-01-10T22:49:44.879Z</time>
</trkpt>
<trkpt lat="-27.4069654" lon="152.9249770">
<ele>67.026</ele>
<time>2017-01-10T22:49:47.861Z</time>
</trkpt>
<trkpt lat="-27.4071808" lon="152.9247945">
<ele>65.155</ele>
<time>2017-01-10T22:49:49.906Z</time>
</trkpt>
<trkpt lat="-27.4073658" lon="152.9245919">
<ele>63.965</ele>
<time>2017-01-10T22:49:51.864Z</time>
</trkpt>
<trkpt lat="-27.4076217" lon="152.9242433">
<ele>63.320</ele>
<time>2017-01-10T22:49:54.910Z</time>
</trkpt>
<trkpt lat="-27.4077859" lon="152.9240170">
<ele>62.984</ele>
<time>2017-01-10T22:49:56.895Z</time>
</trkpt>
<trkpt lat="-27.4080318" lon="152.9236906">
<ele>63.023</ele>
<time>2017-01-10T22:49:59.805Z</time>
</trkpt>
<trkpt lat="-27.4082934" lon="152.9233361">
<ele>63.903</ele>
<time>2017-01-10T22:50:02.864Z</time>
</trkpt>
<trkpt lat="-27.4085476" lon="152.9229775">
<ele>66.075</ele>
<time>2017-01-10T22:50:05.865Z</time>
</trkpt>
<trkpt lat="-27.4087889" lon="152.9226170">
<ele>69.264</ele>
<time>2017-01-10T22:50:08.851Z</time>
</trkpt>
<trkpt lat="-27.4089990" lon="152.9222471">
<ele>72.783</ele>
<time>2017-01-10T22:50:11.828Z</time>
</trkpt>
<trkpt lat="-27.4091621" lon="152.9218519">
<ele>76.230</ele>
<time>2017-01-10T22:50:14.799Z</time>
</trkpt>
<trkpt lat="-27.4092485" lon="152.9215622">
<ele>79.266</ele>
<time>2017-01-10T22:50:16.814Z</time>
</trkpt>
<trkpt lat="-27.4093518" lon="152.9211172">
<ele>81.614</ele>
<time>2017-01-10T22:50:19.806Z</time>
</trkpt>
<trkpt lat="-27.4094291" lon="152.9208234">
<ele>83.445</ele>
<time>2017-01-10T22:50:21.810Z</time>
</trkpt>
<trkpt lat="-27.4095374" lon="152.9203903">
<ele>84.985</ele>
<time>2017-01-10T22:50:24.759Z</time>
</trkpt>
<trkpt lat="-27.4096497" lon="152.9201103">
<ele>86.355</ele>
<time>2017-01-10T22:50:26.786Z</time>
</trkpt>
<trkpt lat="-27.4098897" lon="152.9197512">
<ele>87.699</ele>
<time>2017-01-10T22:50:29.803Z</time>
</trkpt>
<trkpt lat="-27.4100613" lon="152.9195363">
<ele>89.077</ele>
<time>2017-01-10T22:50:31.774Z</time>
</trkpt>
<trkpt lat="-27.4103394" lon="152.9192246">
<ele>90.321</ele>
<time>2017-01-10T22:50:34.756Z</time>
</trkpt>
<trkpt lat="-27.4106705" lon="152.9189340">
<ele>91.219</ele>
<time>2017-01-10T22:50:37.799Z</time>
</trkpt>
<trkpt lat="-27.4110420" lon="152.9186654">
<ele>91.721</ele>
<time>2017-01-10T22:50:40.841Z</time>
</trkpt>
<trkpt lat="-27.4112839" lon="152.9184841">
<ele>91.948</ele>
<time>2017-01-10T22:50:42.824Z</time>
</trkpt>
<trkpt lat="-27.4116543" lon="152.9182219">
<ele>92.020</ele>
<time>2017-01-10T22:50:45.882Z</time>
</trkpt>
<trkpt lat="-27.4118716" lon="152.9180688">
<ele>92.041</ele>
<time>2017-01-10T22:50:47.844Z</time>
</trkpt>
<trkpt lat="-27.4121731" lon="152.9178707">
<ele>92.104</ele>
<time>2017-01-10T22:50:50.764Z</time>
</trkpt>
<trkpt lat="-27.4123613" lon="152.9177458">
<ele>92.451</ele>
<time>2017-01-10T22:50:52.711Z</time>
</trkpt>
<trkpt lat="-27.4125775" lon="152.9174591">
<ele>93.361</ele>
<time>2017-01-10T22:50:55.672Z</time>
</trkpt>
<trkpt lat="-27.4126033" lon="152.9171851">
<ele>95.204</ele>
<time>2017-01-10T22:50:57.765Z</time>
</trkpt>
<trkpt lat="-27.4126208" lon="152.9167733">
<ele>97.696</ele>
<time>2017-01-10T22:51:00.849Z</time>
</trkpt>
<trkpt lat="-27.4127323" lon="152.9165453">
<ele>99.647</ele>
<time>2017-01-10T22:51:02.873Z</time>
</trkpt>
<trkpt lat="-27.4129949" lon="152.9163379">
<ele>100.315</ele>
<time>2017-01-10T22:51:05.811Z</time>
</trkpt>
<trkpt lat="-27.4132147" lon="152.9163470">
<ele>99.968</ele>
<time>2017-01-10T22:51:07.795Z</time>
</trkpt>
<trkpt lat="-27.4135504" lon="152.9165143">
<ele>98.928</ele>
<time>2017-01-10T22:51:10.870Z</time>
</trkpt>
<trkpt lat="-27.4139289" lon="152.9166316">
<ele>97.224</ele>
<time>2017-01-10T22:51:13.898Z</time>
</trkpt>
<trkpt lat="-27.4141934" lon="152.9166270">
<ele>94.806</ele>
<time>2017-01-10T22:51:15.824Z</time>
</trkpt>
<trkpt lat="-27.4146283" lon="152.9165624">
<ele>91.925</ele>
<time>2017-01-10T22:51:18.834Z</time>
</trkpt>
<trkpt lat="-27.4149427" lon="152.9165100">
<ele>88.755</ele>
<time>2017-01-10T22:51:20.915Z</time>
</trkpt>
<trkpt lat="-27.4153690" lon="152.9163605">
<ele>85.507</ele>
<time>2017-01-10T22:51:24.010Z</time>
</trkpt>
<trkpt lat="-27.4156862" lon="152.9161625">
<ele>82.267</ele>
<time>2017-01-10T22:51:26.934Z</time>
</trkpt>
<trkpt lat="-27.4158829" lon="152.9159066">
<ele>78.905</ele>
<time>2017-01-10T22:51:29.640Z</time>
</trkpt>
<trkpt lat="-27.4159011" lon="152.9156248">
<ele>75.997</ele>
<time>2017-01-10T22:51:31.736Z</time>
</trkpt>
<trkpt lat="-27.4159036" lon="152.9151532">
<ele>74.790</ele>
<time>2017-01-10T22:51:34.885Z</time>
</trkpt>
<trkpt lat="-27.4159087" lon="152.9148494">
<ele>75.890</ele>
<time>2017-01-10T22:51:36.868Z</time>
</trkpt>
<trkpt lat="-27.4159130" lon="152.9144116">
<ele>78.688</ele>
<time>2017-01-10T22:51:39.779Z</time>
</trkpt>
<trkpt lat="-27.4159192" lon="152.9139778">
<ele>81.914</ele>
<time>2017-01-10T22:51:42.751Z</time>
</trkpt>
<trkpt lat="-27.4159256" lon="152.9136964">
<ele>84.639</ele>
<time>2017-01-10T22:51:44.717Z</time>
</trkpt>
<trkpt lat="-27.4159304" lon="152.9134095">
<ele>86.430</ele>
<time>2017-01-10T22:51:46.693Z</time>
</trkpt>
<trkpt lat="-27.4159365" lon="152.9129567">
<ele>87.326</ele>
<time>2017-01-10T22:51:49.774Z</time>
</trkpt>
<trkpt lat="-27.4159344" lon="152.9126755">
<ele>87.877</ele>
<time>2017-01-10T22:51:51.854Z</time>
</trkpt>
<trkpt lat="-27.4159454" lon="152.9123476">
<ele>88.432</ele>
<time>2017-01-10T22:51:54.716Z</time>
</trkpt>
<trkpt lat="-27.4159243" lon="152.9120979">
<ele>89.060</ele>
<time>2017-01-10T22:51:57.395Z</time>
</trkpt>
<trkpt lat="-27.4157850" lon="152.9119744">
<ele>89.991</ele>
<time>2017-01-10T22:51:59.401Z</time>
</trkpt>
<trkpt lat="-27.4155033" lon="152.9116373">
<ele>91.575</ele>
<time>2017-01-10T22:52:02.636Z</time>
</trkpt>
<trkpt lat="-27.4151590" lon="152.9111353">
<ele>94.642</ele>
<time>2017-01-10T22:52:05.956Z</time>
</trkpt>
<trkpt lat="-27.4149559" lon="152.9108313">
<ele>99.729</ele>
<time>2017-01-10T22:52:07.984Z</time>
</trkpt>
<trkpt lat="-27.4147916" lon="152.9105732">
<ele>105.173</ele>
<time>2017-01-10T22:52:09.892Z</time>
</trkpt>
<trkpt lat="-27.4145416" lon="152.9102204">
<ele>108.576</ele>
<time>2017-01-10T22:52:12.788Z</time>
</trkpt>
<trkpt lat="-27.4142469" lon="152.9099151">
<ele>110.442</ele>
<time>2017-01-10T22:52:15.699Z</time>
</trkpt>
<trkpt lat="-27.4139074" lon="152.9096055">
<ele>113.152</ele>
<time>2017-01-10T22:52:18.763Z</time>
</trkpt>
<trkpt lat="-27.4136688" lon="152.9094227">
<ele>117.620</ele>
<time>2017-01-10T22:52:20.761Z</time>
</trkpt>
<trkpt lat="-27.4134048" lon="152.9092933">
<ele>122.974</ele>
<time>2017-01-10T22:52:22.760Z</time>
</trkpt>
<trkpt lat="-27.4129641" lon="152.9092375">
<ele>127.921</ele>
<time>2017-01-10T22:52:25.837Z</time>
</trkpt>
<trkpt lat="-27.4126934" lon="152.9092425">
<ele>132.266</ele>
<time>2017-01-10T22:52:27.760Z</time>
</trkpt>
<trkpt lat="-27.4124226" lon="152.9093099">
<ele>136.567</ele>
<time>2017-01-10T22:52:29.725Z</time>
</trkpt>
<trkpt lat="-27.4120322" lon="152.9095734">
<ele>140.651</ele>
<time>2017-01-10T22:52:32.808Z</time>
</trkpt>
<trkpt lat="-27.4116487" lon="152.9098804">
<ele>144.573</ele>
<time>2017-01-10T22:52:35.858Z</time>
</trkpt>
<trkpt lat="-27.4112105" lon="152.9100520">
<ele>148.908</ele>
<time>2017-01-10T22:52:38.819Z</time>
</trkpt>
<trkpt lat="-27.4107229" lon="152.9101003">
<ele>153.741</ele>
<time>2017-01-10T22:52:41.907Z</time>
</trkpt>
<trkpt lat="-27.4102606" lon="152.9101360">
<ele>159.627</ele>
<time>2017-01-10T22:52:44.916Z</time>
</trkpt>
<trkpt lat="-27.4098248" lon="152.9101293">
<ele>167.016</ele>
<time>2017-01-10T22:52:47.921Z</time>
</trkpt>
<trkpt lat="-27.4094011" lon="152.9100925">
<ele>174.694</ele>
<time>2017-01-10T22:52:50.918Z</time>
</trkpt>
<trkpt lat="-27.4091179" lon="152.9100044">
<ele>180.470</ele>
<time>2017-01-10T22:52:52.961Z</time>
</trkpt>
<trkpt lat="-27.4087566" lon="152.9097460">
<ele>183.162</ele>
<time>2017-01-10T22:52:55.934Z</time>
</trkpt>
<trkpt lat="-27.4085788" lon="152.9094916">
<ele>183.241</ele>
<time>2017-01-10T22:52:57.985Z</time>
</trkpt>
<trkpt lat="-27.4084279" lon="152.9090668">
<ele>181.863</ele>
<time>2017-01-10T22:53:00.969Z</time>
</trkpt>
<trkpt lat="-27.4083868" lon="152.9087690">
<ele>179.869</ele>
<time>2017-01-10T22:53:02.948Z</time>
</trkpt>
<trkpt lat="-27.4083675" lon="152.9083000">
<ele>177.883</ele>
<time>2017-01-10T22:53:05.937Z</time>
</trkpt>
<trkpt lat="-27.4083618" lon="152.9079739">
<ele>176.161</ele>
<time>2017-01-10T22:53:07.887Z</time>
</trkpt>
<trkpt lat="-27.4082773" lon="152.9074511">
<ele>174.238</ele>
<time>2017-01-10T22:53:10.907Z</time>
</trkpt>
<trkpt lat="-27.4080404" lon="152.9069535">
<ele>171.107</ele>
<time>2017-01-10T22:53:13.929Z</time>
</trkpt>
<trkpt lat="-27.4077856" lon="152.9064404">
<ele>165.932</ele>
<time>2017-01-10T22:53:17.017Z</time>
</trkpt>
<trkpt lat="-27.4076394" lon="152.9061287">
<ele>158.988</ele>
<time>2017-01-10T22:53:18.997Z</time>
</trkpt>
<trkpt lat="-27.4075155" lon="152.9058386">
<ele>152.405</ele>
<time>2017-01-10T22:53:20.987Z</time>
</trkpt>
<trkpt lat="-27.4072871" lon="152.9055151">
<ele>148.446</ele>
<time>2017-01-10T22:53:23.771Z</time>
</trkpt>
<trkpt lat="-27.4069973" lon="152.9052760">
<ele>147.278</ele>
<time>2017-01-10T22:53:26.766Z</time>
</trkpt>
<trkpt lat="-27.4068268" lon="152.9050890">
<ele>147.461</ele>
<time>2017-01-10T22:53:28.887Z</time>
</trkpt>
<trkpt lat="-27.4067072" lon="152.9049106">
<ele>147.516</ele>
<time>2017-01-10T22:53:30.876Z</time>
</trkpt>
<trkpt lat="-27.4066969" lon="152.9046423">
<ele>146.369</ele>
<time>2017-01-10T22:53:33.465Z</time>
</trkpt>
<trkpt lat="-27.4068596" lon="152.9044358">
<ele>143.454</ele>
<time>2017-01-10T22:53:35.672Z</time>
</trkpt>
<trkpt lat="-27.4071711" lon="152.9040254">
<ele>139.418</ele>
<time>2017-01-10T22:53:38.989Z</time>
</trkpt>
<trkpt lat="-27.4074519" lon="152.9035987">
<ele>135.328</ele>
<time>2017-01-10T22:53:42.049Z</time>
</trkpt>
<trkpt lat="-27.4076904" lon="152.9032260">
<ele>131.872</ele>
<time>2017-01-10T22:53:44.983Z</time>
</trkpt>
<trkpt lat="-27.4078501" lon="152.9028727">
<ele>130.031</ele>
<time>2017-01-10T22:53:47.787Z</time>
</trkpt>
<trkpt lat="-27.4078245" lon="152.9024538">
<ele>130.932</ele>
<time>2017-01-10T22:53:50.801Z</time>
</trkpt>
<trkpt lat="-27.4077329" lon="152.9021860">
<ele>134.818</ele>
<time>2017-01-10T22:53:52.857Z</time>
</trkpt>
<trkpt lat="-27.4076408" lon="152.9019364">
<ele>140.650</ele>
<time>2017-01-10T22:53:54.959Z</time>
</trkpt>
<trkpt lat="-27.4076148" lon="152.9017196">
<ele>146.373</ele>
<time>2017-01-10T22:53:56.811Z</time>
</trkpt>
<trkpt lat="-27.4077755" lon="152.9014208">
<ele>150.587</ele>
<time>2017-01-10T22:53:59.721Z</time>
</trkpt>
<trkpt lat="-27.4079635" lon="152.9012050">
<ele>153.887</ele>
<time>2017-01-10T22:54:01.933Z</time>
</trkpt>
<trkpt lat="-27.4081484" lon="152.9009973">
<ele>157.186</ele>
<time>2017-01-10T22:54:03.975Z</time>
</trkpt>
<trkpt lat="-27.4083839" lon="152.9006547">
<ele>159.863</ele>
<time>2017-01-10T22:54:06.941Z</time>
</trkpt>
<trkpt lat="-27.4085514" lon="152.9002643">
<ele>161.042</ele>
<time>2017-01-10T22:54:09.910Z</time>
</trkpt>
<trkpt lat="-27.4086996" lon="152.8998734">
<ele>161.085</ele>
<time>2017-01-10T22:54:12.886Z</time>
</trkpt>
<trkpt lat="-27.4089312" lon="152.8995570">
<ele>160.962</ele>
<time>2017-01-10T22:54:15.799Z</time>
</trkpt>
<trkpt lat="-27.4091089" lon="152.8993526">
<ele>161.925</ele>
<time>2017-01-10T22:54:17.827Z</time>
</trkpt>
<trkpt lat="-27.4092425" lon="152.8991522">
<ele>164.135</ele>
<time>2017-01-10T22:54:19.612Z</time>
</trkpt>
<trkpt lat="-27.4093878" lon="152.8989535">
<ele>166.293</ele>
<time>2017-01-10T22:54:21.488Z</time>
</trkpt>
<trkpt lat="-27.4095795" lon="152.8986298">
<ele>167.572</ele>
<time>2017-01-10T22:54:24.389Z</time>
</trkpt>
<trkpt lat="-27.4096821" lon="152.8983808">
<ele>168.415</ele>
<time>2017-01-10T22:54:26.427Z</time>
</trkpt>
<trkpt lat="-27.4098044" lon="152.8981437">
<ele>169.174</ele>
<time>2017-01-10T22:54:28.459Z</time>
</trkpt>
<trkpt lat="-27.4100047" lon="152.8978060">
<ele>169.390</ele>
<time>2017-01-10T22:54:31.538Z</time>
</trkpt>
<trkpt lat="-27.4101286" lon="152.8974354">
<ele>168.381</ele>
<time>2017-01-10T22:54:34.578Z</time>
</trkpt>
<trkpt lat="-27.4102040" lon="152.8971804">
<ele>166.570</ele>
<time>2017-01-10T22:54:36.623Z</time>
</trkpt>
<trkpt lat="-27.4103716" lon="152.8968200">
<ele>165.134</ele>
<time>2017-01-10T22:54:39.712Z</time>
</trkpt>
<trkpt lat="-27.4104705" lon="152.8965974">
<ele>164.650</ele>
<time>2017-01-10T22:54:41.567Z</time>
</trkpt>
<trkpt lat="-27.4106028" lon="152.8963062">
<ele>164.930</ele>
<time>2017-01-10T22:54:43.931Z</time>
</trkpt>
<trkpt lat="-27.4107200" lon="152.8960857">
<ele>165.747</ele>
<time>2017-01-10T22:54:45.751Z</time>
</trkpt>
<trkpt lat="-27.4108509" lon="152.8956188">
<ele>166.817</ele>
<time>2017-01-10T22:54:49.156Z</time>
</trkpt>
<trkpt lat="-27.4108352" lon="152.8953922">
<ele>168.183</ele>
<time>2017-01-10T22:54:50.800Z</time>
</trkpt>
<trkpt lat="-27.4107275" lon="152.8950435">
<ele>170.070</ele>
<time>2017-01-10T22:54:53.570Z</time>
</trkpt>
<trkpt lat="-27.4106117" lon="152.8946394">
<ele>172.359</ele>
<time>2017-01-10T22:54:56.699Z</time>
</trkpt>
<trkpt lat="-27.4106616" lon="152.8943476">
<ele>174.742</ele>
<time>2017-01-10T22:54:58.746Z</time>
</trkpt>
<trkpt lat="-27.4107858" lon="152.8939270">
<ele>176.873</ele>
<time>2017-01-10T22:55:01.694Z</time>
</trkpt>
<trkpt lat="-27.4108989" lon="152.8936236">
<ele>178.603</ele>
<time>2017-01-10T22:55:03.912Z</time>
</trkpt>
<trkpt lat="-27.4110538" lon="152.8932833">
<ele>180.388</ele>
<time>2017-01-10T22:55:06.581Z</time>
</trkpt>
<trkpt lat="-27.4111288" lon="152.8930140">
<ele>182.495</ele>
<time>2017-01-10T22:55:08.566Z</time>
</trkpt>
<trkpt lat="-27.4112151" lon="152.8925800">
<ele>184.452</ele>
<time>2017-01-10T22:55:11.582Z</time>
</trkpt>
<trkpt lat="-27.4112456" lon="152.8922667">
<ele>185.576</ele>
<time>2017-01-10T22:55:13.701Z</time>
</trkpt>
<trkpt lat="-27.4112327" lon="152.8918527">
<ele>185.766</ele>
<time>2017-01-10T22:55:16.574Z</time>
</trkpt>
<trkpt lat="-27.4111296" lon="152.8914501">
<ele>185.959</ele>
<time>2017-01-10T22:55:19.515Z</time>
</trkpt>
<trkpt lat="-27.4108954" lon="152.8910484">
<ele>187.050</ele>
<time>2017-01-10T22:55:22.733Z</time>
</trkpt>
<trkpt lat="-27.4107834" lon="152.8907879">
<ele>188.853</ele>
<time>2017-01-10T22:55:24.722Z</time>
</trkpt>
<trkpt lat="-27.4107367" lon="152.8905814">
<ele>190.745</ele>
<time>2017-01-10T22:55:26.397Z</time>
</trkpt>
<trkpt lat="-27.4106422" lon="152.8903100">
<ele>192.619</ele>
<time>2017-01-10T22:55:29.195Z</time>
</trkpt>
<trkpt lat="-27.4104320" lon="152.8901532">
<ele>194.990</ele>
<time>2017-01-10T22:55:32.191Z</time>
</trkpt>
<trkpt lat="-27.4101843" lon="152.8901659">
<ele>198.480</ele>
<time>2017-01-10T22:55:34.598Z</time>
</trkpt>
<trkpt lat="-27.4098110" lon="152.8900928">
<ele>202.339</ele>
<time>2017-01-10T22:55:37.753Z</time>
</trkpt>
<trkpt lat="-27.4095629" lon="152.8900310">
<ele>204.780</ele>
<time>2017-01-10T22:55:39.749Z</time>
</trkpt>
<trkpt lat="-27.4091703" lon="152.8900862">
<ele>204.754</ele>
<time>2017-01-10T22:55:42.856Z</time>
</trkpt>
<trkpt lat="-27.4089060" lon="152.8901428">
<ele>201.883</ele>
<time>2017-01-10T22:55:44.975Z</time>
</trkpt>
<trkpt lat="-27.4085424" lon="152.8901760">
<ele>196.699</ele>
<time>2017-01-10T22:55:47.913Z</time>
</trkpt>
<trkpt lat="-27.4083037" lon="152.8901950">
<ele>190.804</ele>
<time>2017-01-10T22:55:50.003Z</time>
</trkpt>
<trkpt lat="-27.4080076" lon="152.8903163">
<ele>185.690</ele>
<time>2017-01-10T22:55:52.930Z</time>
</trkpt>
<trkpt lat="-27.4077425" lon="152.8905495">
<ele>181.952</ele>
<time>2017-01-10T22:55:56.076Z</time>
</trkpt>
<trkpt lat="-27.4075912" lon="152.8907397">
<ele>179.141</ele>
<time>2017-01-10T22:55:58.081Z</time>
</trkpt>
<trkpt lat="-27.4074315" lon="152.8911100">
<ele>176.396</ele>
<time>2017-01-10T22:56:01.244Z</time>
</trkpt>
<trkpt lat="-27.4073004" lon="152.8914692">
<ele>173.187</ele>
<time>2017-01-10T22:56:04.245Z</time>
</trkpt>
<trkpt lat="-27.4071414" lon="152.8917477">
<ele>169.166</ele>
<time>2017-01-10T22:56:06.864Z</time>
</trkpt>
<trkpt lat="-27.4068781" lon="152.8918838">
<ele>164.369</ele>
<time>2017-01-10T22:56:09.348Z</time>
</trkpt>
<trkpt lat="-27.4066502" lon="152.8920192">
<ele>159.300</ele>
<time>2017-01-10T22:56:11.563Z</time>
</trkpt>
<trkpt lat="-27.4064468" lon="152.8921219">
<ele>154.704</ele>
<time>2017-01-10T22:56:13.540Z</time>
</trkpt>
<trkpt lat="-27.4061588" lon="152.8923337">
<ele>151.467</ele>
<time>2017-01-10T22:56:16.624Z</time>
</trkpt>
<trkpt lat="-27.4060073" lon="152.8924774">
<ele>150.530</ele>
<time>2017-01-10T22:56:18.451Z</time>
</trkpt>
<trkpt lat="-27.4058340" lon="152.8927462">
<ele>151.931</ele>
<time>2017-01-10T22:56:21.158Z</time>
</trkpt>
<trkpt lat="-27.4057734" lon="152.8930119">
<ele>154.275</ele>
<time>2017-01-10T22:56:23.290Z</time>
</trkpt>
<trkpt lat="-27.4057343" lon="152.8932813">
<ele>156.111</ele>
<time>2017-01-10T22:56:25.376Z</time>
</trkpt>
<trkpt lat="-27.4055880" lon="152.8936089">
<ele>156.917</ele>
<time>2017-01-10T22:56:28.193Z</time>
</trkpt>
<trkpt lat="-27.4054598" lon="152.8938382">
<ele>156.553</ele>
<time>2017-01-10T22:56:30.226Z</time>
</trkpt>
<trkpt lat="-27.4053445" lon="152.8940980">
<ele>155.003</ele>
<time>2017-01-10T22:56:32.282Z</time>
</trkpt>
<trkpt lat="-27.4051641" lon="152.8945099">
<ele>152.442</ele>
<time>2017-01-10T22:56:35.421Z</time>
</trkpt>
<trkpt lat="-27.4050328" lon="152.8949495">
<ele>149.164</ele>
<time>2017-01-10T22:56:38.597Z</time>
</trkpt>
<trkpt lat="-27.4049632" lon="152.8952255">
<ele>145.235</ele>
<time>2017-01-10T22:56:40.708Z</time>
</trkpt>
<trkpt lat="-27.4049141" lon="152.8956009">
<ele>141.101</ele>
<time>2017-01-10T22:56:43.629Z</time>
</trkpt>
<trkpt lat="-27.4048703" lon="152.8959493">
<ele>137.652</ele>
<time>2017-01-10T22:56:46.410Z</time>
</trkpt>
<trkpt lat="-27.4048336" lon="152.8962098">
<ele>135.178</ele>
<time>2017-01-10T22:56:48.491Z</time>
</trkpt>
<trkpt lat="-27.4047822" lon="152.8964639">
<ele>133.308</ele>
<time>2017-01-10T22:56:50.560Z</time>
</trkpt>
<trkpt lat="-27.4046506" lon="152.8968376">
<ele>131.864</ele>
<time>2017-01-10T22:56:53.797Z</time>
</trkpt>
<trkpt lat="-27.4045890" lon="152.8970634">
<ele>130.706</ele>
<time>2017-01-10T22:56:55.784Z</time>
</trkpt>
<trkpt lat="-27.4045948" lon="152.8974102">
<ele>129.446</ele>
<time>2017-01-10T22:56:58.734Z</time>
</trkpt>
<trkpt lat="-27.4045631" lon="152.8976447">
<ele>127.794</ele>
<time>2017-01-10T22:57:00.741Z</time>
</trkpt>
<trkpt lat="-27.4044274" lon="152.8978346">
<ele>125.826</ele>
<time>2017-01-10T22:57:02.655Z</time>
</trkpt>
<trkpt lat="-27.4041557" lon="152.8981262">
<ele>123.862</ele>
<time>2017-01-10T22:57:05.691Z</time>
</trkpt>
<trkpt lat="-27.4037884" lon="152.8983679">
<ele>121.649</ele>
<time>2017-01-10T22:57:08.863Z</time>
</trkpt>
<trkpt lat="-27.4035761" lon="152.8985387">
<ele>118.477</ele>
<time>2017-01-10T22:57:10.980Z</time>
</trkpt>
<trkpt lat="-27.4033018" lon="152.8987557">
<ele>114.455</ele>
<time>2017-01-10T22:57:14.068Z</time>
</trkpt>
<trkpt lat="-27.4031550" lon="152.8988788">
<ele>110.164</ele>
<time>2017-01-10T22:57:16.193Z</time>
</trkpt>
<trkpt lat="-27.4029366" lon="152.8988940">
<ele>105.856</ele>
<time>2017-01-10T22:57:18.814Z</time>
</trkpt>
<trkpt lat="-27.4027194" lon="152.8987188">
<ele>101.853</ele>
<time>2017-01-10T22:57:21.989Z</time>
</trkpt>
<trkpt lat="-27.4025807" lon="152.8986212">
<ele>98.471</ele>
<time>2017-01-10T22:57:24.015Z</time>
</trkpt>
<trkpt lat="-27.4024382" lon="152.8985417">
<ele>96.069</ele>
<time>2017-01-10T22:57:26.213Z</time>
</trkpt>
<trkpt lat="-27.4022372" lon="152.8985164">
<ele>94.962</ele>
<time>2017-01-10T22:57:28.880Z</time>
</trkpt>
<trkpt lat="-27.4020399" lon="152.8983646">
<ele>94.965</ele>
<time>2017-01-10T22:57:31.604Z</time>
</trkpt>
<trkpt lat="-27.4018748" lon="152.8982285">
<ele>95.567</ele>
<time>2017-01-10T22:57:33.594Z</time>
</trkpt>
<trkpt lat="-27.4015797" lon="152.8980534">
<ele>96.270</ele>
<time>2017-01-10T22:57:36.811Z</time>
</trkpt>
<trkpt lat="-27.4012991" lon="152.8979737">
<ele>96.692</ele>
<time>2017-01-10T22:57:39.609Z</time>
</trkpt>
<trkpt lat="-27.4010774" lon="152.8979345">
<ele>96.590</ele>
<time>2017-01-10T22:57:41.664Z</time>
</trkpt>
<trkpt lat="-27.4008589" lon="152.8978808">
<ele>96.016</ele>
<time>2017-01-10T22:57:43.631Z</time>
</trkpt>
<trkpt lat="-27.4006501" lon="152.8978251">
<ele>95.385</ele>
<time>2017-01-10T22:57:45.411Z</time>
</trkpt>
<trkpt lat="-27.4003874" lon="152.8977731">
<ele>95.015</ele>
<time>2017-01-10T22:57:47.505Z</time>
</trkpt>
<trkpt lat="-27.4001347" lon="152.8977341">
<ele>94.841</ele>
<time>2017-01-10T22:57:49.440Z</time>
</trkpt>
<trkpt lat="-27.3998778" lon="152.8976773">
<ele>94.605</ele>
<time>2017-01-10T22:57:51.340Z</time>
</trkpt>
<trkpt lat="-27.3994510" lon="152.8975939">
<ele>94.123</ele>
<time>2017-01-10T22:57:54.390Z</time>
</trkpt>
<trkpt lat="-27.3991752" lon="152.8975369">
<ele>93.429</ele>
<time>2017-01-10T22:57:56.339Z</time>
</trkpt>
<trkpt lat="-27.3988947" lon="152.8974843">
<ele>92.545</ele>
<time>2017-01-10T22:57:58.274Z</time>
</trkpt>
<trkpt lat="-27.3984596" lon="152.8973930">
<ele>91.434</ele>
<time>2017-01-10T22:58:01.227Z</time>
</trkpt>
<trkpt lat="-27.3981561" lon="152.8973286">
<ele>90.247</ele>
<time>2017-01-10T22:58:03.327Z</time>
</trkpt>
<trkpt lat="-27.3977408" lon="152.8971931">
<ele>88.963</ele>
<time>2017-01-10T22:58:06.376Z</time>
</trkpt>
<trkpt lat="-27.3974122" lon="152.8969045">
<ele>87.445</ele>
<time>2017-01-10T22:58:09.377Z</time>
</trkpt>
<trkpt lat="-27.3971839" lon="152.8964919">
<ele>85.994</ele>
<time>2017-01-10T22:58:12.429Z</time>
</trkpt>
<trkpt lat="-27.3971387" lon="152.8961579">
<ele>84.952</ele>
<time>2017-01-10T22:58:14.429Z</time>
</trkpt>
<trkpt lat="-27.3972200" lon="152.8956390">
<ele>84.249</ele>
<time>2017-01-10T22:58:17.477Z</time>
</trkpt>
<trkpt lat="-27.3973108" lon="152.8953323">
<ele>83.633</ele>
<time>2017-01-10T22:58:19.371Z</time>
</trkpt>
<trkpt lat="-27.3974149" lon="152.8948463">
<ele>82.740</ele>
<time>2017-01-10T22:58:22.306Z</time>
</trkpt>
<trkpt lat="-27.3974486" lon="152.8943179">
<ele>81.595</ele>
<time>2017-01-10T22:58:25.381Z</time>
</trkpt>
<trkpt lat="-27.3973866" lon="152.8938066">
<ele>80.739</ele>
<time>2017-01-10T22:58:28.381Z</time>
</trkpt>
<trkpt lat="-27.3972732" lon="152.8933457">
<ele>80.433</ele>
<time>2017-01-10T22:58:31.218Z</time>
</trkpt>
<trkpt lat="-27.3972052" lon="152.8930173">
<ele>80.267</ele>
<time>2017-01-10T22:58:33.264Z</time>
</trkpt>
<trkpt lat="-27.3971062" lon="152.8925486">
<ele>79.794</ele>
<time>2017-01-10T22:58:36.244Z</time>
</trkpt>
<trkpt lat="-27.3969947" lon="152.8921077">
<ele>78.993</ele>
<time>2017-01-10T22:58:39.176Z</time>
</trkpt>
<trkpt lat="-27.3968178" lon="152.8917314">
<ele>78.076</ele>
<time>2017-01-10T22:58:41.925Z</time>
</trkpt>
<trkpt lat="-27.3965011" lon="152.8913739">
<ele>77.225</ele>
<time>2017-01-10T22:58:45.052Z</time>
</trkpt>
<trkpt lat="-27.3962325" lon="152.8911975">
<ele>76.666</ele>
<time>2017-01-10T22:58:47.099Z</time>
</trkpt>
<trkpt lat="-27.3959146" lon="152.8910927">
<ele>76.462</ele>
<time>2017-01-10T22:58:49.202Z</time>
</trkpt>
<trkpt lat="-27.3954324" lon="152.8910307">
<ele>76.472</ele>
<time>2017-01-10T22:58:52.213Z</time>
</trkpt>
<trkpt lat="-27.3950909" lon="152.8911989">
<ele>76.622</ele>
<time>2017-01-10T22:58:54.486Z</time>
</trkpt>
<trkpt lat="-27.3947821" lon="152.8913320">
<ele>76.870</ele>
<time>2017-01-10T22:58:56.539Z</time>
</trkpt>
<trkpt lat="-27.3943365" lon="152.8915364">
<ele>76.996</ele>
<time>2017-01-10T22:58:59.667Z</time>
</trkpt>
<trkpt lat="-27.3940707" lon="152.8916259">
<ele>76.745</ele>
<time>2017-01-10T22:59:01.730Z</time>
</trkpt>
<trkpt lat="-27.3937009" lon="152.8916613">
<ele>76.039</ele>
<time>2017-01-10T22:59:04.828Z</time>
</trkpt>
<trkpt lat="-27.3933969" lon="152.8915969">
<ele>75.134</ele>
<time>2017-01-10T22:59:08.043Z</time>
</trkpt>
<trkpt lat="-27.3931821" lon="152.8915213">
<ele>74.067</ele>
<time>2017-01-10T22:59:11.132Z</time>
</trkpt>
<trkpt lat="-27.3930798" lon="152.8914367">
<ele>72.376</ele>
<time>2017-01-10T22:59:13.405Z</time>
</trkpt>
<trkpt lat="-27.3929845" lon="152.8913094">
<ele>70.090</ele>
<time>2017-01-10T22:59:15.344Z</time>
</trkpt>
<trkpt lat="-27.3930700" lon="152.8909185">
<ele>68.120</ele>
<time>2017-01-10T22:59:18.683Z</time>
</trkpt>
<trkpt lat="-27.3930910" lon="152.8905960">
<ele>67.551</ele>
<time>2017-01-10T22:59:20.783Z</time>
</trkpt>
<trkpt lat="-27.3930513" lon="152.8901197">
<ele>68.495</ele>
<time>2017-01-10T22:59:23.881Z</time>
</trkpt>
<trkpt lat="-27.3930008" lon="152.8896776">
<ele>69.814</ele>
<time>2017-01-10T22:59:26.809Z</time>
</trkpt>
<trkpt lat="-27.3930425" lon="152.8893977">
<ele>70.544</ele>
<time>2017-01-10T22:59:28.620Z</time>
</trkpt>
<trkpt lat="-27.3931033" lon="152.8889138">
<ele>70.818</ele>
<time>2017-01-10T22:59:31.676Z</time>
</trkpt>
<trkpt lat="-27.3931474" lon="152.8885961">
<ele>71.366</ele>
<time>2017-01-10T22:59:33.678Z</time>
</trkpt>
<trkpt lat="-27.3932236" lon="152.8881453">
<ele>72.472</ele>
<time>2017-01-10T22:59:36.568Z</time>
</trkpt>
<trkpt lat="-27.3932809" lon="152.8878495">
<ele>73.464</ele>
<time>2017-01-10T22:59:38.481Z</time>
</trkpt>
<trkpt lat="-27.3933323" lon="152.8875267">
<ele>73.742</ele>
<time>2017-01-10T22:59:40.518Z</time>
</trkpt>
<trkpt lat="-27.3933805" lon="152.8872140">
<ele>73.318</ele>
<time>2017-01-10T22:59:42.460Z</time>
</trkpt>
<trkpt lat="-27.3934180" lon="152.8868920">
<ele>72.510</ele>
<time>2017-01-10T22:59:44.420Z</time>
</trkpt>
<trkpt lat="-27.3933782" lon="152.8865474">
<ele>71.837</ele>
<time>2017-01-10T22:59:46.485Z</time>
</trkpt>
<trkpt lat="-27.3932004" lon="152.8860581">
<ele>71.601</ele>
<time>2017-01-10T22:59:49.591Z</time>
</trkpt>
<trkpt lat="-27.3930076" lon="152.8857861">
<ele>71.834</ele>
<time>2017-01-10T22:59:51.624Z</time>
</trkpt>
<trkpt lat="-27.3926595" lon="152.8854425">
<ele>72.721</ele>
<time>2017-01-10T22:59:54.702Z</time>
</trkpt>
<trkpt lat="-27.3924212" lon="152.8852420">
<ele>74.399</ele>
<time>2017-01-10T22:59:56.741Z</time>
</trkpt>
<trkpt lat="-27.3920783" lon="152.8849416">
<ele>76.610</ele>
<time>2017-01-10T22:59:59.794Z</time>
</trkpt>
<trkpt lat="-27.3918732" lon="152.8847605">
<ele>78.977</ele>
<time>2017-01-10T23:00:01.666Z</time>
</trkpt>
<trkpt lat="-27.3915411" lon="152.8844792">
<ele>81.062</ele>
<time>2017-01-10T23:00:04.600Z</time>
</trkpt>
<trkpt lat="-27.3913195" lon="152.8842786">
<ele>82.354</ele>
<time>2017-01-10T23:00:06.518Z</time>
</trkpt>
<trkpt lat="-27.3910774" lon="152.8840741">
<ele>82.725</ele>
<time>2017-01-10T23:00:08.517Z</time>
</trkpt>
<trkpt lat="-27.3908332" lon="152.8838564">
<ele>82.476</ele>
<time>2017-01-10T23:00:10.553Z</time>
</trkpt>
<trkpt lat="-27.3905953" lon="152.8836382">
<ele>81.919</ele>
<time>2017-01-10T23:00:12.536Z</time>
</trkpt>
<trkpt lat="-27.3902453" lon="152.8833351">
<ele>81.215</ele>
<time>2017-01-10T23:00:15.416Z</time>
</trkpt>
<trkpt lat="-27.3900247" lon="152.8831532">
<ele>80.123</ele>
<time>2017-01-10T23:00:17.287Z</time>
</trkpt>
<trkpt lat="-27.3898110" lon="152.8829674">
<ele>78.323</ele>
<time>2017-01-10T23:00:19.211Z</time>
</trkpt>
<trkpt lat="-27.3895995" lon="152.8827865">
<ele>76.203</ele>
<time>2017-01-10T23:00:21.219Z</time>
</trkpt>
<trkpt lat="-27.3893065" lon="152.8825296">
<ele>74.300</ele>
<time>2017-01-10T23:00:24.332Z</time>
</trkpt>
<trkpt lat="-27.3890730" lon="152.8823334">
<ele>72.238</ele>
<time>2017-01-10T23:00:27.327Z</time>
</trkpt>
<trkpt lat="-27.3889930" lon="152.8821805">
<ele>69.350</ele>
<time>2017-01-10T23:00:29.163Z</time>
</trkpt>
<trkpt lat="-27.3890894" lon="152.8818848">
<ele>66.131</ele>
<time>2017-01-10T23:00:32.038Z</time>
</trkpt>
<trkpt lat="-27.3894169" lon="152.8815289">
<ele>63.867</ele>
<time>2017-01-10T23:00:35.659Z</time>
</trkpt>
<trkpt lat="-27.3895907" lon="152.8813308">
<ele>63.380</ele>
<time>2017-01-10T23:00:37.531Z</time>
</trkpt>
<trkpt lat="-27.3897638" lon="152.8811326">
<ele>64.427</ele>
<time>2017-01-10T23:00:39.449Z</time>
</trkpt>
<trkpt lat="-27.3899493" lon="152.8809254">
<ele>66.119</ele>
<time>2017-01-10T23:00:41.418Z</time>
</trkpt>
<trkpt lat="-27.3902357" lon="152.8805888">
<ele>67.785</ele>
<time>2017-01-10T23:00:44.385Z</time>
</trkpt>
<trkpt lat="-27.3904403" lon="152.8803589">
<ele>69.822</ele>
<time>2017-01-10T23:00:46.332Z</time>
</trkpt>
<trkpt lat="-27.3906392" lon="152.8800993">
<ele>72.588</ele>
<time>2017-01-10T23:00:48.374Z</time>
</trkpt>
<trkpt lat="-27.3908197" lon="152.8798448">
<ele>75.238</ele>
<time>2017-01-10T23:00:50.313Z</time>
</trkpt>
<trkpt lat="-27.3910858" lon="152.8794297">
<ele>76.702</ele>
<time>2017-01-10T23:00:53.321Z</time>
</trkpt>
<trkpt lat="-27.3912869" lon="152.8791579">
<ele>76.746</ele>
<time>2017-01-10T23:00:55.329Z</time>
</trkpt>
<trkpt lat="-27.3914968" lon="152.8788800">
<ele>75.597</ele>
<time>2017-01-10T23:00:57.345Z</time>
</trkpt>
<trkpt lat="-27.3916696" lon="152.8785831">
<ele>73.838</ele>
<time>2017-01-10T23:00:59.266Z</time>
</trkpt>
<trkpt lat="-27.3918490" lon="152.8782779">
<ele>72.266</ele>
<time>2017-01-10T23:01:01.227Z</time>
</trkpt>
<trkpt lat="-27.3921723" lon="152.8778340">
<ele>71.474</ele>
<time>2017-01-10T23:01:04.369Z</time>
</trkpt>
<trkpt lat="-27.3924432" lon="152.8774323">
<ele>71.882</ele>
<time>2017-01-10T23:01:07.294Z</time>
</trkpt>
<trkpt lat="-27.3927114" lon="152.8770455">
<ele>73.672</ele>
<time>2017-01-10T23:01:10.212Z</time>
</trkpt>
<trkpt lat="-27.3928913" lon="152.8767620">
<ele>76.252</ele>
<time>2017-01-10T23:01:12.200Z</time>
</trkpt>
<trkpt lat="-27.3931817" lon="152.8763229">
<ele>78.414</ele>
<time>2017-01-10T23:01:15.264Z</time>
</trkpt>
<trkpt lat="-27.3934740" lon="152.8759131">
<ele>79.202</ele>
<time>2017-01-10T23:01:18.219Z</time>
</trkpt>
<trkpt lat="-27.3936407" lon="152.8756457">
<ele>78.669</ele>
<time>2017-01-10T23:01:20.099Z</time>
</trkpt>
<trkpt lat="-27.3939310" lon="152.8752437">
<ele>77.809</ele>
<time>2017-01-10T23:01:23.138Z</time>
</trkpt>
<trkpt lat="-27.3941128" lon="152.8749746">
<ele>77.386</ele>
<time>2017-01-10T23:01:25.155Z</time>
</trkpt>
<trkpt lat="-27.3943923" lon="152.8746124">
<ele>77.314</ele>
<time>2017-01-10T23:01:27.963Z</time>
</trkpt>
<trkpt lat="-27.3946973" lon="152.8741625">
<ele>77.023</ele>
<time>2017-01-10T23:01:31.113Z</time>
</trkpt>
<trkpt lat="-27.3948968" lon="152.8738668">
<ele>75.978</ele>
<time>2017-01-10T23:01:33.134Z</time>
</trkpt>
<trkpt lat="-27.3950951" lon="152.8735858">
<ele>74.295</ele>
<time>2017-01-10T23:01:35.114Z</time>
</trkpt>
<trkpt lat="-27.3953819" lon="152.8731475">
<ele>72.724</ele>
<time>2017-01-10T23:01:38.179Z</time>
</trkpt>
<trkpt lat="-27.3955780" lon="152.8728758">
<ele>72.032</ele>
<time>2017-01-10T23:01:40.240Z</time>
</trkpt>
<trkpt lat="-27.3957640" lon="152.8726189">
<ele>72.378</ele>
<time>2017-01-10T23:01:42.223Z</time>
</trkpt>
<trkpt lat="-27.3960403" lon="152.8722218">
<ele>73.261</ele>
<time>2017-01-10T23:01:45.191Z</time>
</trkpt>
<trkpt lat="-27.3962316" lon="152.8719426">
<ele>74.384</ele>
<time>2017-01-10T23:01:47.205Z</time>
</trkpt>
<trkpt lat="-27.3965217" lon="152.8715345">
<ele>75.696</ele>
<time>2017-01-10T23:01:50.248Z</time>
</trkpt>
<trkpt lat="-27.3966919" lon="152.8712857">
<ele>76.832</ele>
<time>2017-01-10T23:01:52.311Z</time>
</trkpt>
<trkpt lat="-27.3969151" lon="152.8709760">
<ele>77.463</ele>
<time>2017-01-10T23:01:55.257Z</time>
</trkpt>
<trkpt lat="-27.3970425" lon="152.8707923">
<ele>77.799</ele>
<time>2017-01-10T23:01:57.297Z</time>
</trkpt>
<trkpt lat="-27.3972134" lon="152.8705531">
<ele>78.261</ele>
<time>2017-01-10T23:02:00.403Z</time>
</trkpt>
<trkpt lat="-27.3972931" lon="152.8703422">
<ele>79.065</ele>
<time>2017-01-10T23:02:03.126Z</time>
</trkpt>
<trkpt lat="-27.3972035" lon="152.8701980">
<ele>80.038</ele>
<time>2017-01-10T23:02:04.954Z</time>
</trkpt>
<trkpt lat="-27.3969998" lon="152.8700156">
<ele>81.060</ele>
<time>2017-01-10T23:02:07.186Z</time>
</trkpt>
<trkpt lat="-27.3967551" lon="152.8698204">
<ele>82.662</ele>
<time>2017-01-10T23:02:09.296Z</time>
</trkpt>
<trkpt lat="-27.3965037" lon="152.8696292">
<ele>85.242</ele>
<time>2017-01-10T23:02:11.326Z</time>
</trkpt>
<trkpt lat="-27.3961523" lon="152.8693402">
<ele>87.964</ele>
<time>2017-01-10T23:02:14.244Z</time>
</trkpt>
<trkpt lat="-27.3959304" lon="152.8691417">
<ele>89.900</ele>
<time>2017-01-10T23:02:16.196Z</time>
</trkpt>
<trkpt lat="-27.3957137" lon="152.8689552">
<ele>91.005</ele>
<time>2017-01-10T23:02:18.076Z</time>
</trkpt>
<trkpt lat="-27.3954703" lon="152.8687534">
<ele>91.368</ele>
<time>2017-01-10T23:02:20.086Z</time>
</trkpt>
<trkpt lat="-27.3950986" lon="152.8684317">
<ele>90.852</ele>
<time>2017-01-10T23:02:23.093Z</time>
</trkpt>
<trkpt lat="-27.3947266" lon="152.8680907">
<ele>89.438</ele>
<time>2017-01-10T23:02:26.071Z</time>
</trkpt>
<trkpt lat="-27.3944617" lon="152.8678598">
<ele>87.291</ele>
<time>2017-01-10T23:02:28.099Z</time>
</trkpt>
<trkpt lat="-27.3940796" lon="152.8675388">
<ele>85.068</ele>
<time>2017-01-10T23:02:31.001Z</time>
</trkpt>
<trkpt lat="-27.3938367" lon="152.8673092">
<ele>83.237</ele>
<time>2017-01-10T23:02:33.018Z</time>
</trkpt>
<trkpt lat="-27.3936015" lon="152.8671184">
<ele>81.384</ele>
<time>2017-01-10T23:02:34.945Z</time>
</trkpt>
<trkpt lat="-27.3932532" lon="152.8668141">
<ele>79.215</ele>
<time>2017-01-10T23:02:37.956Z</time>
</trkpt>
<trkpt lat="-27.3929092" lon="152.8665244">
<ele>77.250</ele>
<time>2017-01-10T23:02:40.898Z</time>
</trkpt>
<trkpt lat="-27.3925419" lon="152.8662082">
<ele>75.923</ele>
<time>2017-01-10T23:02:43.995Z</time>
</trkpt>
<trkpt lat="-27.3923174" lon="152.8660189">
<ele>75.035</ele>
<time>2017-01-10T23:02:45.850Z</time>
</trkpt>
<trkpt lat="-27.3919547" lon="152.8656933">
<ele>74.193</ele>
<time>2017-01-10T23:02:48.848Z</time>
</trkpt>
<trkpt lat="-27.3915896" lon="152.8653483">
<ele>73.142</ele>
<time>2017-01-10T23:02:51.847Z</time>
</trkpt>
<trkpt lat="-27.3912317" lon="152.8650192">
<ele>71.954</ele>
<time>2017-01-10T23:02:54.805Z</time>
</trkpt>
<trkpt lat="-27.3909938" lon="152.8648099">
<ele>71.069</ele>
<time>2017-01-10T23:02:56.783Z</time>
</trkpt>
<trkpt lat="-27.3907568" lon="152.8646044">
<ele>70.736</ele>
<time>2017-01-10T23:02:58.757Z</time>
</trkpt>
<trkpt lat="-27.3904046" lon="152.8642817">
<ele>70.729</ele>
<time>2017-01-10T23:03:01.775Z</time>
</trkpt>
<trkpt lat="-27.3901625" lon="152.8640705">
<ele>70.791</ele>
<time>2017-01-10T23:03:03.844Z</time>
</trkpt>
<trkpt lat="-27.3898152" lon="152.8637739">
<ele>70.862</ele>
<time>2017-01-10T23:03:06.812Z</time>
</trkpt>
<trkpt lat="-27.3895674" lon="152.8635667">
<ele>71.088</ele>
<time>2017-01-10T23:03:08.843Z</time>
</trkpt>
<trkpt lat="-27.3892978" lon="152.8633478">
<ele>71.773</ele>
<time>2017-01-10T23:03:10.958Z</time>
</trkpt>
<trkpt lat="-27.3889178" lon="152.8630274">
<ele>73.630</ele>
<time>2017-01-10T23:03:14.055Z</time>
</trkpt>
<trkpt lat="-27.3886004" lon="152.8627442">
<ele>77.141</ele>
<time>2017-01-10T23:03:16.873Z</time>
</trkpt>
<trkpt lat="-27.3882688" lon="152.8624582">
<ele>81.120</ele>
<time>2017-01-10T23:03:19.879Z</time>
</trkpt>
<trkpt lat="-27.3880464" lon="152.8622624">
<ele>83.164</ele>
<time>2017-01-10T23:03:21.941Z</time>
</trkpt>
<trkpt lat="-27.3878298" lon="152.8620767">
<ele>82.235</ele>
<time>2017-01-10T23:03:24.044Z</time>
</trkpt>
<trkpt lat="-27.3875536" lon="152.8618349">
<ele>79.476</ele>
<time>2017-01-10T23:03:27.053Z</time>
</trkpt>
<trkpt lat="-27.3874150" lon="152.8617031">
<ele>76.263</ele>
<time>2017-01-10T23:03:29.068Z</time>
</trkpt>
<trkpt lat="-27.3872580" lon="152.8615733">
<ele>73.135</ele>
<time>2017-01-10T23:03:31.707Z</time>
</trkpt>
<trkpt lat="-27.3871700" lon="152.8615047">
<ele>70.428</ele>
<time>2017-01-10T23:03:33.574Z</time>
</trkpt>
<trkpt lat="-27.3870623" lon="152.8614128">
<ele>68.448</ele>
<time>2017-01-10T23:03:36.355Z</time>
</trkpt>
<trkpt lat="-27.3870040" lon="152.8613015">
<ele>67.272</ele>
<time>2017-01-10T23:03:39.476Z</time>
</trkpt>
<trkpt lat="-27.3870863" lon="152.8611050">
<ele>66.766</ele>
<time>2017-01-10T23:03:42.632Z</time>
</trkpt>
<trkpt lat="-27.3873934" lon="152.8606421">
<ele>66.678</ele>
<time>2017-01-10T23:03:46.625Z</time>
</trkpt>
<trkpt lat="-27.3876025" lon="152.8603304">
<ele>67.532</ele>
<time>2017-01-10T23:03:48.903Z</time>
</trkpt>
<trkpt lat="-27.3878850" lon="152.8599306">
<ele>69.670</ele>
<time>2017-01-10T23:03:51.976Z</time>
</trkpt>
<trkpt lat="-27.3881440" lon="152.8595594">
<ele>71.894</ele>
<time>2017-01-10T23:03:54.930Z</time>
</trkpt>
<trkpt lat="-27.3883034" lon="152.8593125">
<ele>73.386</ele>
<time>2017-01-10T23:03:56.936Z</time>
</trkpt>
<trkpt lat="-27.3884637" lon="152.8590799">
<ele>74.713</ele>
<time>2017-01-10T23:03:58.922Z</time>
</trkpt>
<trkpt lat="-27.3886927" lon="152.8587418">
<ele>75.942</ele>
<time>2017-01-10T23:04:01.812Z</time>
</trkpt>
<trkpt lat="-27.3888617" lon="152.8585085">
<ele>76.706</ele>
<time>2017-01-10T23:04:03.869Z</time>
</trkpt>
<trkpt lat="-27.3890964" lon="152.8581563">
<ele>77.024</ele>
<time>2017-01-10T23:04:06.855Z</time>
</trkpt>
<trkpt lat="-27.3893397" lon="152.8577933">
<ele>76.925</ele>
<time>2017-01-10T23:04:09.914Z</time>
</trkpt>
<trkpt lat="-27.3895030" lon="152.8575513">
<ele>76.397</ele>
<time>2017-01-10T23:04:11.993Z</time>
</trkpt>
<trkpt lat="-27.3897384" lon="152.8571985">
<ele>75.593</ele>
<time>2017-01-10T23:04:15.214Z</time>
</trkpt>
<trkpt lat="-27.3898648" lon="152.8570059">
<ele>74.463</ele>
<time>2017-01-10T23:04:17.404Z</time>
</trkpt>
<trkpt lat="-27.3899771" lon="152.8568428">
<ele>72.837</ele>
<time>2017-01-10T23:04:19.848Z</time>
</trkpt>
<trkpt lat="-27.3900884" lon="152.8566846">
<ele>70.964</ele>
<time>2017-01-10T23:04:22.936Z</time>
</trkpt>
<trkpt lat="-27.3901490" lon="152.8565861">
<ele>69.259</ele>
<time>2017-01-10T23:04:24.580Z</time>
</trkpt>
<trkpt lat="-27.3901680" lon="152.8564601">
<ele>68.008</ele>
<time>2017-01-10T23:04:26.039Z</time>
</trkpt>
<trkpt lat="-27.3899652" lon="152.8562676">
<ele>67.393</ele>
<time>2017-01-10T23:04:28.721Z</time>
</trkpt>
<trkpt lat="-27.3897753" lon="152.8560866">
<ele>67.765</ele>
<time>2017-01-10T23:04:30.682Z</time>
</trkpt>
<trkpt lat="-27.3895615" lon="152.8559079">
<ele>69.462</ele>
<time>2017-01-10T23:04:32.676Z</time>
</trkpt>
<trkpt lat="-27.3892352" lon="152.8556353">
<ele>72.288</ele>
<time>2017-01-10T23:04:35.662Z</time>
</trkpt>
<trkpt lat="-27.3889073" lon="152.8553305">
<ele>75.467</ele>
<time>2017-01-10T23:04:38.661Z</time>
</trkpt>
<trkpt lat="-27.3886002" lon="152.8549796">
<ele>78.109</ele>
<time>2017-01-10T23:04:41.580Z</time>
</trkpt>
<trkpt lat="-27.3883158" lon="152.8545665">
<ele>79.626</ele>
<time>2017-01-10T23:04:44.529Z</time>
</trkpt>
<trkpt lat="-27.3881416" lon="152.8542528">
<ele>79.862</ele>
<time>2017-01-10T23:04:46.542Z</time>
</trkpt>
<trkpt lat="-27.3880028" lon="152.8539267">
<ele>79.078</ele>
<time>2017-01-10T23:04:48.547Z</time>
</trkpt>
<trkpt lat="-27.3878348" lon="152.8534346">
<ele>78.047</ele>
<time>2017-01-10T23:04:51.534Z</time>
</trkpt>
<trkpt lat="-27.3877203" lon="152.8529412">
<ele>77.435</ele>
<time>2017-01-10T23:04:54.480Z</time>
</trkpt>
<trkpt lat="-27.3876834" lon="152.8525995">
<ele>77.516</ele>
<time>2017-01-10T23:04:56.482Z</time>
</trkpt>
<trkpt lat="-27.3876372" lon="152.8522645">
<ele>78.286</ele>
<time>2017-01-10T23:04:58.412Z</time>
</trkpt>
<trkpt lat="-27.3875489" lon="152.8519178">
<ele>79.381</ele>
<time>2017-01-10T23:05:00.474Z</time>
</trkpt>
<trkpt lat="-27.3873841" lon="152.8514494">
<ele>80.547</ele>
<time>2017-01-10T23:05:03.443Z</time>
</trkpt>
<trkpt lat="-27.3871286" lon="152.8510644">
<ele>81.887</ele>
<time>2017-01-10T23:05:06.326Z</time>
</trkpt>
<trkpt lat="-27.3868254" lon="152.8506751">
<ele>83.355</ele>
<time>2017-01-10T23:05:09.373Z</time>
</trkpt>
<trkpt lat="-27.3866482" lon="152.8504094">
<ele>84.886</ele>
<time>2017-01-10T23:05:11.335Z</time>
</trkpt>
<trkpt lat="-27.3864077" lon="152.8499879">
<ele>86.569</ele>
<time>2017-01-10T23:05:14.312Z</time>
</trkpt>
<trkpt lat="-27.3862795" lon="152.8496785">
<ele>88.459</ele>
<time>2017-01-10T23:05:16.332Z</time>
</trkpt>
<trkpt lat="-27.3861412" lon="152.8491952">
<ele>90.510</ele>
<time>2017-01-10T23:05:19.346Z</time>
</trkpt>
<trkpt lat="-27.3860427" lon="152.8488789">
<ele>92.365</ele>
<time>2017-01-10T23:05:21.337Z</time>
</trkpt>
<trkpt lat="-27.3858715" lon="152.8484023">
<ele>93.479</ele>
<time>2017-01-10T23:05:24.346Z</time>
</trkpt>
<trkpt lat="-27.3856438" lon="152.8479510">
<ele>93.651</ele>
<time>2017-01-10T23:05:27.330Z</time>
</trkpt>
<trkpt lat="-27.3853934" lon="152.8475262">
<ele>93.012</ele>
<time>2017-01-10T23:05:30.252Z</time>
</trkpt>
<trkpt lat="-27.3851714" lon="152.8470935">
<ele>91.911</ele>
<time>2017-01-10T23:05:33.130Z</time>
</trkpt>
<trkpt lat="-27.3850027" lon="152.8468153">
<ele>90.716</ele>
<time>2017-01-10T23:05:35.088Z</time>
</trkpt>
<trkpt lat="-27.3848335" lon="152.8465273">
<ele>89.384</ele>
<time>2017-01-10T23:05:37.088Z</time>
</trkpt>
<trkpt lat="-27.3846757" lon="152.8462213">
<ele>87.863</ele>
<time>2017-01-10T23:05:39.156Z</time>
</trkpt>
<trkpt lat="-27.3845120" lon="152.8459464">
<ele>86.395</ele>
<time>2017-01-10T23:05:41.137Z</time>
</trkpt>
<trkpt lat="-27.3842838" lon="152.8455355">
<ele>85.233</ele>
<time>2017-01-10T23:05:44.072Z</time>
</trkpt>
<trkpt lat="-27.3841565" lon="152.8452552">
<ele>84.536</ele>
<time>2017-01-10T23:05:45.984Z</time>
</trkpt>
<trkpt lat="-27.3840224" lon="152.8449604">
<ele>84.625</ele>
<time>2017-01-10T23:05:47.999Z</time>
</trkpt>
<trkpt lat="-27.3839198" lon="152.8446643">
<ele>85.636</ele>
<time>2017-01-10T23:05:49.924Z</time>
</trkpt>
<trkpt lat="-27.3837922" lon="152.8441854">
<ele>87.008</ele>
<time>2017-01-10T23:05:52.920Z</time>
</trkpt>
<trkpt lat="-27.3837432" lon="152.8438613">
<ele>87.933</ele>
<time>2017-01-10T23:05:54.864Z</time>
</trkpt>
<trkpt lat="-27.3836814" lon="152.8433624">
<ele>87.910</ele>
<time>2017-01-10T23:05:57.815Z</time>
</trkpt>
<trkpt lat="-27.3836461" lon="152.8430066">
<ele>87.011</ele>
<time>2017-01-10T23:05:59.912Z</time>
</trkpt>
<trkpt lat="-27.3835686" lon="152.8425247">
<ele>85.993</ele>
<time>2017-01-10T23:06:02.853Z</time>
</trkpt>
<trkpt lat="-27.3834425" lon="152.8420614">
<ele>85.599</ele>
<time>2017-01-10T23:06:05.843Z</time>
</trkpt>
<trkpt lat="-27.3832890" lon="152.8416214">
<ele>85.934</ele>
<time>2017-01-10T23:06:08.767Z</time>
</trkpt>
<trkpt lat="-27.3830593" lon="152.8412113">
<ele>86.608</ele>
<time>2017-01-10T23:06:11.747Z</time>
</trkpt>
<trkpt lat="-27.3828916" lon="152.8409393">
<ele>86.748</ele>
<time>2017-01-10T23:06:13.841Z</time>
</trkpt>
<trkpt lat="-27.3826598" lon="152.8406132">
<ele>85.649</ele>
<time>2017-01-10T23:06:16.839Z</time>
</trkpt>
<trkpt lat="-27.3825462" lon="152.8404602">
<ele>82.854</ele>
<time>2017-01-10T23:06:18.698Z</time>
</trkpt>
<trkpt lat="-27.3823923" lon="152.8402688">
<ele>78.723</ele>
<time>2017-01-10T23:06:21.578Z</time>
</trkpt>
<trkpt lat="-27.3822622" lon="152.8402709">
<ele>74.808</ele>
<time>2017-01-10T23:06:23.367Z</time>
</trkpt>
<trkpt lat="-27.3819973" lon="152.8404861">
<ele>72.444</ele>
<time>2017-01-10T23:06:26.785Z</time>
</trkpt>
<trkpt lat="-27.3817657" lon="152.8406396">
<ele>71.930</ele>
<time>2017-01-10T23:06:28.902Z</time>
</trkpt>
<trkpt lat="-27.3814022" lon="152.8408519">
<ele>73.119</ele>
<time>2017-01-10T23:06:31.946Z</time>
</trkpt>
<trkpt lat="-27.3811527" lon="152.8409627">
<ele>75.259</ele>
<time>2017-01-10T23:06:33.926Z</time>
</trkpt>
<trkpt lat="-27.3807694" lon="152.8411193">
<ele>77.445</ele>
<time>2017-01-10T23:06:36.947Z</time>
</trkpt>
<trkpt lat="-27.3805131" lon="152.8412246">
<ele>79.065</ele>
<time>2017-01-10T23:06:38.960Z</time>
</trkpt>
<trkpt lat="-27.3802567" lon="152.8413285">
<ele>79.676</ele>
<time>2017-01-10T23:06:40.946Z</time>
</trkpt>
<trkpt lat="-27.3799987" lon="152.8414204">
<ele>79.183</ele>
<time>2017-01-10T23:06:42.861Z</time>
</trkpt>
<trkpt lat="-27.3797071" lon="152.8415017">
<ele>78.102</ele>
<time>2017-01-10T23:06:44.934Z</time>
</trkpt>
<trkpt lat="-27.3792824" lon="152.8415584">
<ele>77.177</ele>
<time>2017-01-10T23:06:47.898Z</time>
</trkpt>
<trkpt lat="-27.3790051" lon="152.8415773">
<ele>76.906</ele>
<time>2017-01-10T23:06:49.899Z</time>
</trkpt>
<trkpt lat="-27.3786165" lon="152.8416051">
<ele>77.333</ele>
<time>2017-01-10T23:06:52.822Z</time>
</trkpt>
<trkpt lat="-27.3783665" lon="152.8416285">
<ele>78.440</ele>
<time>2017-01-10T23:06:54.808Z</time>
</trkpt>
<trkpt lat="-27.3781210" lon="152.8416580">
<ele>80.283</ele>
<time>2017-01-10T23:06:56.873Z</time>
</trkpt>
<trkpt lat="-27.3778010" lon="152.8416828">
<ele>82.456</ele>
<time>2017-01-10T23:06:59.791Z</time>
</trkpt>
<trkpt lat="-27.3775199" lon="152.8417064">
<ele>84.140</ele>
<time>2017-01-10T23:07:02.710Z</time>
</trkpt>
<trkpt lat="-27.3772736" lon="152.8417305">
<ele>84.486</ele>
<time>2017-01-10T23:07:05.616Z</time>
</trkpt>
<trkpt lat="-27.3770593" lon="152.8416534">
<ele>82.936</ele>
<time>2017-01-10T23:07:08.396Z</time>
</trkpt>
<trkpt lat="-27.3769710" lon="152.8413028">
<ele>79.914</ele>
<time>2017-01-10T23:07:11.616Z</time>
</trkpt>
<trkpt lat="-27.3769145" lon="152.8408601">
<ele>76.831</ele>
<time>2017-01-10T23:07:14.775Z</time>
</trkpt>
<trkpt lat="-27.3768589" lon="152.8404161">
<ele>74.933</ele>
<time>2017-01-10T23:07:17.716Z</time>
</trkpt>
<trkpt lat="-27.3767954" lon="152.8399462">
<ele>74.070</ele>
<time>2017-01-10T23:07:20.770Z</time>
</trkpt>
<trkpt lat="-27.3767493" lon="152.8396442">
<ele>73.151</ele>
<time>2017-01-10T23:07:22.770Z</time>
</trkpt>
<trkpt lat="-27.3766916" lon="152.8392175">
<ele>71.800</ele>
<time>2017-01-10T23:07:25.671Z</time>
</trkpt>
<trkpt lat="-27.3766335" lon="152.8387798">
<ele>70.365</ele>
<time>2017-01-10T23:07:28.740Z</time>
</trkpt>
<trkpt lat="-27.3766065" lon="152.8385330">
<ele>69.188</ele>
<time>2017-01-10T23:07:30.601Z</time>
</trkpt>
<trkpt lat="-27.3765930" lon="152.8383082">
<ele>68.582</ele>
<time>2017-01-10T23:07:32.477Z</time>
</trkpt>
<trkpt lat="-27.3765341" lon="152.8379812">
<ele>68.848</ele>
<time>2017-01-10T23:07:35.632Z</time>
</trkpt>
<trkpt lat="-27.3764858" lon="152.8377457">
<ele>70.238</ele>
<time>2017-01-10T23:07:38.314Z</time>
</trkpt>
<trkpt lat="-27.3764480" lon="152.8376293">
<ele>72.766</ele>
<time>2017-01-10T23:07:40.000Z</time>
</trkpt>
<trkpt lat="-27.3764480" lon="152.8376293">
<ele>75.532</ele>
<time>2017-01-10T23:07:46.000Z</time>
</trkpt>
<trkpt lat="-27.3764480" lon="152.8376293">
<ele>77.046</ele>
<time>2017-01-10T23:07:48.159Z</time>
</trkpt>
<trkpt lat="-27.3762642" lon="152.8375162">
<ele>76.895</ele>
<time>2017-01-10T23:07:54.591Z</time>
</trkpt>
<trkpt lat="-27.3760759" lon="152.8377384">
<ele>76.941</ele>
<time>2017-01-10T23:07:57.874Z</time>
</trkpt>
<trkpt lat="-27.3758368" lon="152.8381389">
<ele>79.240</ele>
<time>2017-01-10T23:08:01.915Z</time>
</trkpt>
<trkpt lat="-27.3756797" lon="152.8385282">
<ele>83.192</ele>
<time>2017-01-10T23:08:05.483Z</time>
</trkpt>
<trkpt lat="-27.3754421" lon="152.8390712">
<ele>86.538</ele>
<time>2017-01-10T23:08:09.682Z</time>
</trkpt>
<trkpt lat="-27.3752882" lon="152.8394296">
<ele>87.805</ele>
<time>2017-01-10T23:08:11.742Z</time>
</trkpt>
<trkpt lat="-27.3751566" lon="152.8397814">
<ele>86.882</ele>
<time>2017-01-10T23:08:13.638Z</time>
</trkpt>
<trkpt lat="-27.3750577" lon="152.8403423">
<ele>84.777</ele>
<time>2017-01-10T23:08:16.428Z</time>
</trkpt>
<trkpt lat="-27.3750898" lon="152.8409437">
<ele>82.433</ele>
<time>2017-01-10T23:08:19.362Z</time>
</trkpt>
<trkpt lat="-27.3751511" lon="152.8413384">
<ele>80.189</ele>
<time>2017-01-10T23:08:21.302Z</time>
</trkpt>
<trkpt lat="-27.3751811" lon="152.8419414">
<ele>78.184</ele>
<time>2017-01-10T23:08:24.211Z</time>
</trkpt>
<trkpt lat="-27.3751151" lon="152.8423379">
<ele>76.285</ele>
<time>2017-01-10T23:08:26.148Z</time>
</trkpt>
<trkpt lat="-27.3749718" lon="152.8429377">
<ele>74.418</ele>
<time>2017-01-10T23:08:29.108Z</time>
</trkpt>
<trkpt lat="-27.3748002" lon="152.8435233">
<ele>72.883</ele>
<time>2017-01-10T23:08:32.054Z</time>
</trkpt>
<trkpt lat="-27.3746214" lon="152.8441213">
<ele>71.477</ele>
<time>2017-01-10T23:08:35.098Z</time>
</trkpt>
<trkpt lat="-27.3745348" lon="152.8445256">
<ele>69.968</ele>
<time>2017-01-10T23:08:37.121Z</time>
</trkpt>
<trkpt lat="-27.3744707" lon="152.8449346">
<ele>68.833</ele>
<time>2017-01-10T23:08:39.148Z</time>
</trkpt>
<trkpt lat="-27.3744159" lon="152.8453391">
<ele>68.565</ele>
<time>2017-01-10T23:08:41.133Z</time>
</trkpt>
<trkpt lat="-27.3743709" lon="152.8457417">
<ele>68.957</ele>
<time>2017-01-10T23:08:43.085Z</time>
</trkpt>
<trkpt lat="-27.3743150" lon="152.8463469">
<ele>69.328</ele>
<time>2017-01-10T23:08:45.982Z</time>
</trkpt>
<trkpt lat="-27.3742557" lon="152.8467621">
<ele>69.217</ele>
<time>2017-01-10T23:08:47.956Z</time>
</trkpt>
<trkpt lat="-27.3741461" lon="152.8471537">
<ele>68.866</ele>
<time>2017-01-10T23:08:49.838Z</time>
</trkpt>
<trkpt lat="-27.3738373" lon="152.8476830">
<ele>68.714</ele>
<time>2017-01-10T23:08:52.662Z</time>
</trkpt>
<trkpt lat="-27.3735585" lon="152.8479856">
<ele>69.140</ele>
<time>2017-01-10T23:08:54.593Z</time>
</trkpt>
<trkpt lat="-27.3732251" lon="152.8482488">
<ele>70.183</ele>
<time>2017-01-10T23:08:56.663Z</time>
</trkpt>
<trkpt lat="-27.3728828" lon="152.8484965">
<ele>71.273</ele>
<time>2017-01-10T23:08:58.763Z</time>
</trkpt>
<trkpt lat="-27.3725672" lon="152.8487610">
<ele>71.788</ele>
<time>2017-01-10T23:09:00.843Z</time>
</trkpt>
<trkpt lat="-27.3721641" lon="152.8492295">
<ele>71.497</ele>
<time>2017-01-10T23:09:03.917Z</time>
</trkpt>
<trkpt lat="-27.3719886" lon="152.8496062">
<ele>70.191</ele>
<time>2017-01-10T23:09:05.914Z</time>
</trkpt>
<trkpt lat="-27.3718839" lon="152.8500069">
<ele>68.196</ele>
<time>2017-01-10T23:09:07.851Z</time>
</trkpt>
<trkpt lat="-27.3718149" lon="152.8506307">
<ele>66.553</ele>
<time>2017-01-10T23:09:10.721Z</time>
</trkpt>
<trkpt lat="-27.3717435" lon="152.8510493">
<ele>65.833</ele>
<time>2017-01-10T23:09:12.669Z</time>
</trkpt>
<trkpt lat="-27.3715288" lon="152.8516724">
<ele>65.566</ele>
<time>2017-01-10T23:09:15.769Z</time>
</trkpt>
<trkpt lat="-27.3712807" lon="152.8520097">
<ele>65.222</ele>
<time>2017-01-10T23:09:17.828Z</time>
</trkpt>
<trkpt lat="-27.3710560" lon="152.8523706">
<ele>64.583</ele>
<time>2017-01-10T23:09:20.044Z</time>
</trkpt>
<trkpt lat="-27.3707230" lon="152.8528881">
<ele>63.537</ele>
<time>2017-01-10T23:09:23.619Z</time>
</trkpt>
<trkpt lat="-27.3705374" lon="152.8532191">
<ele>62.162</ele>
<time>2017-01-10T23:09:26.298Z</time>
</trkpt>
<trkpt lat="-27.3703404" lon="152.8537017">
<ele>60.922</ele>
<time>2017-01-10T23:09:31.741Z</time>
</trkpt>
<trkpt lat="-27.3702527" lon="152.8539916">
<ele>60.068</ele>
<time>2017-01-10T23:09:35.727Z</time>
</trkpt>
<trkpt lat="-27.3701697" lon="152.8543689">
<ele>59.374</ele>
<time>2017-01-10T23:09:38.947Z</time>
</trkpt>
<trkpt lat="-27.3701312" lon="152.8546217">
<ele>58.301</ele>
<time>2017-01-10T23:09:40.811Z</time>
</trkpt>
<trkpt lat="-27.3700401" lon="152.8546742">
<ele>56.580</ele>
<time>2017-01-10T23:09:41.609Z</time>
</trkpt>
<trkpt lat="-27.3699064" lon="152.8544865">
<ele>54.784</ele>
<time>2017-01-10T23:09:43.287Z</time>
</trkpt>
<trkpt lat="-27.3698284" lon="152.8542351">
<ele>53.773</ele>
<time>2017-01-10T23:09:45.227Z</time>
</trkpt>
<trkpt lat="-27.3696539" lon="152.8538591">
<ele>53.659</ele>
<time>2017-01-10T23:09:48.826Z</time>
</trkpt>
<trkpt lat="-27.3694502" lon="152.8534709">
<ele>53.999</ele>
<time>2017-01-10T23:09:53.723Z</time>
</trkpt>
<trkpt lat="-27.3693289" lon="152.8532455">
<ele>54.505</ele>
<time>2017-01-10T23:09:56.326Z</time>
</trkpt>
<trkpt lat="-27.3691385" lon="152.8529917">
<ele>55.048</ele>
<time>2017-01-10T23:09:58.793Z</time>
</trkpt>
<trkpt lat="-27.3689827" lon="152.8527360">
<ele>55.426</ele>
<time>2017-01-10T23:10:00.944Z</time>
</trkpt>
<trkpt lat="-27.3688643" lon="152.8526939">
<ele>55.650</ele>
<time>2017-01-10T23:10:01.906Z</time>
</trkpt>
<trkpt lat="-27.3685984" lon="152.8528555">
<ele>55.949</ele>
<time>2017-01-10T23:10:04.246Z</time>
</trkpt>
<trkpt lat="-27.3683301" lon="152.8531802">
<ele>57.031</ele>
<time>2017-01-10T23:10:07.183Z</time>
</trkpt>
<trkpt lat="-27.3681840" lon="152.8535734">
<ele>59.857</ele>
<time>2017-01-10T23:10:09.922Z</time>
</trkpt>
<trkpt lat="-27.3681080" lon="152.8538482">
<ele>64.338</ele>
<time>2017-01-10T23:10:11.695Z</time>
</trkpt>
<trkpt lat="-27.3680325" lon="152.8541486">
<ele>68.925</ele>
<time>2017-01-10T23:10:13.567Z</time>
</trkpt>
<trkpt lat="-27.3679325" lon="152.8545924">
<ele>72.009</ele>
<time>2017-01-10T23:10:16.247Z</time>
</trkpt>
<trkpt lat="-27.3678425" lon="152.8549001">
<ele>73.164</ele>
<time>2017-01-10T23:10:18.120Z</time>
</trkpt>
<trkpt lat="-27.3677380" lon="152.8551725">
<ele>72.960</ele>
<time>2017-01-10T23:10:19.831Z</time>
</trkpt>
<trkpt lat="-27.3675328" lon="152.8554640">
<ele>71.800</ele>
<time>2017-01-10T23:10:21.924Z</time>
</trkpt>
<trkpt lat="-27.3673339" lon="152.8557211">
<ele>69.752</ele>
<time>2017-01-10T23:10:23.861Z</time>
</trkpt>
<trkpt lat="-27.3670285" lon="152.8561119">
<ele>66.998</ele>
<time>2017-01-10T23:10:26.902Z</time>
</trkpt>
<trkpt lat="-27.3668052" lon="152.8563813">
<ele>64.307</ele>
<time>2017-01-10T23:10:29.100Z</time>
</trkpt>
<trkpt lat="-27.3665028" lon="152.8567730">
<ele>62.663</ele>
<time>2017-01-10T23:10:32.185Z</time>
</trkpt>
<trkpt lat="-27.3662242" lon="152.8571524">
<ele>62.371</ele>
<time>2017-01-10T23:10:35.121Z</time>
</trkpt>
<trkpt lat="-27.3660937" lon="152.8574603">
<ele>63.290</ele>
<time>2017-01-10T23:10:37.205Z</time>
</trkpt>
<trkpt lat="-27.3660072" lon="152.8577886">
<ele>65.436</ele>
<time>2017-01-10T23:10:39.297Z</time>
</trkpt>
<trkpt lat="-27.3658606" lon="152.8582779">
<ele>68.632</ele>
<time>2017-01-10T23:10:42.448Z</time>
</trkpt>
<trkpt lat="-27.3657219" lon="152.8587302">
<ele>72.469</ele>
<time>2017-01-10T23:10:45.392Z</time>
</trkpt>
<trkpt lat="-27.3656028" lon="152.8590352">
<ele>76.066</ele>
<time>2017-01-10T23:10:47.421Z</time>
</trkpt>
<trkpt lat="-27.3654823" lon="152.8593314">
<ele>78.304</ele>
<time>2017-01-10T23:10:49.372Z</time>
</trkpt>
<trkpt lat="-27.3653069" lon="152.8597683">
<ele>78.893</ele>
<time>2017-01-10T23:10:52.219Z</time>
</trkpt>
<trkpt lat="-27.3651606" lon="152.8602070">
<ele>78.531</ele>
<time>2017-01-10T23:10:55.012Z</time>
</trkpt>
<trkpt lat="-27.3649895" lon="152.8606910">
<ele>77.947</ele>
<time>2017-01-10T23:10:58.140Z</time>
</trkpt>
<trkpt lat="-27.3649107" lon="152.8611659">
<ele>77.565</ele>
<time>2017-01-10T23:11:01.047Z</time>
</trkpt>
<trkpt lat="-27.3650260" lon="152.8616538">
<ele>77.490</ele>
<time>2017-01-10T23:11:04.151Z</time>
</trkpt>
<trkpt lat="-27.3651938" lon="152.8621219">
<ele>77.597</ele>
<time>2017-01-10T23:11:07.363Z</time>
</trkpt>
<trkpt lat="-27.3653560" lon="152.8625708">
<ele>77.483</ele>
<time>2017-01-10T23:11:10.419Z</time>
</trkpt>
<trkpt lat="-27.3655191" lon="152.8629886">
<ele>76.967</ele>
<time>2017-01-10T23:11:13.188Z</time>
</trkpt>
<trkpt lat="-27.3656369" lon="152.8632652">
<ele>76.415</ele>
<time>2017-01-10T23:11:15.011Z</time>
</trkpt>
<trkpt lat="-27.3658194" lon="152.8637069">
<ele>76.182</ele>
<time>2017-01-10T23:11:17.867Z</time>
</trkpt>
<trkpt lat="-27.3660017" lon="152.8641665">
<ele>76.106</ele>
<time>2017-01-10T23:11:20.809Z</time>
</trkpt>
<trkpt lat="-27.3661180" lon="152.8644818">
<ele>75.883</ele>
<time>2017-01-10T23:11:22.810Z</time>
</trkpt>
<trkpt lat="-27.3662822" lon="152.8649577">
<ele>75.496</ele>
<time>2017-01-10T23:11:25.819Z</time>
</trkpt>
<trkpt lat="-27.3664578" lon="152.8654266">
<ele>75.188</ele>
<time>2017-01-10T23:11:28.821Z</time>
</trkpt>
<trkpt lat="-27.3665769" lon="152.8657322">
<ele>75.111</ele>
<time>2017-01-10T23:11:30.781Z</time>
</trkpt>
<trkpt lat="-27.3668090" lon="152.8661849">
<ele>75.174</ele>
<time>2017-01-10T23:11:33.838Z</time>
</trkpt>
<trkpt lat="-27.3669645" lon="152.8664661">
<ele>75.192</ele>
<time>2017-01-10T23:11:35.808Z</time>
</trkpt>
<trkpt lat="-27.3671792" lon="152.8669090">
<ele>74.997</ele>
<time>2017-01-10T23:11:38.863Z</time>
</trkpt>
<trkpt lat="-27.3673325" lon="152.8672126">
<ele>74.431</ele>
<time>2017-01-10T23:11:40.996Z</time>
</trkpt>
<trkpt lat="-27.3675295" lon="152.8676340">
<ele>73.565</ele>
<time>2017-01-10T23:11:43.903Z</time>
</trkpt>
<trkpt lat="-27.3677434" lon="152.8680461">
<ele>72.809</ele>
<time>2017-01-10T23:11:46.915Z</time>
</trkpt>
<trkpt lat="-27.3679688" lon="152.8684761">
<ele>72.625</ele>
<time>2017-01-10T23:11:50.240Z</time>
</trkpt>
<trkpt lat="-27.3681299" lon="152.8687362">
<ele>73.091</ele>
<time>2017-01-10T23:11:52.390Z</time>
</trkpt>
<trkpt lat="-27.3683125" lon="152.8691445">
<ele>73.770</ele>
<time>2017-01-10T23:11:55.381Z</time>
</trkpt>
<trkpt lat="-27.3683677" lon="152.8694344">
<ele>74.063</ele>
<time>2017-01-10T23:11:57.287Z</time>
</trkpt>
<trkpt lat="-27.3683923" lon="152.8697270">
<ele>73.633</ele>
<time>2017-01-10T23:11:59.180Z</time>
</trkpt>
<trkpt lat="-27.3684239" lon="152.8701947">
<ele>72.516</ele>
<time>2017-01-10T23:12:02.210Z</time>
</trkpt>
<trkpt lat="-27.3684429" lon="152.8704953">
<ele>71.060</ele>
<time>2017-01-10T23:12:04.138Z</time>
</trkpt>
<trkpt lat="-27.3684927" lon="152.8709608">
<ele>69.765</ele>
<time>2017-01-10T23:12:06.994Z</time>
</trkpt>
<trkpt lat="-27.3684845" lon="152.8712646">
<ele>69.031</ele>
<time>2017-01-10T23:12:08.769Z</time>
</trkpt>
<trkpt lat="-27.3683219" lon="152.8717044">
<ele>68.784</ele>
<time>2017-01-10T23:12:11.467Z</time>
</trkpt>
<trkpt lat="-27.3680958" lon="152.8721541">
<ele>68.452</ele>
<time>2017-01-10T23:12:14.372Z</time>
</trkpt>
<trkpt lat="-27.3678125" lon="152.8725865">
<ele>67.477</ele>
<time>2017-01-10T23:12:17.306Z</time>
</trkpt>
<trkpt lat="-27.3676223" lon="152.8728575">
<ele>66.016</ele>
<time>2017-01-10T23:12:19.151Z</time>
</trkpt>
<trkpt lat="-27.3674347" lon="152.8731136">
<ele>64.598</ele>
<time>2017-01-10T23:12:20.908Z</time>
</trkpt>
<trkpt lat="-27.3670735" lon="152.8735145">
<ele>63.226</ele>
<time>2017-01-10T23:12:23.902Z</time>
</trkpt>
<trkpt lat="-27.3666450" lon="152.8738254">
<ele>61.179</ele>
<time>2017-01-10T23:12:26.927Z</time>
</trkpt>
<trkpt lat="-27.3663841" lon="152.8740494">
<ele>58.451</ele>
<time>2017-01-10T23:12:28.905Z</time>
</trkpt>
<trkpt lat="-27.3661074" lon="152.8742677">
<ele>56.095</ele>
<time>2017-01-10T23:12:30.967Z</time>
</trkpt>
<trkpt lat="-27.3656991" lon="152.8745695">
<ele>54.489</ele>
<time>2017-01-10T23:12:33.963Z</time>
</trkpt>
<trkpt lat="-27.3652998" lon="152.8748813">
<ele>53.003</ele>
<time>2017-01-10T23:12:36.910Z</time>
</trkpt>
<trkpt lat="-27.3648771" lon="152.8751816">
<ele>51.606</ele>
<time>2017-01-10T23:12:39.984Z</time>
</trkpt>
<trkpt lat="-27.3646091" lon="152.8754042">
<ele>50.926</ele>
<time>2017-01-10T23:12:42.091Z</time>
</trkpt>
<trkpt lat="-27.3643244" lon="152.8756096">
<ele>51.273</ele>
<time>2017-01-10T23:12:44.197Z</time>
</trkpt>
<trkpt lat="-27.3640818" lon="152.8758251">
<ele>52.275</ele>
<time>2017-01-10T23:12:46.075Z</time>
</trkpt>
<trkpt lat="-27.3638230" lon="152.8762746">
<ele>53.366</ele>
<time>2017-01-10T23:12:48.921Z</time>
</trkpt>
<trkpt lat="-27.3636734" lon="152.8766038">
<ele>54.135</ele>
<time>2017-01-10T23:12:50.920Z</time>
</trkpt>
<trkpt lat="-27.3635065" lon="152.8769338">
<ele>54.459</ele>
<time>2017-01-10T23:12:53.029Z</time>
</trkpt>
<trkpt lat="-27.3633507" lon="152.8772655">
<ele>54.306</ele>
<time>2017-01-10T23:12:55.234Z</time>
</trkpt>
<trkpt lat="-27.3631331" lon="152.8777338">
<ele>53.510</ele>
<time>2017-01-10T23:12:58.438Z</time>
</trkpt>
<trkpt lat="-27.3629897" lon="152.8780424">
<ele>52.040</ele>
<time>2017-01-10T23:13:00.541Z</time>
</trkpt>
<trkpt lat="-27.3627826" lon="152.8784609">
<ele>50.173</ele>
<time>2017-01-10T23:13:03.264Z</time>
</trkpt>
<trkpt lat="-27.3624462" lon="152.8787748">
<ele>48.386</ele>
<time>2017-01-10T23:13:06.019Z</time>
</trkpt>
<trkpt lat="-27.3621642" lon="152.8789318">
<ele>47.147</ele>
<time>2017-01-10T23:13:08.075Z</time>
</trkpt>
<trkpt lat="-27.3617294" lon="152.8791768">
<ele>46.895</ele>
<time>2017-01-10T23:13:11.403Z</time>
</trkpt>
<trkpt lat="-27.3614561" lon="152.8793239">
<ele>48.069</ele>
<time>2017-01-10T23:13:13.408Z</time>
</trkpt>
<trkpt lat="-27.3611992" lon="152.8794636">
<ele>50.701</ele>
<time>2017-01-10T23:13:15.245Z</time>
</trkpt>
<trkpt lat="-27.3608128" lon="152.8796417">
<ele>53.923</ele>
<time>2017-01-10T23:13:17.769Z</time>
</trkpt>
<trkpt lat="-27.3603303" lon="152.8797260">
<ele>56.416</ele>
<time>2017-01-10T23:13:20.753Z</time>
</trkpt>
<trkpt lat="-27.3600078" lon="152.8797449">
<ele>57.295</ele>
<time>2017-01-10T23:13:22.770Z</time>
</trkpt>
<trkpt lat="-27.3596724" lon="152.8797546">
<ele>56.418</ele>
<time>2017-01-10T23:13:24.919Z</time>
</trkpt>
<trkpt lat="-27.3591865" lon="152.8797698">
<ele>54.588</ele>
<time>2017-01-10T23:13:28.214Z</time>
</trkpt>
<trkpt lat="-27.3587352" lon="152.8797842">
<ele>53.125</ele>
<time>2017-01-10T23:13:31.595Z</time>
</trkpt>
<trkpt lat="-27.3583045" lon="152.8797103">
<ele>52.593</ele>
<time>2017-01-10T23:13:35.250Z</time>
</trkpt>
<trkpt lat="-27.3580468" lon="152.8796051">
<ele>52.236</ele>
<time>2017-01-10T23:13:37.517Z</time>
</trkpt>
<trkpt lat="-27.3577175" lon="152.8795285">
<ele>51.181</ele>
<time>2017-01-10T23:13:40.005Z</time>
</trkpt>
<trkpt lat="-27.3574107" lon="152.8797102">
<ele>49.717</ele>
<time>2017-01-10T23:13:42.443Z</time>
</trkpt>
<trkpt lat="-27.3572751" lon="152.8799870">
<ele>49.030</ele>
<time>2017-01-10T23:13:44.359Z</time>
</trkpt>
<trkpt lat="-27.3569934" lon="152.8803399">
<ele>49.666</ele>
<time>2017-01-10T23:13:47.225Z</time>
</trkpt>
<trkpt lat="-27.3567716" lon="152.8805677">
<ele>50.940</ele>
<time>2017-01-10T23:13:49.301Z</time>
</trkpt>
<trkpt lat="-27.3564470" lon="152.8809001">
<ele>51.550</ele>
<time>2017-01-10T23:13:52.600Z</time>
</trkpt>
<trkpt lat="-27.3562175" lon="152.8811112">
<ele>50.732</ele>
<time>2017-01-10T23:13:55.257Z</time>
</trkpt>
<trkpt lat="-27.3560091" lon="152.8813183">
<ele>49.031</ele>
<time>2017-01-10T23:13:58.411Z</time>
</trkpt>
<trkpt lat="-27.3557158" lon="152.8815855">
<ele>47.547</ele>
<time>2017-01-10T23:14:03.216Z</time>
</trkpt>
<trkpt lat="-27.3555627" lon="152.8817149">
<ele>46.218</ele>
<time>2017-01-10T23:14:06.242Z</time>
</trkpt>
<trkpt lat="-27.3553457" lon="152.8817282">
<ele>44.355</ele>
<time>2017-01-10T23:14:10.240Z</time>
</trkpt>
<trkpt lat="-27.3552190" lon="152.8816076">
<ele>42.049</ele>
<time>2017-01-10T23:14:13.030Z</time>
</trkpt>
<trkpt lat="-27.3550792" lon="152.8814134">
<ele>40.019</ele>
<time>2017-01-10T23:14:15.526Z</time>
</trkpt>
<trkpt lat="-27.3549876" lon="152.8813178">
<ele>38.796</ele>
<time>2017-01-10T23:14:16.707Z</time>
</trkpt>
<trkpt lat="-27.3548133" lon="152.8813107">
<ele>38.380</ele>
<time>2017-01-10T23:14:18.002Z</time>
</trkpt>
<trkpt lat="-27.3547054" lon="152.8814059">
<ele>38.388</ele>
<time>2017-01-10T23:14:18.960Z</time>
</trkpt>
<trkpt lat="-27.3544745" lon="152.8813540">
<ele>38.517</ele>
<time>2017-01-10T23:14:20.566Z</time>
</trkpt>
<trkpt lat="-27.3541076" lon="152.8811783">
<ele>38.727</ele>
<time>2017-01-10T23:14:23.174Z</time>
</trkpt>
<trkpt lat="-27.3536644" lon="152.8810413">
<ele>39.364</ele>
<time>2017-01-10T23:14:26.145Z</time>
</trkpt>
<trkpt lat="-27.3533625" lon="152.8809876">
<ele>40.657</ele>
<time>2017-01-10T23:14:28.077Z</time>
</trkpt>
<trkpt lat="-27.3530622" lon="152.8809688">
<ele>42.119</ele>
<time>2017-01-10T23:14:29.928Z</time>
</trkpt>
<trkpt lat="-27.3525915" lon="152.8809948">
<ele>43.178</ele>
<time>2017-01-10T23:14:32.780Z</time>
</trkpt>
<trkpt lat="-27.3522701" lon="152.8810663">
<ele>44.123</ele>
<time>2017-01-10T23:14:34.788Z</time>
</trkpt>
<trkpt lat="-27.3519556" lon="152.8811715">
<ele>45.612</ele>
<time>2017-01-10T23:14:36.826Z</time>
</trkpt>
<trkpt lat="-27.3516430" lon="152.8812927">
<ele>47.854</ele>
<time>2017-01-10T23:14:38.953Z</time>
</trkpt>
<trkpt lat="-27.3511921" lon="152.8814733">
<ele>50.667</ele>
<time>2017-01-10T23:14:42.267Z</time>
</trkpt>
<trkpt lat="-27.3509005" lon="152.8815962">
<ele>53.712</ele>
<time>2017-01-10T23:14:44.636Z</time>
</trkpt>
<trkpt lat="-27.3506309" lon="152.8817121">
<ele>56.686</ele>
<time>2017-01-10T23:14:47.278Z</time>
</trkpt>
<trkpt lat="-27.3502508" lon="152.8818706">
<ele>59.434</ele>
<time>2017-01-10T23:14:52.612Z</time>
</trkpt>
<trkpt lat="-27.3500305" lon="152.8819601">
<ele>62.026</ele>
<time>2017-01-10T23:14:56.676Z</time>
</trkpt>
<trkpt lat="-27.3497642" lon="152.8820226">
<ele>64.545</ele>
<time>2017-01-10T23:14:59.642Z</time>
</trkpt>
<trkpt lat="-27.3495572" lon="152.8820113">
<ele>66.782</ele>
<time>2017-01-10T23:15:01.359Z</time>
</trkpt>
<trkpt lat="-27.3494309" lon="152.8819973">
<ele>68.432</ele>
<time>2017-01-10T23:15:02.339Z</time>
</trkpt>
<trkpt lat="-27.3493587" lon="152.8822414">
<ele>69.395</ele>
<time>2017-01-10T23:15:03.905Z</time>
</trkpt>
<trkpt lat="-27.3494161" lon="152.8824799">
<ele>70.275</ele>
<time>2017-01-10T23:15:05.361Z</time>
</trkpt>
<trkpt lat="-27.3496805" lon="152.8829585">
<ele>72.144</ele>
<time>2017-01-10T23:15:08.594Z</time>
</trkpt>
<trkpt lat="-27.3497649" lon="152.8832748">
<ele>75.360</ele>
<time>2017-01-10T23:15:10.381Z</time>
</trkpt>
<trkpt lat="-27.3498238" lon="152.8836201">
<ele>79.068</ele>
<time>2017-01-10T23:15:12.244Z</time>
</trkpt>
<trkpt lat="-27.3498426" lon="152.8841477">
<ele>82.174</ele>
<time>2017-01-10T23:15:14.902Z</time>
</trkpt>
<trkpt lat="-27.3497718" lon="152.8847286">
<ele>84.789</ele>
<time>2017-01-10T23:15:17.801Z</time>
</trkpt>
<trkpt lat="-27.3496390" lon="152.8851115">
<ele>87.759</ele>
<time>2017-01-10T23:15:19.807Z</time>
</trkpt>
<trkpt lat="-27.3494885" lon="152.8854709">
<ele>90.681</ele>
<time>2017-01-10T23:15:21.723Z</time>
</trkpt>
<trkpt lat="-27.3492057" lon="152.8859954">
<ele>92.421</ele>
<time>2017-01-10T23:15:24.653Z</time>
</trkpt>
<trkpt lat="-27.3488824" lon="152.8865035">
<ele>92.708</ele>
<time>2017-01-10T23:15:27.582Z</time>
</trkpt>
<trkpt lat="-27.3485694" lon="152.8870158">
<ele>92.156</ele>
<time>2017-01-10T23:15:30.403Z</time>
</trkpt>
<trkpt lat="-27.3483569" lon="152.8873692">
<ele>90.969</ele>
<time>2017-01-10T23:15:32.338Z</time>
</trkpt>
<trkpt lat="-27.3480820" lon="152.8876898">
<ele>89.019</ele>
<time>2017-01-10T23:15:34.374Z</time>
</trkpt>
<trkpt lat="-27.3477822" lon="152.8879862">
<ele>86.752</ele>
<time>2017-01-10T23:15:36.456Z</time>
</trkpt>
<trkpt lat="-27.3473515" lon="152.8884159">
<ele>84.938</ele>
<time>2017-01-10T23:15:39.478Z</time>
</trkpt>
<trkpt lat="-27.3470832" lon="152.8887165">
<ele>83.729</ele>
<time>2017-01-10T23:15:41.486Z</time>
</trkpt>
<trkpt lat="-27.3467843" lon="152.8892545">
<ele>82.945</ele>
<time>2017-01-10T23:15:44.505Z</time>
</trkpt>
<trkpt lat="-27.3465651" lon="152.8898331">
<ele>82.821</ele>
<time>2017-01-10T23:15:47.535Z</time>
</trkpt>
<trkpt lat="-27.3464404" lon="152.8904516">
<ele>83.930</ele>
<time>2017-01-10T23:15:50.587Z</time>
</trkpt>
<trkpt lat="-27.3464130" lon="152.8908548">
<ele>85.928</ele>
<time>2017-01-10T23:15:52.493Z</time>
</trkpt>
<trkpt lat="-27.3464579" lon="152.8914755">
<ele>87.658</ele>
<time>2017-01-10T23:15:55.353Z</time>
</trkpt>
<trkpt lat="-27.3465566" lon="152.8918800">
<ele>88.467</ele>
<time>2017-01-10T23:15:57.247Z</time>
</trkpt>
<trkpt lat="-27.3467550" lon="152.8924952">
<ele>88.588</ele>
<time>2017-01-10T23:16:00.240Z</time>
</trkpt>
<trkpt lat="-27.3468487" lon="152.8929245">
<ele>88.458</ele>
<time>2017-01-10T23:16:02.281Z</time>
</trkpt>
<trkpt lat="-27.3468994" lon="152.8933543">
<ele>88.751</ele>
<time>2017-01-10T23:16:04.277Z</time>
</trkpt>
<trkpt lat="-27.3468989" lon="152.8940010">
<ele>90.116</ele>
<time>2017-01-10T23:16:07.212Z</time>
</trkpt>
<trkpt lat="-27.3469158" lon="152.8944389">
<ele>92.469</ele>
<time>2017-01-10T23:16:09.177Z</time>
</trkpt>
<trkpt lat="-27.3470234" lon="152.8950734">
<ele>95.097</ele>
<time>2017-01-10T23:16:12.086Z</time>
</trkpt>
<trkpt lat="-27.3472101" lon="152.8957070">
<ele>97.345</ele>
<time>2017-01-10T23:16:15.139Z</time>
</trkpt>
<trkpt lat="-27.3473982" lon="152.8963248">
<ele>99.090</ele>
<time>2017-01-10T23:16:18.141Z</time>
</trkpt>
<trkpt lat="-27.3475308" lon="152.8967235">
<ele>100.590</ele>
<time>2017-01-10T23:16:20.093Z</time>
</trkpt>
<trkpt lat="-27.3476377" lon="152.8971324">
<ele>102.372</ele>
<time>2017-01-10T23:16:22.040Z</time>
</trkpt>
<trkpt lat="-27.3477733" lon="152.8977747">
<ele>104.816</ele>
<time>2017-01-10T23:16:25.037Z</time>
</trkpt>
<trkpt lat="-27.3478426" lon="152.8984237">
<ele>107.241</ele>
<time>2017-01-10T23:16:27.953Z</time>
</trkpt>
<trkpt lat="-27.3478500" lon="152.8988687">
<ele>108.615</ele>
<time>2017-01-10T23:16:29.929Z</time>
</trkpt>
<trkpt lat="-27.3478545" lon="152.8993075">
<ele>108.812</ele>
<time>2017-01-10T23:16:31.884Z</time>
</trkpt>
<trkpt lat="-27.3478738" lon="152.8997683">
<ele>108.288</ele>
<time>2017-01-10T23:16:33.979Z</time>
</trkpt>
<trkpt lat="-27.3479371" lon="152.9004083">
<ele>107.649</ele>
<time>2017-01-10T23:16:36.935Z</time>
</trkpt>
<trkpt lat="-27.3479998" lon="152.9008297">
<ele>107.513</ele>
<time>2017-01-10T23:16:38.874Z</time>
</trkpt>
<trkpt lat="-27.3480562" lon="152.9012490">
<ele>108.285</ele>
<time>2017-01-10T23:16:40.785Z</time>
</trkpt>
<trkpt lat="-27.3481265" lon="152.9016879">
<ele>109.766</ele>
<time>2017-01-10T23:16:42.805Z</time>
</trkpt>
<trkpt lat="-27.3481932" lon="152.9023470">
<ele>111.298</ele>
<time>2017-01-10T23:16:45.821Z</time>
</trkpt>
<trkpt lat="-27.3482007" lon="152.9027865">
<ele>112.377</ele>
<time>2017-01-10T23:16:47.794Z</time>
</trkpt>
<trkpt lat="-27.3481168" lon="152.9034439">
<ele>112.792</ele>
<time>2017-01-10T23:16:50.544Z</time>
</trkpt>
<trkpt lat="-27.3479650" lon="152.9038652">
<ele>112.450</ele>
<time>2017-01-10T23:16:52.311Z</time>
</trkpt>
<trkpt lat="-27.3476411" lon="152.9045285">
<ele>111.366</ele>
<time>2017-01-10T23:16:55.228Z</time>
</trkpt>
<trkpt lat="-27.3474180" lon="152.9049776">
<ele>109.956</ele>
<time>2017-01-10T23:16:57.304Z</time>
</trkpt>
<trkpt lat="-27.3470394" lon="152.9056054">
<ele>108.483</ele>
<time>2017-01-10T23:17:00.537Z</time>
</trkpt>
<trkpt lat="-27.3466949" lon="152.9061683">
<ele>105.752</ele>
<time>2017-01-10T23:17:03.613Z</time>
</trkpt>
<trkpt lat="-27.3464165" lon="152.9064996">
<ele>100.492</ele>
<time>2017-01-10T23:17:05.715Z</time>
</trkpt>
<trkpt lat="-27.3459991" lon="152.9069828">
<ele>93.984</ele>
<time>2017-01-10T23:17:08.855Z</time>
</trkpt>
<trkpt lat="-27.3456146" lon="152.9074368">
<ele>87.962</ele>
<time>2017-01-10T23:17:11.811Z</time>
</trkpt>
<trkpt lat="-27.3453493" lon="152.9077265">
<ele>82.279</ele>
<time>2017-01-10T23:17:13.791Z</time>
</trkpt>
<trkpt lat="-27.3450922" lon="152.9080287">
<ele>76.876</ele>
<time>2017-01-10T23:17:15.808Z</time>
</trkpt>
<trkpt lat="-27.3447041" lon="152.9084758">
<ele>72.441</ele>
<time>2017-01-10T23:17:18.864Z</time>
</trkpt>
<trkpt lat="-27.3443434" lon="152.9089368">
<ele>68.295</ele>
<time>2017-01-10T23:17:21.802Z</time>
</trkpt>
<trkpt lat="-27.3441377" lon="152.9091994">
<ele>63.284</ele>
<time>2017-01-10T23:17:23.392Z</time>
</trkpt>
<trkpt lat="-27.3438743" lon="152.9095249">
<ele>57.980</ele>
<time>2017-01-10T23:17:25.317Z</time>
</trkpt>
<trkpt lat="-27.3436330" lon="152.9098747">
<ele>53.720</ele>
<time>2017-01-10T23:17:27.214Z</time>
</trkpt>
<trkpt lat="-27.3434405" lon="152.9102840">
<ele>50.549</ele>
<time>2017-01-10T23:17:29.191Z</time>
</trkpt>
<trkpt lat="-27.3432751" lon="152.9109513">
<ele>47.709</ele>
<time>2017-01-10T23:17:32.175Z</time>
</trkpt>
<trkpt lat="-27.3432385" lon="152.9114106">
<ele>44.493</ele>
<time>2017-01-10T23:17:34.184Z</time>
</trkpt>
<trkpt lat="-27.3432486" lon="152.9118614">
<ele>40.991</ele>
<time>2017-01-10T23:17:36.119Z</time>
</trkpt>
<trkpt lat="-27.3433474" lon="152.9125417">
<ele>38.294</ele>
<time>2017-01-10T23:17:39.056Z</time>
</trkpt>
<trkpt lat="-27.3434668" lon="152.9132342">
<ele>37.194</ele>
<time>2017-01-10T23:17:42.195Z</time>
</trkpt>
<trkpt lat="-27.3435224" lon="152.9136895">
<ele>38.004</ele>
<time>2017-01-10T23:17:44.302Z</time>
</trkpt>
<trkpt lat="-27.3435174" lon="152.9141135">
<ele>40.860</ele>
<time>2017-01-10T23:17:46.227Z</time>
</trkpt>
<trkpt lat="-27.3434360" lon="152.9145468">
<ele>44.780</ele>
<time>2017-01-10T23:17:48.239Z</time>
</trkpt>
<trkpt lat="-27.3431645" lon="152.9151408">
<ele>48.592</ele>
<time>2017-01-10T23:17:51.278Z</time>
</trkpt>
<trkpt lat="-27.3427559" lon="152.9156039">
<ele>52.377</ele>
<time>2017-01-10T23:17:54.243Z</time>
</trkpt>
<trkpt lat="-27.3422014" lon="152.9158776">
<ele>56.473</ele>
<time>2017-01-10T23:17:57.253Z</time>
</trkpt>
<trkpt lat="-27.3418066" lon="152.9159353">
<ele>60.829</ele>
<time>2017-01-10T23:17:59.129Z</time>
</trkpt>
<trkpt lat="-27.3414011" lon="152.9159008">
<ele>65.056</ele>
<time>2017-01-10T23:18:01.023Z</time>
</trkpt>
<trkpt lat="-27.3407539" lon="152.9157255">
<ele>68.604</ele>
<time>2017-01-10T23:18:04.117Z</time>
</trkpt>
<trkpt lat="-27.3401434" lon="152.9155232">
<ele>71.665</ele>
<time>2017-01-10T23:18:07.138Z</time>
</trkpt>
<trkpt lat="-27.3397386" lon="152.9153998">
<ele>74.610</ele>
<time>2017-01-10T23:18:09.180Z</time>
</trkpt>
<trkpt lat="-27.3393334" lon="152.9152797">
<ele>77.094</ele>
<time>2017-01-10T23:18:11.261Z</time>
</trkpt>
<trkpt lat="-27.3387631" lon="152.9150892">
<ele>78.799</ele>
<time>2017-01-10T23:18:14.243Z</time>
</trkpt>
<trkpt lat="-27.3381934" lon="152.9149421">
<ele>79.925</ele>
<time>2017-01-10T23:18:17.096Z</time>
</trkpt>
<trkpt lat="-27.3377793" lon="152.9149032">
<ele>80.708</ele>
<time>2017-01-10T23:18:19.095Z</time>
</trkpt>
<trkpt lat="-27.3371531" lon="152.9150069">
<ele>81.228</ele>
<time>2017-01-10T23:18:22.122Z</time>
</trkpt>
<trkpt lat="-27.3367595" lon="152.9151944">
<ele>81.554</ele>
<time>2017-01-10T23:18:24.179Z</time>
</trkpt>
<trkpt lat="-27.3362622" lon="152.9156157">
<ele>81.869</ele>
<time>2017-01-10T23:18:27.225Z</time>
</trkpt>
<trkpt lat="-27.3358522" lon="152.9161367">
<ele>82.172</ele>
<time>2017-01-10T23:18:30.398Z</time>
</trkpt>
<trkpt lat="-27.3356010" lon="152.9164576">
<ele>82.686</ele>
<time>2017-01-10T23:18:32.410Z</time>
</trkpt>
<trkpt lat="-27.3352815" lon="152.9167035">
<ele>83.734</ele>
<time>2017-01-10T23:18:34.490Z</time>
</trkpt>
<trkpt lat="-27.3347901" lon="152.9169352">
<ele>85.305</ele>
<time>2017-01-10T23:18:37.436Z</time>
</trkpt>
<trkpt lat="-27.3342162" lon="152.9169177">
<ele>87.700</ele>
<time>2017-01-10T23:18:41.098Z</time>
</trkpt>
<trkpt lat="-27.3338804" lon="152.9168190">
<ele>91.379</ele>
<time>2017-01-10T23:18:43.636Z</time>
</trkpt>
<trkpt lat="-27.3335810" lon="152.9167589">
<ele>95.612</ele>
<time>2017-01-10T23:18:46.125Z</time>
</trkpt>
<trkpt lat="-27.3331834" lon="152.9168054">
<ele>99.106</ele>
<time>2017-01-10T23:18:49.470Z</time>
</trkpt>
<trkpt lat="-27.3328754" lon="152.9169825">
<ele>101.406</ele>
<time>2017-01-10T23:18:52.034Z</time>
</trkpt>
<trkpt lat="-27.3325515" lon="152.9170302">
<ele>102.695</ele>
<time>2017-01-10T23:18:54.267Z</time>
</trkpt>
<trkpt lat="-27.3321070" lon="152.9169630">
<ele>103.658</ele>
<time>2017-01-10T23:18:57.254Z</time>
</trkpt>
<trkpt lat="-27.3317146" lon="152.9168111">
<ele>105.363</ele>
<time>2017-01-10T23:18:59.921Z</time>
</trkpt>
<trkpt lat="-27.3314512" lon="152.9166121">
<ele>107.794</ele>
<time>2017-01-10T23:19:02.060Z</time>
</trkpt>
<trkpt lat="-27.3311338" lon="152.9162310">
<ele>109.682</ele>
<time>2017-01-10T23:19:05.358Z</time>
</trkpt>
<trkpt lat="-27.3308854" lon="152.9158557">
<ele>110.411</ele>
<time>2017-01-10T23:19:08.399Z</time>
</trkpt>
<trkpt lat="-27.3306030" lon="152.9155171">
<ele>110.462</ele>
<time>2017-01-10T23:19:11.143Z</time>
</trkpt>
<trkpt lat="-27.3303565" lon="152.9154106">
<ele>110.386</ele>
<time>2017-01-10T23:19:12.733Z</time>
</trkpt>
<trkpt lat="-27.3298677" lon="152.9154519">
<ele>110.480</ele>
<time>2017-01-10T23:19:15.629Z</time>
</trkpt>
<trkpt lat="-27.3295395" lon="152.9154461">
<ele>110.866</ele>
<time>2017-01-10T23:19:17.591Z</time>
</trkpt>
<trkpt lat="-27.3290277" lon="152.9153197">
<ele>111.371</ele>
<time>2017-01-10T23:19:20.790Z</time>
</trkpt>
<trkpt lat="-27.3285614" lon="152.9151255">
<ele>111.515</ele>
<time>2017-01-10T23:19:23.940Z</time>
</trkpt>
<trkpt lat="-27.3282994" lon="152.9149157">
<ele>111.100</ele>
<time>2017-01-10T23:19:26.013Z</time>
</trkpt>
<trkpt lat="-27.3279494" lon="152.9145607">
<ele>110.763</ele>
<time>2017-01-10T23:19:28.987Z</time>
</trkpt>
<trkpt lat="-27.3276312" lon="152.9141907">
<ele>111.040</ele>
<time>2017-01-10T23:19:31.682Z</time>
</trkpt>
<trkpt lat="-27.3273683" lon="152.9139619">
<ele>111.128</ele>
<time>2017-01-10T23:19:33.633Z</time>
</trkpt>
<trkpt lat="-27.3268858" lon="152.9137433">
<ele>110.306</ele>
<time>2017-01-10T23:19:36.887Z</time>
</trkpt>
<trkpt lat="-27.3265747" lon="152.9136073">
<ele>109.631</ele>
<time>2017-01-10T23:19:39.087Z</time>
</trkpt>
<trkpt lat="-27.3262372" lon="152.9132632">
<ele>110.455</ele>
<time>2017-01-10T23:19:42.148Z</time>
</trkpt>
<trkpt lat="-27.3260812" lon="152.9129636">
<ele>112.577</ele>
<time>2017-01-10T23:19:44.154Z</time>
</trkpt>
<trkpt lat="-27.3258748" lon="152.9127176">
<ele>114.774</ele>
<time>2017-01-10T23:19:46.055Z</time>
</trkpt>
<trkpt lat="-27.3256114" lon="152.9125484">
<ele>115.878</ele>
<time>2017-01-10T23:19:47.872Z</time>
</trkpt>
<trkpt lat="-27.3251317" lon="152.9124731">
<ele>115.697</ele>
<time>2017-01-10T23:19:50.723Z</time>
</trkpt>
<trkpt lat="-27.3248097" lon="152.9124544">
<ele>115.266</ele>
<time>2017-01-10T23:19:52.629Z</time>
</trkpt>
<trkpt lat="-27.3242910" lon="152.9123681">
<ele>115.555</ele>
<time>2017-01-10T23:19:55.820Z</time>
</trkpt>
<trkpt lat="-27.3239565" lon="152.9122919">
<ele>116.413</ele>
<time>2017-01-10T23:19:57.998Z</time>
</trkpt>
<trkpt lat="-27.3235039" lon="152.9120816">
<ele>117.177</ele>
<time>2017-01-10T23:20:01.175Z</time>
</trkpt>
<trkpt lat="-27.3233689" lon="152.9117472">
<ele>117.254</ele>
<time>2017-01-10T23:20:03.297Z</time>
</trkpt>
<trkpt lat="-27.3232949" lon="152.9113879">
<ele>116.407</ele>
<time>2017-01-10T23:20:05.535Z</time>
</trkpt>
<trkpt lat="-27.3232818" lon="152.9108614">
<ele>115.029</ele>
<time>2017-01-10T23:20:08.821Z</time>
</trkpt>
<trkpt lat="-27.3232243" lon="152.9104289">
<ele>113.434</ele>
<time>2017-01-10T23:20:11.482Z</time>
</trkpt>
<trkpt lat="-27.3231121" lon="152.9101120">
<ele>111.744</ele>
<time>2017-01-10T23:20:13.509Z</time>
</trkpt>
<trkpt lat="-27.3229570" lon="152.9098435">
<ele>110.415</ele>
<time>2017-01-10T23:20:15.336Z</time>
</trkpt>
<trkpt lat="-27.3226536" lon="152.9094688">
<ele>109.531</ele>
<time>2017-01-10T23:20:18.154Z</time>
</trkpt>
<trkpt lat="-27.3224302" lon="152.9090064">
<ele>108.575</ele>
<time>2017-01-10T23:20:21.126Z</time>
</trkpt>
<trkpt lat="-27.3220762" lon="152.9086441">
<ele>107.502</ele>
<time>2017-01-10T23:20:24.293Z</time>
</trkpt>
<trkpt lat="-27.3218842" lon="152.9081432">
<ele>106.889</ele>
<time>2017-01-10T23:20:27.584Z</time>
</trkpt>
<trkpt lat="-27.3217615" lon="152.9076837">
<ele>107.190</ele>
<time>2017-01-10T23:20:30.478Z</time>
</trkpt>
<trkpt lat="-27.3216456" lon="152.9073893">
<ele>108.392</ele>
<time>2017-01-10T23:20:32.338Z</time>
</trkpt>
<trkpt lat="-27.3214135" lon="152.9069736">
<ele>109.942</ele>
<time>2017-01-10T23:20:34.985Z</time>
</trkpt>
<trkpt lat="-27.3210762" lon="152.9067956">
<ele>110.512</ele>
<time>2017-01-10T23:20:37.276Z</time>
</trkpt>
<trkpt lat="-27.3206810" lon="152.9067925">
<ele>109.507</ele>
<time>2017-01-10T23:20:40.097Z</time>
</trkpt>
<trkpt lat="-27.3202266" lon="152.9067745">
<ele>108.512</ele>
<time>2017-01-10T23:20:43.783Z</time>
</trkpt>
<trkpt lat="-27.3198296" lon="152.9067173">
<ele>109.271</ele>
<time>2017-01-10T23:20:46.694Z</time>
</trkpt>
<trkpt lat="-27.3195339" lon="152.9064869">
<ele>111.292</ele>
<time>2017-01-10T23:20:49.229Z</time>
</trkpt>
<trkpt lat="-27.3193818" lon="152.9061965">
<ele>113.707</ele>
<time>2017-01-10T23:20:51.255Z</time>
</trkpt>
<trkpt lat="-27.3192116" lon="152.9059596">
<ele>116.677</ele>
<time>2017-01-10T23:20:53.000Z</time>
</trkpt>
<trkpt lat="-27.3189708" lon="152.9055457">
<ele>119.685</ele>
<time>2017-01-10T23:20:55.809Z</time>
</trkpt>
<trkpt lat="-27.3188762" lon="152.9052084">
<ele>121.103</ele>
<time>2017-01-10T23:20:58.019Z</time>
</trkpt>
<trkpt lat="-27.3188329" lon="152.9048567">
<ele>120.451</ele>
<time>2017-01-10T23:21:00.381Z</time>
</trkpt>
<trkpt lat="-27.3187877" lon="152.9045257">
<ele>118.908</ele>
<time>2017-01-10T23:21:02.710Z</time>
</trkpt>
<trkpt lat="-27.3186922" lon="152.9041069">
<ele>117.707</ele>
<time>2017-01-10T23:21:05.600Z</time>
</trkpt>
<trkpt lat="-27.3184576" lon="152.9037752">
<ele>117.122</ele>
<time>2017-01-10T23:21:08.238Z</time>
</trkpt>
<trkpt lat="-27.3182195" lon="152.9037007">
<ele>116.977</ele>
<time>2017-01-10T23:21:09.975Z</time>
</trkpt>
<trkpt lat="-27.3177463" lon="152.9037828">
<ele>116.851</ele>
<time>2017-01-10T23:21:13.409Z</time>
</trkpt>
<trkpt lat="-27.3174564" lon="152.9037954">
<ele>116.467</ele>
<time>2017-01-10T23:21:15.400Z</time>
</trkpt>
<trkpt lat="-27.3170959" lon="152.9036084">
<ele>116.076</ele>
<time>2017-01-10T23:21:17.862Z</time>
</trkpt>
<trkpt lat="-27.3169729" lon="152.9030786">
<ele>116.096</ele>
<time>2017-01-10T23:21:20.876Z</time>
</trkpt>
<trkpt lat="-27.3169198" lon="152.9027234">
<ele>116.507</ele>
<time>2017-01-10T23:21:22.833Z</time>
</trkpt>
<trkpt lat="-27.3168148" lon="152.9023895">
<ele>116.780</ele>
<time>2017-01-10T23:21:24.720Z</time>
</trkpt>
<trkpt lat="-27.3165367" lon="152.9019704">
<ele>116.540</ele>
<time>2017-01-10T23:21:27.509Z</time>
</trkpt>
<trkpt lat="-27.3160884" lon="152.9017265">
<ele>115.980</ele>
<time>2017-01-10T23:21:30.655Z</time>
</trkpt>
<trkpt lat="-27.3157673" lon="152.9016311">
<ele>115.432</ele>
<time>2017-01-10T23:21:32.863Z</time>
</trkpt>
<trkpt lat="-27.3152964" lon="152.9015843">
<ele>115.568</ele>
<time>2017-01-10T23:21:36.059Z</time>
</trkpt>
<trkpt lat="-27.3148611" lon="152.9016359">
<ele>117.002</ele>
<time>2017-01-10T23:21:39.137Z</time>
</trkpt>
<trkpt lat="-27.3145671" lon="152.9016794">
<ele>119.055</ele>
<time>2017-01-10T23:21:41.486Z</time>
</trkpt>
<trkpt lat="-27.3142760" lon="152.9017466">
<ele>120.131</ele>
<time>2017-01-10T23:21:44.276Z</time>
</trkpt>
<trkpt lat="-27.3139032" lon="152.9019147">
<ele>119.710</ele>
<time>2017-01-10T23:21:47.623Z</time>
</trkpt>
<trkpt lat="-27.3137073" lon="152.9020066">
<ele>118.749</ele>
<time>2017-01-10T23:21:49.158Z</time>
</trkpt>
<trkpt lat="-27.3134921" lon="152.9019719">
<ele>118.431</ele>
<time>2017-01-10T23:21:50.460Z</time>
</trkpt>
<trkpt lat="-27.3133169" lon="152.9017026">
<ele>119.158</ele>
<time>2017-01-10T23:21:52.155Z</time>
</trkpt>
<trkpt lat="-27.3130153" lon="152.9012938">
<ele>120.695</ele>
<time>2017-01-10T23:21:54.861Z</time>
</trkpt>
<trkpt lat="-27.3126906" lon="152.9010890">
<ele>122.496</ele>
<time>2017-01-10T23:21:57.225Z</time>
</trkpt>
<trkpt lat="-27.3123850" lon="152.9008847">
<ele>124.093</ele>
<time>2017-01-10T23:21:59.522Z</time>
</trkpt>
<trkpt lat="-27.3121342" lon="152.9007054">
<ele>125.300</ele>
<time>2017-01-10T23:22:01.443Z</time>
</trkpt>
<trkpt lat="-27.3120336" lon="152.9001968">
<ele>126.295</ele>
<time>2017-01-10T23:22:04.407Z</time>
</trkpt>
<trkpt lat="-27.3119509" lon="152.8996756">
<ele>127.673</ele>
<time>2017-01-10T23:22:07.605Z</time>
</trkpt>
<trkpt lat="-27.3118464" lon="152.8992106">
<ele>129.568</ele>
<time>2017-01-10T23:22:10.485Z</time>
</trkpt>
<trkpt lat="-27.3117239" lon="152.8989043">
<ele>131.088</ele>
<time>2017-01-10T23:22:12.504Z</time>
</trkpt>
<trkpt lat="-27.3115397" lon="152.8986706">
<ele>131.640</ele>
<time>2017-01-10T23:22:14.415Z</time>
</trkpt>
<trkpt lat="-27.3110900" lon="152.8984759">
<ele>131.827</ele>
<time>2017-01-10T23:22:17.950Z</time>
</trkpt>
<trkpt lat="-27.3106885" lon="152.8983158">
<ele>132.240</ele>
<time>2017-01-10T23:22:21.082Z</time>
</trkpt>
<trkpt lat="-27.3103579" lon="152.8980543">
<ele>132.560</ele>
<time>2017-01-10T23:22:23.935Z</time>
</trkpt>
<trkpt lat="-27.3102742" lon="152.8975411">
<ele>132.254</ele>
<time>2017-01-10T23:22:27.098Z</time>
</trkpt>
<trkpt lat="-27.3101717" lon="152.8972196">
<ele>131.549</ele>
<time>2017-01-10T23:22:29.288Z</time>
</trkpt>
<trkpt lat="-27.3100354" lon="152.8969480">
<ele>131.165</ele>
<time>2017-01-10T23:22:31.331Z</time>
</trkpt>
<trkpt lat="-27.3097066" lon="152.8965973">
<ele>131.399</ele>
<time>2017-01-10T23:22:34.613Z</time>
</trkpt>
<trkpt lat="-27.3094868" lon="152.8964418">
<ele>131.916</ele>
<time>2017-01-10T23:22:36.456Z</time>
</trkpt>
<trkpt lat="-27.3090900" lon="152.8963945">
<ele>132.347</ele>
<time>2017-01-10T23:22:39.073Z</time>
</trkpt>
<trkpt lat="-27.3086686" lon="152.8964491">
<ele>132.582</ele>
<time>2017-01-10T23:22:41.528Z</time>
</trkpt>
<trkpt lat="-27.3083915" lon="152.8964441">
<ele>132.585</ele>
<time>2017-01-10T23:22:43.053Z</time>
</trkpt>
<trkpt lat="-27.3080603" lon="152.8963572">
<ele>132.277</ele>
<time>2017-01-10T23:22:44.884Z</time>
</trkpt>
<trkpt lat="-27.3075193" lon="152.8962455">
<ele>131.709</ele>
<time>2017-01-10T23:22:47.729Z</time>
</trkpt>
<trkpt lat="-27.3069913" lon="152.8960869">
<ele>131.175</ele>
<time>2017-01-10T23:22:50.622Z</time>
</trkpt>
<trkpt lat="-27.3064084" lon="152.8959244">
<ele>130.858</ele>
<time>2017-01-10T23:22:54.289Z</time>
</trkpt>
<trkpt lat="-27.3060373" lon="152.8958244">
<ele>131.269</ele>
<time>2017-01-10T23:22:56.677Z</time>
</trkpt>
<trkpt lat="-27.3057477" lon="152.8956891">
<ele>133.236</ele>
<time>2017-01-10T23:22:58.554Z</time>
</trkpt>
<trkpt lat="-27.3053409" lon="152.8954618">
<ele>136.992</ele>
<time>2017-01-10T23:23:01.314Z</time>
</trkpt>
<trkpt lat="-27.3050648" lon="152.8952331">
<ele>142.428</ele>
<time>2017-01-10T23:23:03.467Z</time>
</trkpt>
<trkpt lat="-27.3046393" lon="152.8949206">
<ele>149.178</ele>
<time>2017-01-10T23:23:06.680Z</time>
</trkpt>
<trkpt lat="-27.3042336" lon="152.8946573">
<ele>156.097</ele>
<time>2017-01-10T23:23:09.456Z</time>
</trkpt>
<trkpt lat="-27.3039396" lon="152.8942543">
<ele>162.164</ele>
<time>2017-01-10T23:23:12.164Z</time>
</trkpt>
<trkpt lat="-27.3036614" lon="152.8937387">
<ele>167.538</ele>
<time>2017-01-10T23:23:15.222Z</time>
</trkpt>
<trkpt lat="-27.3033113" lon="152.8933587">
<ele>173.342</ele>
<time>2017-01-10T23:23:17.925Z</time>
</trkpt>
<trkpt lat="-27.3030904" lon="152.8930266">
<ele>180.125</ele>
<time>2017-01-10T23:23:20.011Z</time>
</trkpt>
<trkpt lat="-27.3029037" lon="152.8926768">
<ele>186.473</ele>
<time>2017-01-10T23:23:22.099Z</time>
</trkpt>
<trkpt lat="-27.3027148" lon="152.8921195">
<ele>190.426</ele>
<time>2017-01-10T23:23:25.208Z</time>
</trkpt>
<trkpt lat="-27.3026162" lon="152.8915540">
<ele>191.610</ele>
<time>2017-01-10T23:23:28.197Z</time>
</trkpt>
<trkpt lat="-27.3025426" lon="152.8909924">
<ele>190.939</ele>
<time>2017-01-10T23:23:31.119Z</time>
</trkpt>
<trkpt lat="-27.3024256" lon="152.8904343">
<ele>189.632</ele>
<time>2017-01-10T23:23:34.060Z</time>
</trkpt>
<trkpt lat="-27.3022912" lon="152.8898798">
<ele>188.705</ele>
<time>2017-01-10T23:23:37.024Z</time>
</trkpt>
<trkpt lat="-27.3022618" lon="152.8894938">
<ele>188.458</ele>
<time>2017-01-10T23:23:39.093Z</time>
</trkpt>
<trkpt lat="-27.3022435" lon="152.8891032">
<ele>188.424</ele>
<time>2017-01-10T23:23:41.195Z</time>
</trkpt>
<trkpt lat="-27.3022427" lon="152.8887349">
<ele>187.851</ele>
<time>2017-01-10T23:23:43.194Z</time>
</trkpt>
<trkpt lat="-27.3022730" lon="152.8881982">
<ele>186.416</ele>
<time>2017-01-10T23:23:46.181Z</time>
</trkpt>
<trkpt lat="-27.3023641" lon="152.8878378">
<ele>184.713</ele>
<time>2017-01-10T23:23:48.259Z</time>
</trkpt>
<trkpt lat="-27.3025615" lon="152.8875306">
<ele>183.655</ele>
<time>2017-01-10T23:23:50.287Z</time>
</trkpt>
<trkpt lat="-27.3027774" lon="152.8872695">
<ele>183.496</ele>
<time>2017-01-10T23:23:52.168Z</time>
</trkpt>
<trkpt lat="-27.3030489" lon="152.8870460">
<ele>183.830</ele>
<time>2017-01-10T23:23:54.147Z</time>
</trkpt>
<trkpt lat="-27.3035063" lon="152.8867920">
<ele>184.490</ele>
<time>2017-01-10T23:23:57.108Z</time>
</trkpt>
<trkpt lat="-27.3039284" lon="152.8864413">
<ele>187.165</ele>
<time>2017-01-10T23:24:00.209Z</time>
</trkpt>
<trkpt lat="-27.3044168" lon="152.8862493">
<ele>193.020</ele>
<time>2017-01-10T23:24:04.559Z</time>
</trkpt>
<trkpt lat="-27.3048938" lon="152.8861522">
<ele>200.505</ele>
<time>2017-01-10T23:24:10.148Z</time>
</trkpt>
<trkpt lat="-27.3050651" lon="152.8861311">
<ele>207.767</ele>
<time>2017-01-10T23:24:11.807Z</time>
</trkpt>
<trkpt lat="-27.3053167" lon="152.8861062">
<ele>213.751</ele>
<time>2017-01-10T23:24:13.862Z</time>
</trkpt>
<trkpt lat="-27.3054437" lon="152.8858999">
<ele>217.578</ele>
<time>2017-01-10T23:24:15.569Z</time>
</trkpt>
<trkpt lat="-27.3053619" lon="152.8855658">
<ele>219.760</ele>
<time>2017-01-10T23:24:17.947Z</time>
</trkpt>
<trkpt lat="-27.3052098" lon="152.8852927">
<ele>221.547</ele>
<time>2017-01-10T23:24:20.041Z</time>
</trkpt>
<trkpt lat="-27.3050192" lon="152.8849164">
<ele>223.457</ele>
<time>2017-01-10T23:24:22.724Z</time>
</trkpt>
<trkpt lat="-27.3049280" lon="152.8846535">
<ele>225.223</ele>
<time>2017-01-10T23:24:24.419Z</time>
</trkpt>
<trkpt lat="-27.3049161" lon="152.8841899">
<ele>226.503</ele>
<time>2017-01-10T23:24:27.104Z</time>
</trkpt>
<trkpt lat="-27.3050179" lon="152.8837019">
<ele>226.898</ele>
<time>2017-01-10T23:24:29.895Z</time>
</trkpt>
<trkpt lat="-27.3050449" lon="152.8833621">
<ele>225.693</ele>
<time>2017-01-10T23:24:31.689Z</time>
</trkpt>
<trkpt lat="-27.3048674" lon="152.8828633">
<ele>222.842</ele>
<time>2017-01-10T23:24:34.408Z</time>
</trkpt>
<trkpt lat="-27.3047524" lon="152.8825099">
<ele>218.854</ele>
<time>2017-01-10T23:24:36.308Z</time>
</trkpt>
<trkpt lat="-27.3046786" lon="152.8821251">
<ele>214.405</ele>
<time>2017-01-10T23:24:38.333Z</time>
</trkpt>
<trkpt lat="-27.3045297" lon="152.8815581">
<ele>209.857</ele>
<time>2017-01-10T23:24:41.356Z</time>
</trkpt>
<trkpt lat="-27.3041753" lon="152.8811364">
<ele>204.648</ele>
<time>2017-01-10T23:24:44.262Z</time>
</trkpt>
<trkpt lat="-27.3039038" lon="152.8808832">
<ele>199.163</ele>
<time>2017-01-10T23:24:46.275Z</time>
</trkpt>
<trkpt lat="-27.3036501" lon="152.8805936">
<ele>195.788</ele>
<time>2017-01-10T23:24:48.440Z</time>
</trkpt>
<trkpt lat="-27.3033275" lon="152.8801626">
<ele>195.804</ele>
<time>2017-01-10T23:24:51.507Z</time>
</trkpt>
<trkpt lat="-27.3029519" lon="152.8797906">
<ele>198.148</ele>
<time>2017-01-10T23:24:54.522Z</time>
</trkpt>
<trkpt lat="-27.3027378" lon="152.8795135">
<ele>201.281</ele>
<time>2017-01-10T23:24:56.471Z</time>
</trkpt>
<trkpt lat="-27.3025538" lon="152.8789693">
<ele>204.166</ele>
<time>2017-01-10T23:24:59.729Z</time>
</trkpt>
<trkpt lat="-27.3025157" lon="152.8785822">
<ele>206.276</ele>
<time>2017-01-10T23:25:02.058Z</time>
</trkpt>
<trkpt lat="-27.3027425" lon="152.8781048">
<ele>207.839</ele>
<time>2017-01-10T23:25:05.315Z</time>
</trkpt>
<trkpt lat="-27.3028029" lon="152.8777992">
<ele>209.960</ele>
<time>2017-01-10T23:25:07.179Z</time>
</trkpt>
<trkpt lat="-27.3027553" lon="152.8774511">
<ele>213.125</ele>
<time>2017-01-10T23:25:09.254Z</time>
</trkpt>
<trkpt lat="-27.3025708" lon="152.8770046">
<ele>216.472</ele>
<time>2017-01-10T23:25:12.064Z</time>
</trkpt>
<trkpt lat="-27.3022090" lon="152.8767060">
<ele>219.453</ele>
<time>2017-01-10T23:25:14.996Z</time>
</trkpt>
<trkpt lat="-27.3019286" lon="152.8765591">
<ele>222.245</ele>
<time>2017-01-10T23:25:17.053Z</time>
</trkpt>
<trkpt lat="-27.3016540" lon="152.8764152">
<ele>224.412</ele>
<time>2017-01-10T23:25:19.081Z</time>
</trkpt>
<trkpt lat="-27.3013416" lon="152.8760635">
<ele>225.236</ele>
<time>2017-01-10T23:25:21.995Z</time>
</trkpt>
<trkpt lat="-27.3012016" lon="152.8757635">
<ele>224.622</ele>
<time>2017-01-10T23:25:23.752Z</time>
</trkpt>
<trkpt lat="-27.3010423" lon="152.8754912">
<ele>222.837</ele>
<time>2017-01-10T23:25:25.402Z</time>
</trkpt>
<trkpt lat="-27.3008257" lon="152.8752616">
<ele>220.213</ele>
<time>2017-01-10T23:25:26.985Z</time>
</trkpt>
<trkpt lat="-27.3004596" lon="152.8748122">
<ele>216.909</ele>
<time>2017-01-10T23:25:29.864Z</time>
</trkpt>
<trkpt lat="-27.3002247" lon="152.8744857">
<ele>212.878</ele>
<time>2017-01-10T23:25:31.859Z</time>
</trkpt>
<trkpt lat="-27.2999862" lon="152.8741360">
<ele>208.547</ele>
<time>2017-01-10T23:25:34.028Z</time>
</trkpt>
<trkpt lat="-27.2996396" lon="152.8735904">
<ele>205.077</ele>
<time>2017-01-10T23:25:37.395Z</time>
</trkpt>
<trkpt lat="-27.2992921" lon="152.8731325">
<ele>203.147</ele>
<time>2017-01-10T23:25:40.368Z</time>
</trkpt>
<trkpt lat="-27.2989744" lon="152.8726825">
<ele>202.116</ele>
<time>2017-01-10T23:25:43.230Z</time>
</trkpt>
<trkpt lat="-27.2986964" lon="152.8723819">
<ele>200.706</ele>
<time>2017-01-10T23:25:45.566Z</time>
</trkpt>
<trkpt lat="-27.2983196" lon="152.8719727">
<ele>198.705</ele>
<time>2017-01-10T23:25:48.955Z</time>
</trkpt>
<trkpt lat="-27.2979810" lon="152.8715875">
<ele>197.328</ele>
<time>2017-01-10T23:25:52.202Z</time>
</trkpt>
<trkpt lat="-27.2977896" lon="152.8713314">
<ele>197.552</ele>
<time>2017-01-10T23:25:54.249Z</time>
</trkpt>
<trkpt lat="-27.2976574" lon="152.8710283">
<ele>198.853</ele>
<time>2017-01-10T23:25:56.341Z</time>
</trkpt>
<trkpt lat="-27.2975645" lon="152.8705428">
<ele>199.907</ele>
<time>2017-01-10T23:25:59.474Z</time>
</trkpt>
<trkpt lat="-27.2973852" lon="152.8701067">
<ele>199.893</ele>
<time>2017-01-10T23:26:02.404Z</time>
</trkpt>
<trkpt lat="-27.2972169" lon="152.8698899">
<ele>198.867</ele>
<time>2017-01-10T23:26:04.111Z</time>
</trkpt>
<trkpt lat="-27.2968285" lon="152.8696228">
<ele>197.177</ele>
<time>2017-01-10T23:26:07.071Z</time>
</trkpt>
<trkpt lat="-27.2964521" lon="152.8693355">
<ele>194.729</ele>
<time>2017-01-10T23:26:10.054Z</time>
</trkpt>
<trkpt lat="-27.2961819" lon="152.8691584">
<ele>191.020</ele>
<time>2017-01-10T23:26:12.236Z</time>
</trkpt>
<trkpt lat="-27.2958918" lon="152.8690013">
<ele>186.356</ele>
<time>2017-01-10T23:26:14.715Z</time>
</trkpt>
<trkpt lat="-27.2954876" lon="152.8688254">
<ele>181.927</ele>
<time>2017-01-10T23:26:18.102Z</time>
</trkpt>
<trkpt lat="-27.2952337" lon="152.8687597">
<ele>177.735</ele>
<time>2017-01-10T23:26:20.087Z</time>
</trkpt>
<trkpt lat="-27.2949435" lon="152.8685107">
<ele>172.983</ele>
<time>2017-01-10T23:26:22.780Z</time>
</trkpt>
<trkpt lat="-27.2947928" lon="152.8682694">
<ele>167.861</ele>
<time>2017-01-10T23:26:24.626Z</time>
</trkpt>
<trkpt lat="-27.2944814" lon="152.8679976">
<ele>163.287</ele>
<time>2017-01-10T23:26:27.201Z</time>
</trkpt>
<trkpt lat="-27.2940562" lon="152.8679214">
<ele>159.876</ele>
<time>2017-01-10T23:26:29.869Z</time>
</trkpt>
<trkpt lat="-27.2937438" lon="152.8678790">
<ele>157.836</ele>
<time>2017-01-10T23:26:31.752Z</time>
</trkpt>
<trkpt lat="-27.2934357" lon="152.8678267">
<ele>156.715</ele>
<time>2017-01-10T23:26:33.539Z</time>
</trkpt>
<trkpt lat="-27.2929518" lon="152.8677250">
<ele>155.488</ele>
<time>2017-01-10T23:26:36.265Z</time>
</trkpt>
<trkpt lat="-27.2926036" lon="152.8676736">
<ele>152.759</ele>
<time>2017-01-10T23:26:38.196Z</time>
</trkpt>
<trkpt lat="-27.2922401" lon="152.8676734">
<ele>148.172</ele>
<time>2017-01-10T23:26:40.261Z</time>
</trkpt>
<trkpt lat="-27.2918737" lon="152.8677289">
<ele>142.550</ele>
<time>2017-01-10T23:26:42.411Z</time>
</trkpt>
<trkpt lat="-27.2915513" lon="152.8678101">
<ele>136.285</ele>
<time>2017-01-10T23:26:44.353Z</time>
</trkpt>
<trkpt lat="-27.2910638" lon="152.8679654">
<ele>129.954</ele>
<time>2017-01-10T23:26:47.212Z</time>
</trkpt>
<trkpt lat="-27.2907264" lon="152.8680100">
<ele>125.353</ele>
<time>2017-01-10T23:26:49.120Z</time>
</trkpt>
<trkpt lat="-27.2901674" lon="152.8679908">
<ele>123.417</ele>
<time>2017-01-10T23:26:52.425Z</time>
</trkpt>
<trkpt lat="-27.2896776" lon="152.8678426">
<ele>123.306</ele>
<time>2017-01-10T23:26:55.644Z</time>
</trkpt>
<trkpt lat="-27.2893786" lon="152.8677025">
<ele>123.966</ele>
<time>2017-01-10T23:26:57.786Z</time>
</trkpt>
<trkpt lat="-27.2889739" lon="152.8674502">
<ele>124.788</ele>
<time>2017-01-10T23:27:00.913Z</time>
</trkpt>
<trkpt lat="-27.2885937" lon="152.8672040">
<ele>125.226</ele>
<time>2017-01-10T23:27:03.829Z</time>
</trkpt>
<trkpt lat="-27.2882044" lon="152.8669599">
<ele>124.741</ele>
<time>2017-01-10T23:27:06.803Z</time>
</trkpt>
<trkpt lat="-27.2877894" lon="152.8667651">
<ele>123.093</ele>
<time>2017-01-10T23:27:10.179Z</time>
</trkpt>
<trkpt lat="-27.2873603" lon="152.8666345">
<ele>119.956</ele>
<time>2017-01-10T23:27:14.258Z</time>
</trkpt>
<trkpt lat="-27.2871185" lon="152.8665713">
<ele>114.721</ele>
<time>2017-01-10T23:27:17.245Z</time>
</trkpt>
<trkpt lat="-27.2868956" lon="152.8665527">
<ele>107.954</ele>
<time>2017-01-10T23:27:20.962Z</time>
</trkpt>
<trkpt lat="-27.2866168" lon="152.8665933">
<ele>101.740</ele>
<time>2017-01-10T23:27:25.390Z</time>
</trkpt>
<trkpt lat="-27.2864543" lon="152.8666272">
<ele>97.023</ele>
<time>2017-01-10T23:27:27.201Z</time>
</trkpt>
<trkpt lat="-27.2863025" lon="152.8665583">
<ele>93.159</ele>
<time>2017-01-10T23:27:28.519Z</time>
</trkpt>
<trkpt lat="-27.2863088" lon="152.8663918">
<ele>89.693</ele>
<time>2017-01-10T23:27:29.611Z</time>
</trkpt>
<trkpt lat="-27.2864039" lon="152.8662774">
<ele>86.775</ele>
<time>2017-01-10T23:27:30.573Z</time>
</trkpt>
<trkpt lat="-27.2866519" lon="152.8660034">
<ele>84.823</ele>
<time>2017-01-10T23:27:32.824Z</time>
</trkpt>
<trkpt lat="-27.2868085" lon="152.8657177">
<ele>84.375</ele>
<time>2017-01-10T23:27:34.603Z</time>
</trkpt>
<trkpt lat="-27.2869127" lon="152.8653937">
<ele>85.195</ele>
<time>2017-01-10T23:27:36.315Z</time>
</trkpt>
<trkpt lat="-27.2869945" lon="152.8650396">
<ele>86.135</ele>
<time>2017-01-10T23:27:38.101Z</time>
</trkpt>
<trkpt lat="-27.2870535" lon="152.8646351">
<ele>86.135</ele>
<time>2017-01-10T23:27:40.081Z</time>
</trkpt>
<trkpt lat="-27.2870326" lon="152.8640050">
<ele>84.971</ele>
<time>2017-01-10T23:27:43.205Z</time>
</trkpt>
<trkpt lat="-27.2869678" lon="152.8634061">
<ele>82.903</ele>
<time>2017-01-10T23:27:46.247Z</time>
</trkpt>
<trkpt lat="-27.2869105" lon="152.8628349">
<ele>80.383</ele>
<time>2017-01-10T23:27:49.082Z</time>
</trkpt>
<trkpt lat="-27.2868934" lon="152.8624459">
<ele>77.964</ele>
<time>2017-01-10T23:27:50.907Z</time>
</trkpt>
<trkpt lat="-27.2868623" lon="152.8618482">
<ele>76.101</ele>
<time>2017-01-10T23:27:53.691Z</time>
</trkpt>
<trkpt lat="-27.2868466" lon="152.8611937">
<ele>74.584</ele>
<time>2017-01-10T23:27:56.792Z</time>
</trkpt>
<trkpt lat="-27.2868635" lon="152.8607725">
<ele>72.564</ele>
<time>2017-01-10T23:27:58.793Z</time>
</trkpt>
<trkpt lat="-27.2869096" lon="152.8601605">
<ele>69.852</ele>
<time>2017-01-10T23:28:01.653Z</time>
</trkpt>
<trkpt lat="-27.2869726" lon="152.8597491">
<ele>67.116</ele>
<time>2017-01-10T23:28:03.560Z</time>
</trkpt>
<trkpt lat="-27.2870431" lon="152.8593279">
<ele>64.747</ele>
<time>2017-01-10T23:28:05.468Z</time>
</trkpt>
<trkpt lat="-27.2872091" lon="152.8587125">
<ele>62.540</ele>
<time>2017-01-10T23:28:08.305Z</time>
</trkpt>
<trkpt lat="-27.2873574" lon="152.8582827">
<ele>60.343</ele>
<time>2017-01-10T23:28:10.377Z</time>
</trkpt>
<trkpt lat="-27.2876172" lon="152.8576685">
<ele>58.483</ele>
<time>2017-01-10T23:28:13.556Z</time>
</trkpt>
<trkpt lat="-27.2877790" lon="152.8572925">
<ele>57.145</ele>
<time>2017-01-10T23:28:15.575Z</time>
</trkpt>
<trkpt lat="-27.2879350" lon="152.8569161">
<ele>56.112</ele>
<time>2017-01-10T23:28:17.599Z</time>
</trkpt>
<trkpt lat="-27.2882145" lon="152.8563962">
<ele>55.814</ele>
<time>2017-01-10T23:28:20.505Z</time>
</trkpt>
<trkpt lat="-27.2884778" lon="152.8561132">
<ele>57.018</ele>
<time>2017-01-10T23:28:22.432Z</time>
</trkpt>
<trkpt lat="-27.2887644" lon="152.8558283">
<ele>59.173</ele>
<time>2017-01-10T23:28:24.480Z</time>
</trkpt>
<trkpt lat="-27.2891232" lon="152.8553653">
<ele>60.662</ele>
<time>2017-01-10T23:28:27.460Z</time>
</trkpt>
<trkpt lat="-27.2894565" lon="152.8548863">
<ele>60.782</ele>
<time>2017-01-10T23:28:30.384Z</time>
</trkpt>
<trkpt lat="-27.2896546" lon="152.8545624">
<ele>60.431</ele>
<time>2017-01-10T23:28:32.202Z</time>
</trkpt>
<trkpt lat="-27.2900474" lon="152.8541075">
<ele>60.488</ele>
<time>2017-01-10T23:28:35.039Z</time>
</trkpt>
<trkpt lat="-27.2905217" lon="152.8537051">
<ele>60.336</ele>
<time>2017-01-10T23:28:37.951Z</time>
</trkpt>
<trkpt lat="-27.2910227" lon="152.8533133">
<ele>58.891</ele>
<time>2017-01-10T23:28:41.034Z</time>
</trkpt>
<trkpt lat="-27.2915405" lon="152.8529365">
<ele>56.447</ele>
<time>2017-01-10T23:28:44.426Z</time>
</trkpt>
<trkpt lat="-27.2920021" lon="152.8526019">
<ele>54.101</ele>
<time>2017-01-10T23:28:47.825Z</time>
</trkpt>
<trkpt lat="-27.2922755" lon="152.8523981">
<ele>52.115</ele>
<time>2017-01-10T23:28:50.036Z</time>
</trkpt>
<trkpt lat="-27.2925565" lon="152.8522464">
<ele>50.226</ele>
<time>2017-01-10T23:28:52.202Z</time>
</trkpt>
<trkpt lat="-27.2928131" lon="152.8521274">
<ele>48.558</ele>
<time>2017-01-10T23:28:54.199Z</time>
</trkpt>
<trkpt lat="-27.2932012" lon="152.8519412">
<ele>47.377</ele>
<time>2017-01-10T23:28:57.260Z</time>
</trkpt>
<trkpt lat="-27.2934443" lon="152.8518233">
<ele>46.709</ele>
<time>2017-01-10T23:28:59.108Z</time>
</trkpt>
<trkpt lat="-27.2938252" lon="152.8516695">
<ele>46.460</ele>
<time>2017-01-10T23:29:01.734Z</time>
</trkpt>
<trkpt lat="-27.2941142" lon="152.8515889">
<ele>46.492</ele>
<time>2017-01-10T23:29:03.602Z</time>
</trkpt>
<trkpt lat="-27.2944252" lon="152.8515164">
<ele>46.726</ele>
<time>2017-01-10T23:29:05.633Z</time>
</trkpt>
<trkpt lat="-27.2947457" lon="152.8514501">
<ele>47.192</ele>
<time>2017-01-10T23:29:07.773Z</time>
</trkpt>
<trkpt lat="-27.2950395" lon="152.8514114">
<ele>47.879</ele>
<time>2017-01-10T23:29:09.731Z</time>
</trkpt>
<trkpt lat="-27.2954672" lon="152.8513089">
<ele>48.873</ele>
<time>2017-01-10T23:29:12.600Z</time>
</trkpt>
<trkpt lat="-27.2958996" lon="152.8511952">
<ele>50.813</ele>
<time>2017-01-10T23:29:15.461Z</time>
</trkpt>
<trkpt lat="-27.2963041" lon="152.8509141">
<ele>54.258</ele>
<time>2017-01-10T23:29:18.481Z</time>
</trkpt>
<trkpt lat="-27.2965761" lon="152.8504900">
<ele>58.600</ele>
<time>2017-01-10T23:29:21.372Z</time>
</trkpt>
<trkpt lat="-27.2966823" lon="152.8501502">
<ele>62.312</ele>
<time>2017-01-10T23:29:23.347Z</time>
</trkpt>
<trkpt lat="-27.2968076" lon="152.8496056">
<ele>64.344</ele>
<time>2017-01-10T23:29:26.434Z</time>
</trkpt>
<trkpt lat="-27.2970231" lon="152.8491191">
<ele>64.859</ele>
<time>2017-01-10T23:29:29.364Z</time>
</trkpt>
<trkpt lat="-27.2971595" lon="152.8488034">
<ele>64.418</ele>
<time>2017-01-10T23:29:31.228Z</time>
</trkpt>
<trkpt lat="-27.2973676" lon="152.8483058">
<ele>63.037</ele>
<time>2017-01-10T23:29:34.206Z</time>
</trkpt>
<trkpt lat="-27.2975084" lon="152.8479844">
<ele>60.647</ele>
<time>2017-01-10T23:29:36.185Z</time>
</trkpt>
<trkpt lat="-27.2977728" lon="152.8475337">
<ele>57.615</ele>
<time>2017-01-10T23:29:39.230Z</time>
</trkpt>
<trkpt lat="-27.2981641" lon="152.8472015">
<ele>54.546</ele>
<time>2017-01-10T23:29:42.456Z</time>
</trkpt>
<trkpt lat="-27.2985695" lon="152.8470073">
<ele>51.860</ele>
<time>2017-01-10T23:29:45.395Z</time>
</trkpt>
<trkpt lat="-27.2988476" lon="152.8468842">
<ele>49.674</ele>
<time>2017-01-10T23:29:47.406Z</time>
</trkpt>
<trkpt lat="-27.2992694" lon="152.8466988">
<ele>47.993</ele>
<time>2017-01-10T23:29:50.432Z</time>
</trkpt>
<trkpt lat="-27.2995233" lon="152.8465727">
<ele>46.711</ele>
<time>2017-01-10T23:29:52.156Z</time>
</trkpt>
<trkpt lat="-27.2997698" lon="152.8463598">
<ele>45.754</ele>
<time>2017-01-10T23:29:53.945Z</time>
</trkpt>
<trkpt lat="-27.2999926" lon="152.8460507">
<ele>45.269</ele>
<time>2017-01-10T23:29:55.909Z</time>
</trkpt>
<trkpt lat="-27.3001836" lon="152.8457300">
<ele>45.560</ele>
<time>2017-01-10T23:29:57.817Z</time>
</trkpt>
<trkpt lat="-27.3004420" lon="152.8451818">
<ele>46.533</ele>
<time>2017-01-10T23:30:01.007Z</time>
</trkpt>
<trkpt lat="-27.3006240" lon="152.8448451">
<ele>47.497</ele>
<time>2017-01-10T23:30:03.192Z</time>
</trkpt>
<trkpt lat="-27.3009241" lon="152.8444020">
<ele>47.582</ele>
<time>2017-01-10T23:30:06.849Z</time>
</trkpt>
<trkpt lat="-27.3011162" lon="152.8441637">
<ele>46.572</ele>
<time>2017-01-10T23:30:09.655Z</time>
</trkpt>
<trkpt lat="-27.3013935" lon="152.8439101">
<ele>44.977</ele>
<time>2017-01-10T23:30:15.281Z</time>
</trkpt>
<trkpt lat="-27.3015827" lon="152.8436990">
<ele>43.447</ele>
<time>2017-01-10T23:30:19.357Z</time>
</trkpt>
<trkpt lat="-27.3016499" lon="152.8435564">
<ele>42.374</ele>
<time>2017-01-10T23:30:20.581Z</time>
</trkpt>
<trkpt lat="-27.3016691" lon="152.8434168">
<ele>42.030</ele>
<time>2017-01-10T23:30:21.653Z</time>
</trkpt>
<trkpt lat="-27.3015834" lon="152.8433557">
<ele>42.579</ele>
<time>2017-01-10T23:30:22.431Z</time>
</trkpt>
<trkpt lat="-27.3013750" lon="152.8433596">
<ele>43.946</ele>
<time>2017-01-10T23:30:23.911Z</time>
</trkpt>
<trkpt lat="-27.3009527" lon="152.8434369">
<ele>45.776</ele>
<time>2017-01-10T23:30:26.827Z</time>
</trkpt>
<trkpt lat="-27.3006623" lon="152.8434308">
<ele>47.486</ele>
<time>2017-01-10T23:30:28.602Z</time>
</trkpt>
<trkpt lat="-27.3002196" lon="152.8434163">
<ele>48.430</ele>
<time>2017-01-10T23:30:31.125Z</time>
</trkpt>
<trkpt lat="-27.2996683" lon="152.8433262">
<ele>48.477</ele>
<time>2017-01-10T23:30:33.994Z</time>
</trkpt>
<trkpt lat="-27.2990460" lon="152.8431757">
<ele>48.282</ele>
<time>2017-01-10T23:30:37.033Z</time>
</trkpt>
<trkpt lat="-27.2984382" lon="152.8430346">
<ele>48.399</ele>
<time>2017-01-10T23:30:39.859Z</time>
</trkpt>
<trkpt lat="-27.2977975" lon="152.8428691">
<ele>48.802</ele>
<time>2017-01-10T23:30:42.769Z</time>
</trkpt>
<trkpt lat="-27.2971257" lon="152.8427258">
<ele>49.315</ele>
<time>2017-01-10T23:30:45.736Z</time>
</trkpt>
<trkpt lat="-27.2966794" lon="152.8426124">
<ele>49.813</ele>
<time>2017-01-10T23:30:47.695Z</time>
</trkpt>
<trkpt lat="-27.2962145" lon="152.8425207">
<ele>50.079</ele>
<time>2017-01-10T23:30:49.713Z</time>
</trkpt>
<trkpt lat="-27.2955308" lon="152.8423626">
<ele>50.049</ele>
<time>2017-01-10T23:30:52.687Z</time>
</trkpt>
<trkpt lat="-27.2948513" lon="152.8422201">
<ele>49.879</ele>
<time>2017-01-10T23:30:55.604Z</time>
</trkpt>
<trkpt lat="-27.2941587" lon="152.8421288">
<ele>49.693</ele>
<time>2017-01-10T23:30:58.510Z</time>
</trkpt>
<trkpt lat="-27.2934199" lon="152.8420894">
<ele>49.534</ele>
<time>2017-01-10T23:31:01.540Z</time>
</trkpt>
<trkpt lat="-27.2929375" lon="152.8420858">
<ele>49.356</ele>
<time>2017-01-10T23:31:03.478Z</time>
</trkpt>
<trkpt lat="-27.2922053" lon="152.8421399">
<ele>49.092</ele>
<time>2017-01-10T23:31:06.229Z</time>
</trkpt>
<trkpt lat="-27.2916793" lon="152.8422146">
<ele>48.830</ele>
<time>2017-01-10T23:31:08.125Z</time>
</trkpt>
<trkpt lat="-27.2908346" lon="152.8424022">
<ele>48.935</ele>
<time>2017-01-10T23:31:10.968Z</time>
</trkpt>
<trkpt lat="-27.2899291" lon="152.8426279">
<ele>50.043</ele>
<time>2017-01-10T23:31:13.970Z</time>
</trkpt>
<trkpt lat="-27.2890187" lon="152.8428406">
<ele>52.021</ele>
<time>2017-01-10T23:31:17.274Z</time>
</trkpt>
<trkpt lat="-27.2884659" lon="152.8429671">
<ele>53.418</ele>
<time>2017-01-10T23:31:19.443Z</time>
</trkpt>
<trkpt lat="-27.2877289" lon="152.8431550">
<ele>52.864</ele>
<time>2017-01-10T23:31:22.612Z</time>
</trkpt>
<trkpt lat="-27.2872709" lon="152.8432701">
<ele>50.569</ele>
<time>2017-01-10T23:31:24.617Z</time>
</trkpt>
<trkpt lat="-27.2866105" lon="152.8434432">
<ele>47.871</ele>
<time>2017-01-10T23:31:27.516Z</time>
</trkpt>
<trkpt lat="-27.2861586" lon="152.8435914">
<ele>45.893</ele>
<time>2017-01-10T23:31:29.536Z</time>
</trkpt>
<trkpt lat="-27.2854955" lon="152.8438579">
<ele>44.912</ele>
<time>2017-01-10T23:31:32.614Z</time>
</trkpt>
<trkpt lat="-27.2848712" lon="152.8441534">
<ele>44.575</ele>
<time>2017-01-10T23:31:35.617Z</time>
</trkpt>
<trkpt lat="-27.2842491" lon="152.8444724">
<ele>44.042</ele>
<time>2017-01-10T23:31:38.614Z</time>
</trkpt>
<trkpt lat="-27.2838338" lon="152.8446880">
<ele>42.861</ele>
<time>2017-01-10T23:31:40.588Z</time>
</trkpt>
<trkpt lat="-27.2832018" lon="152.8450274">
<ele>41.543</ele>
<time>2017-01-10T23:31:43.524Z</time>
</trkpt>
<trkpt lat="-27.2827617" lon="152.8452604">
<ele>40.948</ele>
<time>2017-01-10T23:31:45.560Z</time>
</trkpt>
<trkpt lat="-27.2823407" lon="152.8455019">
<ele>41.302</ele>
<time>2017-01-10T23:31:47.549Z</time>
</trkpt>
<trkpt lat="-27.2817045" lon="152.8458400">
<ele>42.238</ele>
<time>2017-01-10T23:31:50.547Z</time>
</trkpt>
<trkpt lat="-27.2810755" lon="152.8461783">
<ele>43.222</ele>
<time>2017-01-10T23:31:53.526Z</time>
</trkpt>
<trkpt lat="-27.2806556" lon="152.8463995">
<ele>43.867</ele>
<time>2017-01-10T23:31:55.484Z</time>
</trkpt>
<trkpt lat="-27.2800268" lon="152.8467505">
<ele>44.225</ele>
<time>2017-01-10T23:31:58.375Z</time>
</trkpt>
<trkpt lat="-27.2793719" lon="152.8471159">
<ele>44.584</ele>
<time>2017-01-10T23:32:01.338Z</time>
</trkpt>
<trkpt lat="-27.2789253" lon="152.8473622">
<ele>45.296</ele>
<time>2017-01-10T23:32:03.372Z</time>
</trkpt>
<trkpt lat="-27.2784771" lon="152.8475946">
<ele>46.667</ele>
<time>2017-01-10T23:32:05.414Z</time>
</trkpt>
<trkpt lat="-27.2778159" lon="152.8479362">
<ele>48.345</ele>
<time>2017-01-10T23:32:08.510Z</time>
</trkpt>
<trkpt lat="-27.2771793" lon="152.8482285">
<ele>49.571</ele>
<time>2017-01-10T23:32:11.459Z</time>
</trkpt>
<trkpt lat="-27.2765460" lon="152.8485172">
<ele>50.069</ele>
<time>2017-01-10T23:32:14.326Z</time>
</trkpt>
<trkpt lat="-27.2758647" lon="152.8487675">
<ele>50.056</ele>
<time>2017-01-10T23:32:17.244Z</time>
</trkpt>
<trkpt lat="-27.2751379" lon="152.8489958">
<ele>49.884</ele>
<time>2017-01-10T23:32:20.200Z</time>
</trkpt>
<trkpt lat="-27.2743861" lon="152.8492138">
<ele>49.788</ele>
<time>2017-01-10T23:32:23.206Z</time>
</trkpt>
<trkpt lat="-27.2736316" lon="152.8494042">
<ele>49.750</ele>
<time>2017-01-10T23:32:26.289Z</time>
</trkpt>
<trkpt lat="-27.2728919" lon="152.8495487">
<ele>49.645</ele>
<time>2017-01-10T23:32:29.411Z</time>
</trkpt>
<trkpt lat="-27.2724174" lon="152.8496390">
<ele>48.929</ele>
<time>2017-01-10T23:32:31.455Z</time>
</trkpt>
<trkpt lat="-27.2717383" lon="152.8497616">
<ele>47.354</ele>
<time>2017-01-10T23:32:34.409Z</time>
</trkpt>
<trkpt lat="-27.2712768" lon="152.8498433">
<ele>45.852</ele>
<time>2017-01-10T23:32:36.404Z</time>
</trkpt>
<trkpt lat="-27.2708060" lon="152.8499275">
<ele>45.414</ele>
<time>2017-01-10T23:32:38.440Z</time>
</trkpt>
<trkpt lat="-27.2703490" lon="152.8500132">
<ele>45.826</ele>
<time>2017-01-10T23:32:40.414Z</time>
</trkpt>
<trkpt lat="-27.2696650" lon="152.8501450">
<ele>46.459</ele>
<time>2017-01-10T23:32:43.292Z</time>
</trkpt>
<trkpt lat="-27.2692018" lon="152.8502399">
<ele>47.106</ele>
<time>2017-01-10T23:32:45.204Z</time>
</trkpt>
<trkpt lat="-27.2684628" lon="152.8503762">
<ele>48.179</ele>
<time>2017-01-10T23:32:48.228Z</time>
</trkpt>
<trkpt lat="-27.2677428" lon="152.8505006">
<ele>49.688</ele>
<time>2017-01-10T23:32:51.229Z</time>
</trkpt>
<trkpt lat="-27.2672716" lon="152.8505897">
<ele>51.146</ele>
<time>2017-01-10T23:32:53.214Z</time>
</trkpt>
<trkpt lat="-27.2667998" lon="152.8506714">
<ele>52.335</ele>
<time>2017-01-10T23:32:55.201Z</time>
</trkpt>
<trkpt lat="-27.2660809" lon="152.8507907">
<ele>53.366</ele>
<time>2017-01-10T23:32:58.236Z</time>
</trkpt>
<trkpt lat="-27.2653624" lon="152.8509203">
<ele>54.299</ele>
<time>2017-01-10T23:33:01.331Z</time>
</trkpt>
<trkpt lat="-27.2647004" lon="152.8510819">
<ele>55.064</ele>
<time>2017-01-10T23:33:04.174Z</time>
</trkpt>
<trkpt lat="-27.2642158" lon="152.8511729">
<ele>55.253</ele>
<time>2017-01-10T23:33:06.185Z</time>
</trkpt>
<trkpt lat="-27.2637555" lon="152.8512584">
<ele>54.723</ele>
<time>2017-01-10T23:33:08.083Z</time>
</trkpt>
<trkpt lat="-27.2630467" lon="152.8514028">
<ele>53.763</ele>
<time>2017-01-10T23:33:11.040Z</time>
</trkpt>
<trkpt lat="-27.2625771" lon="152.8515024">
<ele>52.076</ele>
<time>2017-01-10T23:33:13.016Z</time>
</trkpt>
<trkpt lat="-27.2618681" lon="152.8516261">
<ele>49.096</ele>
<time>2017-01-10T23:33:15.969Z</time>
</trkpt>
<trkpt lat="-27.2614023" lon="152.8516765">
<ele>45.548</ele>
<time>2017-01-10T23:33:17.906Z</time>
</trkpt>
<trkpt lat="-27.2609184" lon="152.8517045">
<ele>42.871</ele>
<time>2017-01-10T23:33:19.922Z</time>
</trkpt>
<trkpt lat="-27.2602138" lon="152.8516967">
<ele>41.624</ele>
<time>2017-01-10T23:33:22.932Z</time>
</trkpt>
<trkpt lat="-27.2595465" lon="152.8516160">
<ele>41.445</ele>
<time>2017-01-10T23:33:25.910Z</time>
</trkpt>
<trkpt lat="-27.2591033" lon="152.8515351">
<ele>41.913</ele>
<time>2017-01-10T23:33:27.919Z</time>
</trkpt>
<trkpt lat="-27.2584423" lon="152.8513522">
<ele>42.701</ele>
<time>2017-01-10T23:33:31.031Z</time>
</trkpt>
<trkpt lat="-27.2580314" lon="152.8512046">
<ele>43.355</ele>
<time>2017-01-10T23:33:33.025Z</time>
</trkpt>
<trkpt lat="-27.2574210" lon="152.8509585">
<ele>43.661</ele>
<time>2017-01-10T23:33:35.996Z</time>
</trkpt>
<trkpt lat="-27.2570207" lon="152.8507539">
<ele>43.797</ele>
<time>2017-01-10T23:33:37.967Z</time>
</trkpt>
<trkpt lat="-27.2566213" lon="152.8505369">
<ele>43.956</ele>
<time>2017-01-10T23:33:39.914Z</time>
</trkpt>
<trkpt lat="-27.2562319" lon="152.8502702">
<ele>44.336</ele>
<time>2017-01-10T23:33:41.898Z</time>
</trkpt>
<trkpt lat="-27.2556321" lon="152.8498573">
<ele>45.074</ele>
<time>2017-01-10T23:33:44.949Z</time>
</trkpt>
<trkpt lat="-27.2550784" lon="152.8493895">
<ele>45.935</ele>
<time>2017-01-10T23:33:47.984Z</time>
</trkpt>
<trkpt lat="-27.2547608" lon="152.8490278">
<ele>46.357</ele>
<time>2017-01-10T23:33:49.970Z</time>
</trkpt>
<trkpt lat="-27.2542884" lon="152.8484630">
<ele>45.879</ele>
<time>2017-01-10T23:33:52.961Z</time>
</trkpt>
<trkpt lat="-27.2538676" lon="152.8478247">
<ele>44.589</ele>
<time>2017-01-10T23:33:55.986Z</time>
</trkpt>
<trkpt lat="-27.2534280" lon="152.8472040">
<ele>43.085</ele>
<time>2017-01-10T23:33:59.040Z</time>
</trkpt>
<trkpt lat="-27.2529891" lon="152.8466094">
<ele>41.948</ele>
<time>2017-01-10T23:34:02.069Z</time>
</trkpt>
<trkpt lat="-27.2525658" lon="152.8460182">
<ele>41.325</ele>
<time>2017-01-10T23:34:05.077Z</time>
</trkpt>
<trkpt lat="-27.2521454" lon="152.8454419">
<ele>40.765</ele>
<time>2017-01-10T23:34:08.072Z</time>
</trkpt>
<trkpt lat="-27.2518711" lon="152.8450487">
<ele>39.903</ele>
<time>2017-01-10T23:34:10.083Z</time>
</trkpt>
<trkpt lat="-27.2514709" lon="152.8444672">
<ele>39.106</ele>
<time>2017-01-10T23:34:12.967Z</time>
</trkpt>
<trkpt lat="-27.2511106" lon="152.8438193">
<ele>38.819</ele>
<time>2017-01-10T23:34:15.857Z</time>
</trkpt>
<trkpt lat="-27.2507777" lon="152.8431060">
<ele>39.283</ele>
<time>2017-01-10T23:34:18.885Z</time>
</trkpt>
<trkpt lat="-27.2506073" lon="152.8426210">
<ele>40.784</ele>
<time>2017-01-10T23:34:20.838Z</time>
</trkpt>
<trkpt lat="-27.2504066" lon="152.8418627">
<ele>43.064</ele>
<time>2017-01-10T23:34:23.800Z</time>
</trkpt>
<trkpt lat="-27.2502730" lon="152.8410841">
<ele>45.750</ele>
<time>2017-01-10T23:34:26.797Z</time>
</trkpt>
<trkpt lat="-27.2501768" lon="152.8405704">
<ele>48.849</ele>
<time>2017-01-10T23:34:28.788Z</time>
</trkpt>
<trkpt lat="-27.2500170" lon="152.8398162">
<ele>52.008</ele>
<time>2017-01-10T23:34:31.893Z</time>
</trkpt>
<trkpt lat="-27.2499041" lon="152.8393448">
<ele>54.379</ele>
<time>2017-01-10T23:34:33.999Z</time>
</trkpt>
<trkpt lat="-27.2497573" lon="152.8389453">
<ele>55.120</ele>
<time>2017-01-10T23:34:35.981Z</time>
</trkpt>
<trkpt lat="-27.2496131" lon="152.8385512">
<ele>53.985</ele>
<time>2017-01-10T23:34:38.083Z</time>
</trkpt>
<trkpt lat="-27.2494463" lon="152.8381901">
<ele>51.725</ele>
<time>2017-01-10T23:34:40.434Z</time>
</trkpt>
<trkpt lat="-27.2492979" lon="152.8378891">
<ele>49.280</ele>
<time>2017-01-10T23:34:42.786Z</time>
</trkpt>
<trkpt lat="-27.2490990" lon="152.8375157">
<ele>46.703</ele>
<time>2017-01-10T23:34:46.805Z</time>
</trkpt>
<trkpt lat="-27.2489207" lon="152.8372732">
<ele>43.282</ele>
<time>2017-01-10T23:34:50.162Z</time>
</trkpt>
<trkpt lat="-27.2488861" lon="152.8371069">
<ele>38.990</ele>
<time>2017-01-10T23:34:51.846Z</time>
</trkpt>
<trkpt lat="-27.2489432" lon="152.8369269">
<ele>35.235</ele>
<time>2017-01-10T23:34:53.459Z</time>
</trkpt>
<trkpt lat="-27.2490065" lon="152.8366263">
<ele>33.258</ele>
<time>2017-01-10T23:34:55.700Z</time>
</trkpt>
<trkpt lat="-27.2490079" lon="152.8363569">
<ele>33.007</ele>
<time>2017-01-10T23:34:57.523Z</time>
</trkpt>
<trkpt lat="-27.2489792" lon="152.8359001">
<ele>33.701</ele>
<time>2017-01-10T23:35:00.377Z</time>
</trkpt>
<trkpt lat="-27.2489569" lon="152.8355792">
<ele>34.656</ele>
<time>2017-01-10T23:35:02.363Z</time>
</trkpt>
<trkpt lat="-27.2489572" lon="152.8352569">
<ele>35.517</ele>
<time>2017-01-10T23:35:04.355Z</time>
</trkpt>
<trkpt lat="-27.2489473" lon="152.8347765">
<ele>36.302</ele>
<time>2017-01-10T23:35:07.324Z</time>
</trkpt>
<trkpt lat="-27.2488970" lon="152.8342992">
<ele>37.070</ele>
<time>2017-01-10T23:35:10.289Z</time>
</trkpt>
<trkpt lat="-27.2488468" lon="152.8339835">
<ele>37.781</ele>
<time>2017-01-10T23:35:12.297Z</time>
</trkpt>
<trkpt lat="-27.2487911" lon="152.8335078">
<ele>38.507</ele>
<time>2017-01-10T23:35:15.432Z</time>
</trkpt>
<trkpt lat="-27.2487654" lon="152.8330735">
<ele>39.287</ele>
<time>2017-01-10T23:35:18.352Z</time>
</trkpt>
<trkpt lat="-27.2488498" lon="152.8326697">
<ele>39.910</ele>
<time>2017-01-10T23:35:20.972Z</time>
</trkpt>
<trkpt lat="-27.2490228" lon="152.8323963">
<ele>40.368</ele>
<time>2017-01-10T23:35:23.001Z</time>
</trkpt>
<trkpt lat="-27.2492710" lon="152.8319760">
<ele>40.973</ele>
<time>2017-01-10T23:35:25.935Z</time>
</trkpt>
<trkpt lat="-27.2494759" lon="152.8315197">
<ele>41.845</ele>
<time>2017-01-10T23:35:28.841Z</time>
</trkpt>
<trkpt lat="-27.2496270" lon="152.8310152">
<ele>42.812</ele>
<time>2017-01-10T23:35:31.866Z</time>
</trkpt>
<trkpt lat="-27.2497442" lon="152.8304983">
<ele>43.623</ele>
<time>2017-01-10T23:35:34.966Z</time>
</trkpt>
<trkpt lat="-27.2498033" lon="152.8301615">
<ele>44.051</ele>
<time>2017-01-10T23:35:37.143Z</time>
</trkpt>
<trkpt lat="-27.2497966" lon="152.8298540">
<ele>44.055</ele>
<time>2017-01-10T23:35:39.203Z</time>
</trkpt>
<trkpt lat="-27.2496841" lon="152.8294261">
<ele>43.885</ele>
<time>2017-01-10T23:35:42.425Z</time>
</trkpt>
<trkpt lat="-27.2494217" lon="152.8291480">
<ele>43.810</ele>
<time>2017-01-10T23:35:45.379Z</time>
</trkpt>
<trkpt lat="-27.2491987" lon="152.8290529">
<ele>43.897</ele>
<time>2017-01-10T23:35:47.205Z</time>
</trkpt>
<trkpt lat="-27.2489654" lon="152.8289343">
<ele>43.956</ele>
<time>2017-01-10T23:35:49.107Z</time>
</trkpt>
<trkpt lat="-27.2487267" lon="152.8285408">
<ele>43.847</ele>
<time>2017-01-10T23:35:52.011Z</time>
</trkpt>
<trkpt lat="-27.2486363" lon="152.8280559">
<ele>44.029</ele>
<time>2017-01-10T23:35:54.923Z</time>
</trkpt>
<trkpt lat="-27.2486767" lon="152.8277062">
<ele>44.855</ele>
<time>2017-01-10T23:35:56.947Z</time>
</trkpt>
<trkpt lat="-27.2487651" lon="152.8271883">
<ele>45.818</ele>
<time>2017-01-10T23:35:59.887Z</time>
</trkpt>
<trkpt lat="-27.2488081" lon="152.8268250">
<ele>46.550</ele>
<time>2017-01-10T23:36:01.989Z</time>
</trkpt>
<trkpt lat="-27.2488373" lon="152.8264864">
<ele>47.191</ele>
<time>2017-01-10T23:36:03.979Z</time>
</trkpt>
<trkpt lat="-27.2488688" lon="152.8261496">
<ele>47.628</ele>
<time>2017-01-10T23:36:05.968Z</time>
</trkpt>
<trkpt lat="-27.2489214" lon="152.8256455">
<ele>47.746</ele>
<time>2017-01-10T23:36:09.030Z</time>
</trkpt>
<trkpt lat="-27.2489933" lon="152.8253295">
<ele>47.812</ele>
<time>2017-01-10T23:36:11.060Z</time>
</trkpt>
<trkpt lat="-27.2491592" lon="152.8249026">
<ele>48.060</ele>
<time>2017-01-10T23:36:14.068Z</time>
</trkpt>
<trkpt lat="-27.2493439" lon="152.8244924">
<ele>48.420</ele>
<time>2017-01-10T23:36:16.968Z</time>
</trkpt>
<trkpt lat="-27.2494329" lon="152.8240215">
<ele>48.829</ele>
<time>2017-01-10T23:36:19.803Z</time>
</trkpt>
<trkpt lat="-27.2494568" lon="152.8234874">
<ele>49.782</ele>
<time>2017-01-10T23:36:23.120Z</time>
</trkpt>
<trkpt lat="-27.2494088" lon="152.8232088">
<ele>52.389</ele>
<time>2017-01-10T23:36:24.902Z</time>
</trkpt>
<trkpt lat="-27.2492821" lon="152.8229453">
<ele>56.795</ele>
<time>2017-01-10T23:36:26.709Z</time>
</trkpt>
<trkpt lat="-27.2489645" lon="152.8225355">
<ele>61.633</ele>
<time>2017-01-10T23:36:29.636Z</time>
</trkpt>
<trkpt lat="-27.2487151" lon="152.8222601">
<ele>66.344</ele>
<time>2017-01-10T23:36:31.801Z</time>
</trkpt>
<trkpt lat="-27.2484772" lon="152.8220278">
<ele>71.348</ele>
<time>2017-01-10T23:36:33.865Z</time>
</trkpt>
<trkpt lat="-27.2482258" lon="152.8216536">
<ele>76.133</ele>
<time>2017-01-10T23:36:36.659Z</time>
</trkpt>
<trkpt lat="-27.2480391" lon="152.8213809">
<ele>79.903</ele>
<time>2017-01-10T23:36:38.703Z</time>
</trkpt>
<trkpt lat="-27.2477895" lon="152.8209557">
<ele>82.400</ele>
<time>2017-01-10T23:36:41.936Z</time>
</trkpt>
<trkpt lat="-27.2475478" lon="152.8206228">
<ele>83.347</ele>
<time>2017-01-10T23:36:44.704Z</time>
</trkpt>
<trkpt lat="-27.2471204" lon="152.8205036">
<ele>82.905</ele>
<time>2017-01-10T23:36:47.667Z</time>
</trkpt>
<trkpt lat="-27.2468058" lon="152.8205003">
<ele>81.943</ele>
<time>2017-01-10T23:36:49.784Z</time>
</trkpt>
<trkpt lat="-27.2463783" lon="152.8205913">
<ele>81.192</ele>
<time>2017-01-10T23:36:53.047Z</time>
</trkpt>
<trkpt lat="-27.2461510" lon="152.8207584">
<ele>80.854</ele>
<time>2017-01-10T23:36:55.219Z</time>
</trkpt>
<trkpt lat="-27.2459887" lon="152.8209348">
<ele>81.184</ele>
<time>2017-01-10T23:36:57.033Z</time>
</trkpt>
<trkpt lat="-27.2457206" lon="152.8212164">
<ele>82.451</ele>
<time>2017-01-10T23:36:59.956Z</time>
</trkpt>
<trkpt lat="-27.2453674" lon="152.8212703">
<ele>84.481</ele>
<time>2017-01-10T23:37:02.477Z</time>
</trkpt>
<trkpt lat="-27.2449128" lon="152.8211643">
<ele>86.904</ele>
<time>2017-01-10T23:37:05.466Z</time>
</trkpt>
<trkpt lat="-27.2446169" lon="152.8210927">
<ele>89.163</ele>
<time>2017-01-10T23:37:07.431Z</time>
</trkpt>
<trkpt lat="-27.2443214" lon="152.8209927">
<ele>90.472</ele>
<time>2017-01-10T23:37:09.568Z</time>
</trkpt>
<trkpt lat="-27.2440573" lon="152.8208673">
<ele>90.705</ele>
<time>2017-01-10T23:37:11.695Z</time>
</trkpt>
<trkpt lat="-27.2436682" lon="152.8207943">
<ele>90.466</ele>
<time>2017-01-10T23:37:14.679Z</time>
</trkpt>
<trkpt lat="-27.2434198" lon="152.8208995">
<ele>90.315</ele>
<time>2017-01-10T23:37:16.586Z</time>
</trkpt>
<trkpt lat="-27.2430980" lon="152.8212457">
<ele>90.571</ele>
<time>2017-01-10T23:37:19.556Z</time>
</trkpt>
<trkpt lat="-27.2427909" lon="152.8216646">
<ele>91.596</ele>
<time>2017-01-10T23:37:22.596Z</time>
</trkpt>
<trkpt lat="-27.2424203" lon="152.8220672">
<ele>93.276</ele>
<time>2017-01-10T23:37:25.884Z</time>
</trkpt>
<trkpt lat="-27.2422078" lon="152.8223480">
<ele>94.823</ele>
<time>2017-01-10T23:37:28.146Z</time>
</trkpt>
<trkpt lat="-27.2420022" lon="152.8225946">
<ele>95.855</ele>
<time>2017-01-10T23:37:30.300Z</time>
</trkpt>
<trkpt lat="-27.2416856" lon="152.8228779">
<ele>96.651</ele>
<time>2017-01-10T23:37:33.244Z</time>
</trkpt>
<trkpt lat="-27.2414076" lon="152.8229420">
<ele>97.305</ele>
<time>2017-01-10T23:37:35.249Z</time>
</trkpt>
<trkpt lat="-27.2411237" lon="152.8229581">
<ele>97.925</ele>
<time>2017-01-10T23:37:37.241Z</time>
</trkpt>
<trkpt lat="-27.2406743" lon="152.8229174">
<ele>98.755</ele>
<time>2017-01-10T23:37:40.580Z</time>
</trkpt>
<trkpt lat="-27.2404079" lon="152.8228814">
<ele>99.829</ele>
<time>2017-01-10T23:37:42.783Z</time>
</trkpt>
<trkpt lat="-27.2400238" lon="152.8228622">
<ele>100.858</ele>
<time>2017-01-10T23:37:46.408Z</time>
</trkpt>
<trkpt lat="-27.2397212" lon="152.8229254">
<ele>101.468</ele>
<time>2017-01-10T23:37:50.019Z</time>
</trkpt>
<trkpt lat="-27.2395435" lon="152.8230068">
<ele>101.558</ele>
<time>2017-01-10T23:37:53.394Z</time>
</trkpt>
<trkpt lat="-27.2393977" lon="152.8230825">
<ele>101.394</ele>
<time>2017-01-10T23:37:56.021Z</time>
</trkpt>
<trkpt lat="-27.2392982" lon="152.8231261">
<ele>101.207</ele>
<time>2017-01-10T23:37:57.085Z</time>
</trkpt>
<trkpt lat="-27.2392137" lon="152.8230435">
<ele>101.034</ele>
<time>2017-01-10T23:37:58.161Z</time>
</trkpt>
<trkpt lat="-27.2392400" lon="152.8228609">
<ele>100.870</ele>
<time>2017-01-10T23:37:59.481Z</time>
</trkpt>
<trkpt lat="-27.2392466" lon="152.8226021">
<ele>100.921</ele>
<time>2017-01-10T23:38:01.291Z</time>
</trkpt>
<trkpt lat="-27.2391548" lon="152.8221740">
<ele>101.616</ele>
<time>2017-01-10T23:38:04.077Z</time>
</trkpt>
<trkpt lat="-27.2389678" lon="152.8217277">
<ele>102.966</ele>
<time>2017-01-10T23:38:07.086Z</time>
</trkpt>
<trkpt lat="-27.2388545" lon="152.8214263">
<ele>104.285</ele>
<time>2017-01-10T23:38:09.081Z</time>
</trkpt>
<trkpt lat="-27.2387699" lon="152.8209248">
<ele>104.959</ele>
<time>2017-01-10T23:38:12.203Z</time>
</trkpt>
<trkpt lat="-27.2387390" lon="152.8204447">
<ele>105.031</ele>
<time>2017-01-10T23:38:15.202Z</time>
</trkpt>
<trkpt lat="-27.2387240" lon="152.8199748">
<ele>105.024</ele>
<time>2017-01-10T23:38:18.117Z</time>
</trkpt>
<trkpt lat="-27.2388167" lon="152.8195044">
<ele>105.817</ele>
<time>2017-01-10T23:38:20.977Z</time>
</trkpt>
<trkpt lat="-27.2389157" lon="152.8190108">
<ele>107.532</ele>
<time>2017-01-10T23:38:23.857Z</time>
</trkpt>
<trkpt lat="-27.2389460" lon="152.8186718">
<ele>108.905</ele>
<time>2017-01-10T23:38:25.779Z</time>
</trkpt>
<trkpt lat="-27.2390795" lon="152.8181779">
<ele>108.968</ele>
<time>2017-01-10T23:38:28.534Z</time>
</trkpt>
<trkpt lat="-27.2392205" lon="152.8178126">
<ele>108.236</ele>
<time>2017-01-10T23:38:30.651Z</time>
</trkpt>
<trkpt lat="-27.2393675" lon="152.8174903">
<ele>107.802</ele>
<time>2017-01-10T23:38:32.655Z</time>
</trkpt>
<trkpt lat="-27.2396080" lon="152.8170165">
<ele>108.121</ele>
<time>2017-01-10T23:38:36.086Z</time>
</trkpt>
<trkpt lat="-27.2397329" lon="152.8167413">
<ele>108.863</ele>
<time>2017-01-10T23:38:38.271Z</time>
</trkpt>
<trkpt lat="-27.2397854" lon="152.8164756">
<ele>109.896</ele>
<time>2017-01-10T23:38:40.199Z</time>
</trkpt>
<trkpt lat="-27.2396244" lon="152.8160597">
<ele>111.431</ele>
<time>2017-01-10T23:38:43.207Z</time>
</trkpt>
<trkpt lat="-27.2394008" lon="152.8156701">
<ele>113.436</ele>
<time>2017-01-10T23:38:46.204Z</time>
</trkpt>
<trkpt lat="-27.2391878" lon="152.8154670">
<ele>115.557</ele>
<time>2017-01-10T23:38:48.234Z</time>
</trkpt>
<trkpt lat="-27.2389175" lon="152.8151490">
<ele>117.516</ele>
<time>2017-01-10T23:38:50.909Z</time>
</trkpt>
<trkpt lat="-27.2387885" lon="152.8148470">
<ele>119.152</ele>
<time>2017-01-10T23:38:52.833Z</time>
</trkpt>
<trkpt lat="-27.2386090" lon="152.8143434">
<ele>120.199</ele>
<time>2017-01-10T23:38:55.930Z</time>
</trkpt>
<trkpt lat="-27.2383955" lon="152.8138719">
<ele>120.542</ele>
<time>2017-01-10T23:38:59.351Z</time>
</trkpt>
<trkpt lat="-27.2382946" lon="152.8135928">
<ele>120.671</ele>
<time>2017-01-10T23:39:01.578Z</time>
</trkpt>
<trkpt lat="-27.2382027" lon="152.8133450">
<ele>121.098</ele>
<time>2017-01-10T23:39:03.656Z</time>
</trkpt>
<trkpt lat="-27.2380861" lon="152.8129946">
<ele>121.759</ele>
<time>2017-01-10T23:39:06.582Z</time>
</trkpt>
<trkpt lat="-27.2379641" lon="152.8127753">
<ele>122.253</ele>
<time>2017-01-10T23:39:08.494Z</time>
</trkpt>
<trkpt lat="-27.2376183" lon="152.8126205">
<ele>122.433</ele>
<time>2017-01-10T23:39:11.294Z</time>
</trkpt>
<trkpt lat="-27.2373388" lon="152.8126041">
<ele>122.326</ele>
<time>2017-01-10T23:39:13.365Z</time>
</trkpt>
<trkpt lat="-27.2369969" lon="152.8127411">
<ele>121.781</ele>
<time>2017-01-10T23:39:15.988Z</time>
</trkpt>
<trkpt lat="-27.2366748" lon="152.8130738">
<ele>120.739</ele>
<time>2017-01-10T23:39:18.897Z</time>
</trkpt>
<trkpt lat="-27.2363841" lon="152.8134577">
<ele>119.297</ele>
<time>2017-01-10T23:39:21.728Z</time>
</trkpt>
<trkpt lat="-27.2361450" lon="152.8137100">
<ele>117.010</ele>
<time>2017-01-10T23:39:23.722Z</time>
</trkpt>
<trkpt lat="-27.2357666" lon="152.8140869">
<ele>113.576</ele>
<time>2017-01-10T23:39:26.853Z</time>
</trkpt>
<trkpt lat="-27.2355420" lon="152.8143050">
<ele>109.537</ele>
<time>2017-01-10T23:39:28.841Z</time>
</trkpt>
<trkpt lat="-27.2353057" lon="152.8144910">
<ele>105.673</ele>
<time>2017-01-10T23:39:30.866Z</time>
</trkpt>
<trkpt lat="-27.2350393" lon="152.8146160">
<ele>102.746</ele>
<time>2017-01-10T23:39:32.896Z</time>
</trkpt>
<trkpt lat="-27.2347670" lon="152.8146780">
<ele>101.073</ele>
<time>2017-01-10T23:39:34.813Z</time>
</trkpt>
<trkpt lat="-27.2344809" lon="152.8145861">
<ele>99.989</ele>
<time>2017-01-10T23:39:36.842Z</time>
</trkpt>
<trkpt lat="-27.2340439" lon="152.8145325">
<ele>98.805</ele>
<time>2017-01-10T23:39:39.738Z</time>
</trkpt>
<trkpt lat="-27.2337431" lon="152.8145385">
<ele>97.530</ele>
<time>2017-01-10T23:39:41.635Z</time>
</trkpt>
<trkpt lat="-27.2334197" lon="152.8145866">
<ele>96.550</ele>
<time>2017-01-10T23:39:43.648Z</time>
</trkpt>
<trkpt lat="-27.2329475" lon="152.8147263">
<ele>96.104</ele>
<time>2017-01-10T23:39:46.672Z</time>
</trkpt>
<trkpt lat="-27.2325295" lon="152.8149492">
<ele>96.114</ele>
<time>2017-01-10T23:39:49.592Z</time>
</trkpt>
<trkpt lat="-27.2322301" lon="152.8150574">
<ele>96.411</ele>
<time>2017-01-10T23:39:51.613Z</time>
</trkpt>
<trkpt lat="-27.2317560" lon="152.8150741">
<ele>96.857</ele>
<time>2017-01-10T23:39:54.707Z</time>
</trkpt>
<trkpt lat="-27.2313096" lon="152.8150309">
<ele>97.228</ele>
<time>2017-01-10T23:39:57.645Z</time>
</trkpt>
<trkpt lat="-27.2310162" lon="152.8150340">
<ele>96.810</ele>
<time>2017-01-10T23:39:59.538Z</time>
</trkpt>
<trkpt lat="-27.2305461" lon="152.8151120">
<ele>94.887</ele>
<time>2017-01-10T23:40:02.439Z</time>
</trkpt>
<trkpt lat="-27.2302124" lon="152.8151502">
<ele>91.815</ele>
<time>2017-01-10T23:40:04.397Z</time>
</trkpt>
<trkpt lat="-27.2298785" lon="152.8152169">
<ele>88.712</ele>
<time>2017-01-10T23:40:06.366Z</time>
</trkpt>
<trkpt lat="-27.2295350" lon="152.8152682">
<ele>86.078</ele>
<time>2017-01-10T23:40:08.406Z</time>
</trkpt>
<trkpt lat="-27.2292024" lon="152.8153260">
<ele>83.717</ele>
<time>2017-01-10T23:40:10.426Z</time>
</trkpt>
<trkpt lat="-27.2288627" lon="152.8153852">
<ele>81.623</ele>
<time>2017-01-10T23:40:12.519Z</time>
</trkpt>
<trkpt lat="-27.2283935" lon="152.8154235">
<ele>80.241</ele>
<time>2017-01-10T23:40:15.448Z</time>
</trkpt>
<trkpt lat="-27.2280743" lon="152.8154780">
<ele>80.016</ele>
<time>2017-01-10T23:40:17.580Z</time>
</trkpt>
<trkpt lat="-27.2276576" lon="152.8155510">
<ele>80.991</ele>
<time>2017-01-10T23:40:20.539Z</time>
</trkpt>
<trkpt lat="-27.2272327" lon="152.8156561">
<ele>82.461</ele>
<time>2017-01-10T23:40:23.653Z</time>
</trkpt>
<trkpt lat="-27.2268336" lon="152.8157678">
<ele>83.273</ele>
<time>2017-01-10T23:40:26.646Z</time>
</trkpt>
<trkpt lat="-27.2264585" lon="152.8156858">
<ele>82.578</ele>
<time>2017-01-10T23:40:29.462Z</time>
</trkpt>
<trkpt lat="-27.2260988" lon="152.8154968">
<ele>80.158</ele>
<time>2017-01-10T23:40:32.447Z</time>
</trkpt>
<trkpt lat="-27.2258587" lon="152.8153850">
<ele>76.710</ele>
<time>2017-01-10T23:40:34.482Z</time>
</trkpt>
<trkpt lat="-27.2255232" lon="152.8152119">
<ele>73.486</ele>
<time>2017-01-10T23:40:37.337Z</time>
</trkpt>
<trkpt lat="-27.2252829" lon="152.8151143">
<ele>71.155</ele>
<time>2017-01-10T23:40:39.164Z</time>
</trkpt>
<trkpt lat="-27.2248791" lon="152.8149646">
<ele>69.421</ele>
<time>2017-01-10T23:40:42.010Z</time>
</trkpt>
<trkpt lat="-27.2244341" lon="152.8148215">
<ele>67.376</ele>
<time>2017-01-10T23:40:44.941Z</time>
</trkpt>
<trkpt lat="-27.2241471" lon="152.8147118">
<ele>64.351</ele>
<time>2017-01-10T23:40:46.819Z</time>
</trkpt>
<trkpt lat="-27.2238304" lon="152.8146155">
<ele>61.039</ele>
<time>2017-01-10T23:40:48.845Z</time>
</trkpt>
<trkpt lat="-27.2233525" lon="152.8145299">
<ele>58.547</ele>
<time>2017-01-10T23:40:51.789Z</time>
</trkpt>
<trkpt lat="-27.2228461" lon="152.8144264">
<ele>56.848</ele>
<time>2017-01-10T23:40:54.920Z</time>
</trkpt>
<trkpt lat="-27.2225401" lon="152.8143504">
<ele>55.601</ele>
<time>2017-01-10T23:40:56.960Z</time>
</trkpt>
<trkpt lat="-27.2221674" lon="152.8140793">
<ele>54.840</ele>
<time>2017-01-10T23:40:59.870Z</time>
</trkpt>
<trkpt lat="-27.2219784" lon="152.8138042">
<ele>54.491</ele>
<time>2017-01-10T23:41:01.830Z</time>
</trkpt>
<trkpt lat="-27.2217939" lon="152.8135122">
<ele>55.046</ele>
<time>2017-01-10T23:41:03.931Z</time>
</trkpt>
<trkpt lat="-27.2215100" lon="152.8131343">
<ele>57.557</ele>
<time>2017-01-10T23:41:06.989Z</time>
</trkpt>
<trkpt lat="-27.2213596" lon="152.8128996">
<ele>62.299</ele>
<time>2017-01-10T23:41:08.874Z</time>
</trkpt>
<trkpt lat="-27.2210557" lon="152.8125763">
<ele>67.637</ele>
<time>2017-01-10T23:41:12.085Z</time>
</trkpt>
<trkpt lat="-27.2207101" lon="152.8124458">
<ele>70.466</ele>
<time>2017-01-10T23:41:15.110Z</time>
</trkpt>
<trkpt lat="-27.2204700" lon="152.8124861">
<ele>68.771</ele>
<time>2017-01-10T23:41:17.249Z</time>
</trkpt>
<trkpt lat="-27.2202517" lon="152.8124407">
<ele>63.828</ele>
<time>2017-01-10T23:41:19.284Z</time>
</trkpt>
<trkpt lat="-27.2200409" lon="152.8121973">
<ele>58.574</ele>
<time>2017-01-10T23:41:21.939Z</time>
</trkpt>
<trkpt lat="-27.2198543" lon="152.8120004">
<ele>54.547</ele>
<time>2017-01-10T23:41:23.889Z</time>
</trkpt>
<trkpt lat="-27.2196561" lon="152.8117642">
<ele>51.480</ele>
<time>2017-01-10T23:41:25.951Z</time>
</trkpt>
<trkpt lat="-27.2194746" lon="152.8115163">
<ele>49.145</ele>
<time>2017-01-10T23:41:28.034Z</time>
</trkpt>
<trkpt lat="-27.2192962" lon="152.8111178">
<ele>47.763</ele>
<time>2017-01-10T23:41:31.018Z</time>
</trkpt>
<trkpt lat="-27.2192385" lon="152.8108323">
<ele>47.257</ele>
<time>2017-01-10T23:41:32.966Z</time>
</trkpt>
<trkpt lat="-27.2192017" lon="152.8105314">
<ele>47.253</ele>
<time>2017-01-10T23:41:34.998Z</time>
</trkpt>
<trkpt lat="-27.2192253" lon="152.8100972">
<ele>47.635</ele>
<time>2017-01-10T23:41:37.916Z</time>
</trkpt>
<trkpt lat="-27.2193000" lon="152.8096452">
<ele>48.430</ele>
<time>2017-01-10T23:41:40.965Z</time>
</trkpt>
<trkpt lat="-27.2193233" lon="152.8091951">
<ele>49.818</ele>
<time>2017-01-10T23:41:43.982Z</time>
</trkpt>
<trkpt lat="-27.2193111" lon="152.8089099">
<ele>52.561</ele>
<time>2017-01-10T23:41:45.954Z</time>
</trkpt>
<trkpt lat="-27.2191622" lon="152.8086511">
<ele>57.058</ele>
<time>2017-01-10T23:41:48.224Z</time>
</trkpt>
<trkpt lat="-27.2190954" lon="152.8084095">
<ele>62.437</ele>
<time>2017-01-10T23:41:50.358Z</time>
</trkpt>
<trkpt lat="-27.2190617" lon="152.8081964">
<ele>67.604</ele>
<time>2017-01-10T23:41:52.506Z</time>
</trkpt>
<trkpt lat="-27.2189970" lon="152.8079346">
<ele>71.934</ele>
<time>2017-01-10T23:41:56.022Z</time>
</trkpt>
<trkpt lat="-27.2189702" lon="152.8078038">
<ele>75.050</ele>
<time>2017-01-10T23:41:58.206Z</time>
</trkpt>
<trkpt lat="-27.2189136" lon="152.8076602">
<ele>76.907</ele>
<time>2017-01-10T23:42:00.601Z</time>
</trkpt>
<trkpt lat="-27.2188111" lon="152.8076279">
<ele>77.883</ele>
<time>2017-01-10T23:42:01.903Z</time>
</trkpt>
<trkpt lat="-27.2185346" lon="152.8077254">
<ele>78.620</ele>
<time>2017-01-10T23:42:04.685Z</time>
</trkpt>
<trkpt lat="-27.2182955" lon="152.8078240">
<ele>80.036</ele>
<time>2017-01-10T23:42:06.593Z</time>
</trkpt>
<trkpt lat="-27.2180265" lon="152.8079109">
<ele>82.262</ele>
<time>2017-01-10T23:42:08.487Z</time>
</trkpt>
<trkpt lat="-27.2175569" lon="152.8080011">
<ele>83.533</ele>
<time>2017-01-10T23:42:11.645Z</time>
</trkpt>
<trkpt lat="-27.2172631" lon="152.8080534">
<ele>81.775</ele>
<time>2017-01-10T23:42:13.747Z</time>
</trkpt>
<trkpt lat="-27.2170040" lon="152.8081036">
<ele>77.302</ele>
<time>2017-01-10T23:42:15.808Z</time>
</trkpt>
<trkpt lat="-27.2166562" lon="152.8081673">
<ele>72.513</ele>
<time>2017-01-10T23:42:18.712Z</time>
</trkpt>
<trkpt lat="-27.2163068" lon="152.8082165">
<ele>69.444</ele>
<time>2017-01-10T23:42:21.676Z</time>
</trkpt>
<trkpt lat="-27.2160654" lon="152.8082152">
<ele>68.351</ele>
<time>2017-01-10T23:42:23.719Z</time>
</trkpt>
<trkpt lat="-27.2157344" lon="152.8083011">
<ele>68.304</ele>
<time>2017-01-10T23:42:26.554Z</time>
</trkpt>
<trkpt lat="-27.2155299" lon="152.8084532">
<ele>68.147</ele>
<time>2017-01-10T23:42:28.461Z</time>
</trkpt>
<trkpt lat="-27.2152917" lon="152.8086247">
<ele>67.073</ele>
<time>2017-01-10T23:42:30.521Z</time>
</trkpt>
<trkpt lat="-27.2150471" lon="152.8087967">
<ele>64.990</ele>
<time>2017-01-10T23:42:32.518Z</time>
</trkpt>
<trkpt lat="-27.2148089" lon="152.8089748">
<ele>62.600</ele>
<time>2017-01-10T23:42:34.475Z</time>
</trkpt>
<trkpt lat="-27.2144388" lon="152.8092207">
<ele>60.456</ele>
<time>2017-01-10T23:42:37.433Z</time>
</trkpt>
<trkpt lat="-27.2140671" lon="152.8094681">
<ele>58.550</ele>
<time>2017-01-10T23:42:40.434Z</time>
</trkpt>
<trkpt lat="-27.2138346" lon="152.8096384">
<ele>56.807</ele>
<time>2017-01-10T23:42:42.382Z</time>
</trkpt>
<trkpt lat="-27.2134884" lon="152.8099026">
<ele>54.983</ele>
<time>2017-01-10T23:42:45.313Z</time>
</trkpt>
<trkpt lat="-27.2132803" lon="152.8101270">
<ele>53.006</ele>
<time>2017-01-10T23:42:47.280Z</time>
</trkpt>
<trkpt lat="-27.2130679" lon="152.8103688">
<ele>51.274</ele>
<time>2017-01-10T23:42:49.236Z</time>
</trkpt>
<trkpt lat="-27.2128504" lon="152.8106438">
<ele>49.909</ele>
<time>2017-01-10T23:42:51.255Z</time>
</trkpt>
<trkpt lat="-27.2125586" lon="152.8110826">
<ele>48.755</ele>
<time>2017-01-10T23:42:54.207Z</time>
</trkpt>
<trkpt lat="-27.2123966" lon="152.8114120">
<ele>47.756</ele>
<time>2017-01-10T23:42:56.247Z</time>
</trkpt>
<trkpt lat="-27.2122379" lon="152.8117156">
<ele>46.893</ele>
<time>2017-01-10T23:42:58.327Z</time>
</trkpt>
<trkpt lat="-27.2120202" lon="152.8120869">
<ele>46.259</ele>
<time>2017-01-10T23:43:01.384Z</time>
</trkpt>
<trkpt lat="-27.2118424" lon="152.8121805">
<ele>45.400</ele>
<time>2017-01-10T23:43:03.181Z</time>
</trkpt>
<trkpt lat="-27.2115016" lon="152.8120655">
<ele>43.931</ele>
<time>2017-01-10T23:43:06.361Z</time>
</trkpt>
<trkpt lat="-27.2112906" lon="152.8119513">
<ele>42.607</ele>
<time>2017-01-10T23:43:08.430Z</time>
</trkpt>
<trkpt lat="-27.2109877" lon="152.8118708">
<ele>42.155</ele>
<time>2017-01-10T23:43:11.379Z</time>
</trkpt>
<trkpt lat="-27.2108026" lon="152.8118922">
<ele>42.020</ele>
<time>2017-01-10T23:43:13.348Z</time>
</trkpt>
<trkpt lat="-27.2105589" lon="152.8118595">
<ele>41.441</ele>
<time>2017-01-10T23:43:15.920Z</time>
</trkpt>
<trkpt lat="-27.2103692" lon="152.8117190">
<ele>40.501</ele>
<time>2017-01-10T23:43:17.964Z</time>
</trkpt>
<trkpt lat="-27.2102486" lon="152.8114338">
<ele>40.109</ele>
<time>2017-01-10T23:43:20.162Z</time>
</trkpt>
<trkpt lat="-27.2101531" lon="152.8111440">
<ele>41.294</ele>
<time>2017-01-10T23:43:22.268Z</time>
</trkpt>
<trkpt lat="-27.2101470" lon="152.8108653">
<ele>44.104</ele>
<time>2017-01-10T23:43:24.378Z</time>
</trkpt>
<trkpt lat="-27.2101529" lon="152.8105230">
<ele>47.386</ele>
<time>2017-01-10T23:43:27.554Z</time>
</trkpt>
<trkpt lat="-27.2101415" lon="152.8102942">
<ele>50.152</ele>
<time>2017-01-10T23:43:30.567Z</time>
</trkpt>
<trkpt lat="-27.2100357" lon="152.8102295">
<ele>52.298</ele>
<time>2017-01-10T23:43:32.621Z</time>
</trkpt>
<trkpt lat="-27.2099231" lon="152.8103761">
<ele>54.092</ele>
<time>2017-01-10T23:43:34.644Z</time>
</trkpt>
<trkpt lat="-27.2098241" lon="152.8106190">
<ele>55.812</ele>
<time>2017-01-10T23:43:36.510Z</time>
</trkpt>
<trkpt lat="-27.2096448" lon="152.8111001">
<ele>57.782</ele>
<time>2017-01-10T23:43:39.686Z</time>
</trkpt>
<trkpt lat="-27.2095339" lon="152.8114287">
<ele>60.405</ele>
<time>2017-01-10T23:43:41.795Z</time>
</trkpt>
<trkpt lat="-27.2094226" lon="152.8117112">
<ele>63.451</ele>
<time>2017-01-10T23:43:43.697Z</time>
</trkpt>
<trkpt lat="-27.2092368" lon="152.8121691">
<ele>66.009</ele>
<time>2017-01-10T23:43:46.754Z</time>
</trkpt>
<trkpt lat="-27.2090997" lon="152.8124616">
<ele>67.994</ele>
<time>2017-01-10T23:43:48.781Z</time>
</trkpt>
<trkpt lat="-27.2089155" lon="152.8128925">
<ele>70.118</ele>
<time>2017-01-10T23:43:51.863Z</time>
</trkpt>
<trkpt lat="-27.2088121" lon="152.8131340">
<ele>72.711</ele>
<time>2017-01-10T23:43:53.817Z</time>
</trkpt>
<trkpt lat="-27.2087195" lon="152.8133688">
<ele>75.412</ele>
<time>2017-01-10T23:43:55.741Z</time>
</trkpt>
<trkpt lat="-27.2086747" lon="152.8136319">
<ele>77.688</ele>
<time>2017-01-10T23:43:57.667Z</time>
</trkpt>
<trkpt lat="-27.2086795" lon="152.8140677">
<ele>79.623</ele>
<time>2017-01-10T23:44:00.740Z</time>
</trkpt>
<trkpt lat="-27.2086983" lon="152.8143414">
<ele>81.815</ele>
<time>2017-01-10T23:44:02.674Z</time>
</trkpt>
<trkpt lat="-27.2086903" lon="152.8146215">
<ele>84.115</ele>
<time>2017-01-10T23:44:04.611Z</time>
</trkpt>
<trkpt lat="-27.2085713" lon="152.8150494">
<ele>85.792</ele>
<time>2017-01-10T23:44:07.626Z</time>
</trkpt>
<trkpt lat="-27.2084084" lon="152.8152981">
<ele>86.585</ele>
<time>2017-01-10T23:44:09.613Z</time>
</trkpt>
<trkpt lat="-27.2082012" lon="152.8155180">
<ele>86.846</ele>
<time>2017-01-10T23:44:11.592Z</time>
</trkpt>
<trkpt lat="-27.2078726" lon="152.8158667">
<ele>87.084</ele>
<time>2017-01-10T23:44:14.641Z</time>
</trkpt>
<trkpt lat="-27.2076516" lon="152.8161011">
<ele>87.529</ele>
<time>2017-01-10T23:44:16.656Z</time>
</trkpt>
<trkpt lat="-27.2074516" lon="152.8163463">
<ele>87.700</ele>
<time>2017-01-10T23:44:18.619Z</time>
</trkpt>
<trkpt lat="-27.2072046" lon="152.8165543">
<ele>87.061</ele>
<time>2017-01-10T23:44:20.695Z</time>
</trkpt>
<trkpt lat="-27.2068277" lon="152.8168065">
<ele>85.541</ele>
<time>2017-01-10T23:44:23.653Z</time>
</trkpt>
<trkpt lat="-27.2064732" lon="152.8170869">
<ele>83.309</ele>
<time>2017-01-10T23:44:26.488Z</time>
</trkpt>
<trkpt lat="-27.2061809" lon="152.8175186">
<ele>80.872</ele>
<time>2017-01-10T23:44:29.505Z</time>
</trkpt>
<trkpt lat="-27.2059054" lon="152.8179697">
<ele>78.999</ele>
<time>2017-01-10T23:44:32.468Z</time>
</trkpt>
<trkpt lat="-27.2057050" lon="152.8182663">
<ele>78.057</ele>
<time>2017-01-10T23:44:34.577Z</time>
</trkpt>
<trkpt lat="-27.2054710" lon="152.8186805">
<ele>77.562</ele>
<time>2017-01-10T23:44:37.561Z</time>
</trkpt>
<trkpt lat="-27.2052597" lon="152.8190545">
<ele>76.652</ele>
<time>2017-01-10T23:44:40.474Z</time>
</trkpt>
<trkpt lat="-27.2050668" lon="152.8194231">
<ele>75.127</ele>
<time>2017-01-10T23:44:43.449Z</time>
</trkpt>
<trkpt lat="-27.2049239" lon="152.8196438">
<ele>73.182</ele>
<time>2017-01-10T23:44:45.445Z</time>
</trkpt>
<trkpt lat="-27.2047410" lon="152.8199852">
<ele>70.706</ele>
<time>2017-01-10T23:44:48.345Z</time>
</trkpt>
<trkpt lat="-27.2045279" lon="152.8203364">
<ele>67.591</ele>
<time>2017-01-10T23:44:51.367Z</time>
</trkpt>
<trkpt lat="-27.2043249" lon="152.8206910">
<ele>63.808</ele>
<time>2017-01-10T23:44:54.333Z</time>
</trkpt>
<trkpt lat="-27.2041062" lon="152.8210320">
<ele>59.231</ele>
<time>2017-01-10T23:44:57.335Z</time>
</trkpt>
<trkpt lat="-27.2039765" lon="152.8212466">
<ele>54.178</ele>
<time>2017-01-10T23:44:59.278Z</time>
</trkpt>
<trkpt lat="-27.2037765" lon="152.8215481">
<ele>49.679</ele>
<time>2017-01-10T23:45:02.206Z</time>
</trkpt>
<trkpt lat="-27.2035720" lon="152.8218057">
<ele>46.609</ele>
<time>2017-01-10T23:45:05.033Z</time>
</trkpt>
<trkpt lat="-27.2034351" lon="152.8219712">
<ele>45.009</ele>
<time>2017-01-10T23:45:07.001Z</time>
</trkpt>
<trkpt lat="-27.2032664" lon="152.8222258">
<ele>44.277</ele>
<time>2017-01-10T23:45:09.852Z</time>
</trkpt>
<trkpt lat="-27.2031336" lon="152.8223883">
<ele>43.771</ele>
<time>2017-01-10T23:45:11.832Z</time>
</trkpt>
<trkpt lat="-27.2029943" lon="152.8225697">
<ele>43.306</ele>
<time>2017-01-10T23:45:13.992Z</time>
</trkpt>
<trkpt lat="-27.2027969" lon="152.8228197">
<ele>43.013</ele>
<time>2017-01-10T23:45:17.081Z</time>
</trkpt>
<trkpt lat="-27.2026099" lon="152.8230702">
<ele>42.824</ele>
<time>2017-01-10T23:45:20.166Z</time>
</trkpt>
<trkpt lat="-27.2024358" lon="152.8233116">
<ele>42.584</ele>
<time>2017-01-10T23:45:23.155Z</time>
</trkpt>
<trkpt lat="-27.2023174" lon="152.8234540">
<ele>42.345</ele>
<time>2017-01-10T23:45:25.074Z</time>
</trkpt>
<trkpt lat="-27.2021606" lon="152.8236938">
<ele>42.223</ele>
<time>2017-01-10T23:45:27.990Z</time>
</trkpt>
<trkpt lat="-27.2020365" lon="152.8238539">
<ele>42.298</ele>
<time>2017-01-10T23:45:30.036Z</time>
</trkpt>
<trkpt lat="-27.2019239" lon="152.8240131">
<ele>42.559</ele>
<time>2017-01-10T23:45:32.020Z</time>
</trkpt>
<trkpt lat="-27.2018062" lon="152.8241722">
<ele>42.837</ele>
<time>2017-01-10T23:45:34.204Z</time>
</trkpt>
<trkpt lat="-27.2016585" lon="152.8243543">
<ele>42.992</ele>
<time>2017-01-10T23:45:37.100Z</time>
</trkpt>
<trkpt lat="-27.2015646" lon="152.8244669">
<ele>42.986</ele>
<time>2017-01-10T23:45:39.305Z</time>
</trkpt>
<trkpt lat="-27.2014700" lon="152.8246032">
<ele>42.813</ele>
<time>2017-01-10T23:45:42.332Z</time>
</trkpt>
<trkpt lat="-27.2013667" lon="152.8246157">
<ele>42.572</ele>
<time>2017-01-10T23:45:44.649Z</time>
</trkpt>
<trkpt lat="-27.2012444" lon="152.8245292">
<ele>42.396</ele>
<time>2017-01-10T23:45:46.835Z</time>
</trkpt>
<trkpt lat="-27.2009899" lon="152.8242953">
<ele>42.582</ele>
<time>2017-01-10T23:45:50.158Z</time>
</trkpt>
<trkpt lat="-27.2007036" lon="152.8240484">
<ele>43.451</ele>
<time>2017-01-10T23:45:53.250Z</time>
</trkpt>
<trkpt lat="-27.2005170" lon="152.8238867">
<ele>44.678</ele>
<time>2017-01-10T23:45:55.309Z</time>
</trkpt>
<trkpt lat="-27.2002449" lon="152.8236773">
<ele>45.551</ele>
<time>2017-01-10T23:45:58.242Z</time>
</trkpt>
<trkpt lat="-27.2000322" lon="152.8235957">
<ele>45.978</ele>
<time>2017-01-10T23:46:00.189Z</time>
</trkpt>
<trkpt lat="-27.1996834" lon="152.8235074">
<ele>46.458</ele>
<time>2017-01-10T23:46:03.258Z</time>
</trkpt>
<trkpt lat="-27.1994653" lon="152.8234490">
<ele>47.237</ele>
<time>2017-01-10T23:46:05.224Z</time>
</trkpt>
<trkpt lat="-27.1991415" lon="152.8233771">
<ele>48.048</ele>
<time>2017-01-10T23:46:08.141Z</time>
</trkpt>
<trkpt lat="-27.1989223" lon="152.8233182">
<ele>48.581</ele>
<time>2017-01-10T23:46:10.179Z</time>
</trkpt>
<trkpt lat="-27.1986298" lon="152.8232252">
<ele>48.776</ele>
<time>2017-01-10T23:46:13.027Z</time>
</trkpt>
<trkpt lat="-27.1984289" lon="152.8231792">
<ele>48.659</ele>
<time>2017-01-10T23:46:15.048Z</time>
</trkpt>
<trkpt lat="-27.1982555" lon="152.8231202">
<ele>48.336</ele>
<time>2017-01-10T23:46:16.885Z</time>
</trkpt>
<trkpt lat="-27.1980651" lon="152.8230697">
<ele>48.115</ele>
<time>2017-01-10T23:46:18.950Z</time>
</trkpt>
<trkpt lat="-27.1977990" lon="152.8229891">
<ele>48.250</ele>
<time>2017-01-10T23:46:22.013Z</time>
</trkpt>
<trkpt lat="-27.1976497" lon="152.8229155">
<ele>48.706</ele>
<time>2017-01-10T23:46:23.937Z</time>
</trkpt>
<trkpt lat="-27.1974290" lon="152.8227931">
<ele>49.245</ele>
<time>2017-01-10T23:46:26.968Z</time>
</trkpt>
<trkpt lat="-27.1972328" lon="152.8226695">
<ele>49.391</ele>
<time>2017-01-10T23:46:29.990Z</time>
</trkpt>
<trkpt lat="-27.1970581" lon="152.8227576">
<ele>48.745</ele>
<time>2017-01-10T23:46:32.689Z</time>
</trkpt>
<trkpt lat="-27.1969640" lon="152.8229401">
<ele>47.568</ele>
<time>2017-01-10T23:46:34.953Z</time>
</trkpt>
<trkpt lat="-27.1968114" lon="152.8232305">
<ele>46.416</ele>
<time>2017-01-10T23:46:38.094Z</time>
</trkpt>
<trkpt lat="-27.1966551" lon="152.8235269">
<ele>45.385</ele>
<time>2017-01-10T23:46:41.174Z</time>
</trkpt>
<trkpt lat="-27.1965629" lon="152.8237083">
<ele>44.285</ele>
<time>2017-01-10T23:46:43.062Z</time>
</trkpt>
<trkpt lat="-27.1964585" lon="152.8238994">
<ele>43.245</ele>
<time>2017-01-10T23:46:45.071Z</time>
</trkpt>
<trkpt lat="-27.1963502" lon="152.8240820">
<ele>42.641</ele>
<time>2017-01-10T23:46:47.083Z</time>
</trkpt>
<trkpt lat="-27.1962111" lon="152.8243500">
<ele>42.540</ele>
<time>2017-01-10T23:46:50.165Z</time>
</trkpt>
<trkpt lat="-27.1960739" lon="152.8245636">
<ele>42.634</ele>
<time>2017-01-10T23:46:53.309Z</time>
</trkpt>
<trkpt lat="-27.1960035" lon="152.8247401">
<ele>42.585</ele>
<time>2017-01-10T23:46:56.327Z</time>
</trkpt>
<trkpt lat="-27.1959624" lon="152.8248750">
<ele>42.252</ele>
<time>2017-01-10T23:46:59.529Z</time>
</trkpt>
<trkpt lat="-27.1959059" lon="152.8249644">
<ele>41.794</ele>
<time>2017-01-10T23:47:02.811Z</time>
</trkpt>
<trkpt lat="-27.1958157" lon="152.8249653">
<ele>41.509</ele>
<time>2017-01-10T23:47:06.228Z</time>
</trkpt>
<trkpt lat="-27.1957220" lon="152.8249403">
<ele>41.497</ele>
<time>2017-01-10T23:47:09.374Z</time>
</trkpt>
<trkpt lat="-27.1956932" lon="152.8248376">
<ele>41.611</ele>
<time>2017-01-10T23:47:14.000Z</time>
</trkpt>
<trkpt lat="-27.1956932" lon="152.8248376">
<ele>41.698</ele>
<time>2017-01-10T23:47:15.000Z</time>
</trkpt>
<trkpt lat="-27.1956932" lon="152.8248376">
<ele>41.718</ele>
<time>2017-01-10T23:48:33.383Z</time>
</trkpt>
<trkpt lat="-27.1955117" lon="152.8248456">
<ele>41.693</ele>
<time>2017-01-10T23:48:42.770Z</time>
</trkpt>
<trkpt lat="-27.1954150" lon="152.8248458">
<ele>41.743</ele>
<time>2017-01-10T23:48:45.935Z</time>
</trkpt>
<trkpt lat="-27.1953646" lon="152.8249340">
<ele>41.939</ele>
<time>2017-01-10T23:48:49.443Z</time>
</trkpt>
<trkpt lat="-27.1953342" lon="152.8250352">
<ele>42.175</ele>
<time>2017-01-10T23:48:55.000Z</time>
</trkpt>
<trkpt lat="-27.1953342" lon="152.8250352">
<ele>42.312</ele>
<time>2017-01-10T23:49:05.000Z</time>
</trkpt>
<trkpt lat="-27.1953342" lon="152.8250352">
<ele>42.337</ele>
<time>2017-01-11T00:31:21.805Z</time>
</trkpt>
<trkpt lat="-27.1954384" lon="152.8249103">
<ele>42.304</ele>
<time>2017-01-11T00:31:31.926Z</time>
</trkpt>
<trkpt lat="-27.1955594" lon="152.8249233">
<ele>44.000</ele>
<time>2017-01-11T00:31:35.781Z</time>
</trkpt>
<trkpt lat="-27.1956687" lon="152.8249513">
<ele>48.503</ele>
<time>2017-01-11T00:31:39.440Z</time>
</trkpt>
<trkpt lat="-27.1957720" lon="152.8249865">
<ele>53.147</ele>
<time>2017-01-11T00:31:43.596Z</time>
</trkpt>
<trkpt lat="-27.1958703" lon="152.8250147">
<ele>55.247</ele>
<time>2017-01-11T00:31:48.039Z</time>
</trkpt>
<trkpt lat="-27.1959709" lon="152.8250079">
<ele>55.184</ele>
<time>2017-01-11T00:31:50.197Z</time>
</trkpt>
<trkpt lat="-27.1959913" lon="152.8248356">
<ele>54.207</ele>
<time>2017-01-11T00:31:51.961Z</time>
</trkpt>
<trkpt lat="-27.1961363" lon="152.8244900">
<ele>53.512</ele>
<time>2017-01-11T00:31:55.205Z</time>
</trkpt>
<trkpt lat="-27.1962590" lon="152.8242731">
<ele>53.699</ele>
<time>2017-01-11T00:31:57.222Z</time>
</trkpt>
<trkpt lat="-27.1963790" lon="152.8240603">
<ele>54.474</ele>
<time>2017-01-11T00:31:59.224Z</time>
</trkpt>
<trkpt lat="-27.1964968" lon="152.8238523">
<ele>55.050</ele>
<time>2017-01-11T00:32:01.232Z</time>
</trkpt>
<trkpt lat="-27.1966555" lon="152.8235418">
<ele>55.037</ele>
<time>2017-01-11T00:32:04.281Z</time>
</trkpt>
<trkpt lat="-27.1968182" lon="152.8232379">
<ele>54.711</ele>
<time>2017-01-11T00:32:07.643Z</time>
</trkpt>
<trkpt lat="-27.1969631" lon="152.8229860">
<ele>54.333</ele>
<time>2017-01-11T00:32:11.144Z</time>
</trkpt>
<trkpt lat="-27.1970881" lon="152.8228092">
<ele>53.941</ele>
<time>2017-01-11T00:32:14.131Z</time>
</trkpt>
<trkpt lat="-27.1972793" lon="152.8227850">
<ele>53.646</ele>
<time>2017-01-11T00:32:16.482Z</time>
</trkpt>
<trkpt lat="-27.1974392" lon="152.8228907">
<ele>53.830</ele>
<time>2017-01-11T00:32:18.392Z</time>
</trkpt>
<trkpt lat="-27.1977323" lon="152.8230559">
<ele>54.781</ele>
<time>2017-01-11T00:32:21.420Z</time>
</trkpt>
<trkpt lat="-27.1980633" lon="152.8231647">
<ele>56.376</ele>
<time>2017-01-11T00:32:24.409Z</time>
</trkpt>
<trkpt lat="-27.1982938" lon="152.8232389">
<ele>58.037</ele>
<time>2017-01-11T00:32:26.467Z</time>
</trkpt>
<trkpt lat="-27.1986320" lon="152.8232989">
<ele>58.869</ele>
<time>2017-01-11T00:32:29.426Z</time>
</trkpt>
<trkpt lat="-27.1989559" lon="152.8233900">
<ele>58.467</ele>
<time>2017-01-11T00:32:32.290Z</time>
</trkpt>
<trkpt lat="-27.1992957" lon="152.8234657">
<ele>57.531</ele>
<time>2017-01-11T00:32:35.236Z</time>
</trkpt>
<trkpt lat="-27.1995122" lon="152.8235063">
<ele>56.868</ele>
<time>2017-01-11T00:32:37.102Z</time>
</trkpt>
<trkpt lat="-27.1998711" lon="152.8235868">
<ele>56.642</ele>
<time>2017-01-11T00:32:40.209Z</time>
</trkpt>
<trkpt lat="-27.2000965" lon="152.8236562">
<ele>56.474</ele>
<time>2017-01-11T00:32:42.194Z</time>
</trkpt>
<trkpt lat="-27.2003994" lon="152.8238747">
<ele>55.954</ele>
<time>2017-01-11T00:32:45.213Z</time>
</trkpt>
<trkpt lat="-27.2005785" lon="152.8240484">
<ele>55.092</ele>
<time>2017-01-11T00:32:47.116Z</time>
</trkpt>
<trkpt lat="-27.2007654" lon="152.8242313">
<ele>54.242</ele>
<time>2017-01-11T00:32:48.857Z</time>
</trkpt>
<trkpt lat="-27.2011116" lon="152.8245843">
<ele>53.726</ele>
<time>2017-01-11T00:32:51.838Z</time>
</trkpt>
<trkpt lat="-27.2015152" lon="152.8249684">
<ele>54.019</ele>
<time>2017-01-11T00:32:54.943Z</time>
</trkpt>
<trkpt lat="-27.2017808" lon="152.8251948">
<ele>55.181</ele>
<time>2017-01-11T00:32:56.862Z</time>
</trkpt>
<trkpt lat="-27.2021783" lon="152.8255660">
<ele>56.357</ele>
<time>2017-01-11T00:32:59.825Z</time>
</trkpt>
<trkpt lat="-27.2025889" lon="152.8259480">
<ele>56.753</ele>
<time>2017-01-11T00:33:02.877Z</time>
</trkpt>
<trkpt lat="-27.2028531" lon="152.8261893">
<ele>56.425</ele>
<time>2017-01-11T00:33:04.834Z</time>
</trkpt>
<trkpt lat="-27.2032542" lon="152.8265735">
<ele>55.751</ele>
<time>2017-01-11T00:33:07.855Z</time>
</trkpt>
<trkpt lat="-27.2036493" lon="152.8269518">
<ele>55.198</ele>
<time>2017-01-11T00:33:10.823Z</time>
</trkpt>
<trkpt lat="-27.2039163" lon="152.8272140">
<ele>55.048</ele>
<time>2017-01-11T00:33:12.842Z</time>
</trkpt>
<trkpt lat="-27.2041968" lon="152.8274529">
<ele>55.308</ele>
<time>2017-01-11T00:33:14.827Z</time>
</trkpt>
<trkpt lat="-27.2046180" lon="152.8278104">
<ele>55.775</ele>
<time>2017-01-11T00:33:17.803Z</time>
</trkpt>
<trkpt lat="-27.2049019" lon="152.8280513">
<ele>56.156</ele>
<time>2017-01-11T00:33:19.825Z</time>
</trkpt>
<trkpt lat="-27.2051901" lon="152.8282809">
<ele>56.049</ele>
<time>2017-01-11T00:33:21.828Z</time>
</trkpt>
<trkpt lat="-27.2056361" lon="152.8286152">
<ele>55.369</ele>
<time>2017-01-11T00:33:24.788Z</time>
</trkpt>
<trkpt lat="-27.2059806" lon="152.8288029">
<ele>54.617</ele>
<time>2017-01-11T00:33:26.769Z</time>
</trkpt>
<trkpt lat="-27.2065066" lon="152.8290977">
<ele>54.264</ele>
<time>2017-01-11T00:33:29.752Z</time>
</trkpt>
<trkpt lat="-27.2068347" lon="152.8293566">
<ele>54.411</ele>
<time>2017-01-11T00:33:31.744Z</time>
</trkpt>
<trkpt lat="-27.2073309" lon="152.8297610">
<ele>54.947</ele>
<time>2017-01-11T00:33:34.782Z</time>
</trkpt>
<trkpt lat="-27.2076725" lon="152.8300020">
<ele>55.483</ele>
<time>2017-01-11T00:33:36.776Z</time>
</trkpt>
<trkpt lat="-27.2080281" lon="152.8302236">
<ele>56.002</ele>
<time>2017-01-11T00:33:38.780Z</time>
</trkpt>
<trkpt lat="-27.2085654" lon="152.8305275">
<ele>56.752</ele>
<time>2017-01-11T00:33:41.741Z</time>
</trkpt>
<trkpt lat="-27.2091062" lon="152.8308380">
<ele>57.756</ele>
<time>2017-01-11T00:33:44.721Z</time>
</trkpt>
<trkpt lat="-27.2094770" lon="152.8310358">
<ele>58.921</ele>
<time>2017-01-11T00:33:46.735Z</time>
</trkpt>
<trkpt lat="-27.2098418" lon="152.8312309">
<ele>59.930</ele>
<time>2017-01-11T00:33:48.719Z</time>
</trkpt>
<trkpt lat="-27.2103943" lon="152.8314982">
<ele>60.363</ele>
<time>2017-01-11T00:33:51.668Z</time>
</trkpt>
<trkpt lat="-27.2109650" lon="152.8317502">
<ele>60.168</ele>
<time>2017-01-11T00:33:54.664Z</time>
</trkpt>
<trkpt lat="-27.2113529" lon="152.8319152">
<ele>59.457</ele>
<time>2017-01-11T00:33:56.684Z</time>
</trkpt>
<trkpt lat="-27.2117487" lon="152.8320673">
<ele>58.215</ele>
<time>2017-01-11T00:33:58.725Z</time>
</trkpt>
<trkpt lat="-27.2123389" lon="152.8322798">
<ele>56.622</ele>
<time>2017-01-11T00:34:01.749Z</time>
</trkpt>
<trkpt lat="-27.2127344" lon="152.8324213">
<ele>55.105</ele>
<time>2017-01-11T00:34:03.773Z</time>
</trkpt>
<trkpt lat="-27.2133357" lon="152.8326370">
<ele>53.815</ele>
<time>2017-01-11T00:34:06.857Z</time>
</trkpt>
<trkpt lat="-27.2139023" lon="152.8328725">
<ele>52.802</ele>
<time>2017-01-11T00:34:09.816Z</time>
</trkpt>
<trkpt lat="-27.2144866" lon="152.8330813">
<ele>52.380</ele>
<time>2017-01-11T00:34:12.825Z</time>
</trkpt>
<trkpt lat="-27.2148807" lon="152.8331880">
<ele>52.563</ele>
<time>2017-01-11T00:34:14.822Z</time>
</trkpt>
<trkpt lat="-27.2152755" lon="152.8332625">
<ele>53.108</ele>
<time>2017-01-11T00:34:16.789Z</time>
</trkpt>
<trkpt lat="-27.2159040" lon="152.8333238">
<ele>53.831</ele>
<time>2017-01-11T00:34:19.776Z</time>
</trkpt>
<trkpt lat="-27.2165672" lon="152.8333286">
<ele>54.501</ele>
<time>2017-01-11T00:34:22.686Z</time>
</trkpt>
<trkpt lat="-27.2173018" lon="152.8332420">
<ele>55.404</ele>
<time>2017-01-11T00:34:25.727Z</time>
</trkpt>
<trkpt lat="-27.2178029" lon="152.8331525">
<ele>57.261</ele>
<time>2017-01-11T00:34:27.756Z</time>
</trkpt>
<trkpt lat="-27.2182820" lon="152.8330028">
<ele>59.906</ele>
<time>2017-01-11T00:34:29.736Z</time>
</trkpt>
<trkpt lat="-27.2187621" lon="152.8328140">
<ele>62.372</ele>
<time>2017-01-11T00:34:31.758Z</time>
</trkpt>
<trkpt lat="-27.2192289" lon="152.8326007">
<ele>64.159</ele>
<time>2017-01-11T00:34:33.763Z</time>
</trkpt>
<trkpt lat="-27.2196902" lon="152.8323728">
<ele>65.295</ele>
<time>2017-01-11T00:34:35.767Z</time>
</trkpt>
<trkpt lat="-27.2201530" lon="152.8321444">
<ele>66.015</ele>
<time>2017-01-11T00:34:37.774Z</time>
</trkpt>
<trkpt lat="-27.2208310" lon="152.8317865">
<ele>66.550</ele>
<time>2017-01-11T00:34:40.748Z</time>
</trkpt>
<trkpt lat="-27.2212898" lon="152.8315688">
<ele>66.914</ele>
<time>2017-01-11T00:34:42.725Z</time>
</trkpt>
<trkpt lat="-27.2217623" lon="152.8313405">
<ele>67.039</ele>
<time>2017-01-11T00:34:44.765Z</time>
</trkpt>
<trkpt lat="-27.2222247" lon="152.8311154">
<ele>67.221</ele>
<time>2017-01-11T00:34:46.766Z</time>
</trkpt>
<trkpt lat="-27.2229188" lon="152.8307728">
<ele>67.784</ele>
<time>2017-01-11T00:34:49.775Z</time>
</trkpt>
<trkpt lat="-27.2233866" lon="152.8305549">
<ele>68.752</ele>
<time>2017-01-11T00:34:51.782Z</time>
</trkpt>
<trkpt lat="-27.2240941" lon="152.8302418">
<ele>69.844</ele>
<time>2017-01-11T00:34:54.794Z</time>
</trkpt>
<trkpt lat="-27.2248318" lon="152.8300339">
<ele>71.005</ele>
<time>2017-01-11T00:34:57.806Z</time>
</trkpt>
<trkpt lat="-27.2253170" lon="152.8299177">
<ele>72.823</ele>
<time>2017-01-11T00:34:59.769Z</time>
</trkpt>
<trkpt lat="-27.2258283" lon="152.8298465">
<ele>75.695</ele>
<time>2017-01-11T00:35:01.799Z</time>
</trkpt>
<trkpt lat="-27.2265869" lon="152.8297839">
<ele>78.750</ele>
<time>2017-01-11T00:35:04.795Z</time>
</trkpt>
<trkpt lat="-27.2270878" lon="152.8297989">
<ele>80.781</ele>
<time>2017-01-11T00:35:06.768Z</time>
</trkpt>
<trkpt lat="-27.2278394" lon="152.8298121">
<ele>81.591</ele>
<time>2017-01-11T00:35:09.736Z</time>
</trkpt>
<trkpt lat="-27.2285731" lon="152.8298199">
<ele>81.964</ele>
<time>2017-01-11T00:35:12.639Z</time>
</trkpt>
<trkpt lat="-27.2290771" lon="152.8298484">
<ele>82.642</ele>
<time>2017-01-11T00:35:14.660Z</time>
</trkpt>
<trkpt lat="-27.2295614" lon="152.8298752">
<ele>83.603</ele>
<time>2017-01-11T00:35:16.707Z</time>
</trkpt>
<trkpt lat="-27.2300121" lon="152.8298988">
<ele>84.318</ele>
<time>2017-01-11T00:35:18.995Z</time>
</trkpt>
<trkpt lat="-27.2305259" lon="152.8299395">
<ele>84.441</ele>
<time>2017-01-11T00:35:22.409Z</time>
</trkpt>
<trkpt lat="-27.2307618" lon="152.8299643">
<ele>83.595</ele>
<time>2017-01-11T00:35:24.717Z</time>
</trkpt>
<trkpt lat="-27.2310047" lon="152.8299776">
<ele>81.583</ele>
<time>2017-01-11T00:35:27.211Z</time>
</trkpt>
<trkpt lat="-27.2313097" lon="152.8300087">
<ele>79.234</ele>
<time>2017-01-11T00:35:29.847Z</time>
</trkpt>
<trkpt lat="-27.2315978" lon="152.8300442">
<ele>77.923</ele>
<time>2017-01-11T00:35:31.676Z</time>
</trkpt>
<trkpt lat="-27.2321313" lon="152.8301409">
<ele>78.460</ele>
<time>2017-01-11T00:35:34.651Z</time>
</trkpt>
<trkpt lat="-27.2325506" lon="152.8302345">
<ele>81.047</ele>
<time>2017-01-11T00:35:36.642Z</time>
</trkpt>
<trkpt lat="-27.2330054" lon="152.8303650">
<ele>85.189</ele>
<time>2017-01-11T00:35:38.708Z</time>
</trkpt>
<trkpt lat="-27.2334566" lon="152.8305132">
<ele>89.837</ele>
<time>2017-01-11T00:35:40.699Z</time>
</trkpt>
<trkpt lat="-27.2341376" lon="152.8307841">
<ele>93.809</ele>
<time>2017-01-11T00:35:43.686Z</time>
</trkpt>
<trkpt lat="-27.2348161" lon="152.8311184">
<ele>96.248</ele>
<time>2017-01-11T00:35:46.668Z</time>
</trkpt>
<trkpt lat="-27.2355074" lon="152.8314808">
<ele>97.155</ele>
<time>2017-01-11T00:35:49.700Z</time>
</trkpt>
<trkpt lat="-27.2362005" lon="152.8318321">
<ele>97.208</ele>
<time>2017-01-11T00:35:52.709Z</time>
</trkpt>
<trkpt lat="-27.2366700" lon="152.8320514">
<ele>96.775</ele>
<time>2017-01-11T00:35:54.711Z</time>
</trkpt>
<trkpt lat="-27.2371481" lon="152.8322294">
<ele>95.819</ele>
<time>2017-01-11T00:35:56.698Z</time>
</trkpt>
<trkpt lat="-27.2378967" lon="152.8324339">
<ele>94.151</ele>
<time>2017-01-11T00:35:59.738Z</time>
</trkpt>
<trkpt lat="-27.2383977" lon="152.8325200">
<ele>91.552</ele>
<time>2017-01-11T00:36:01.738Z</time>
</trkpt>
<trkpt lat="-27.2391667" lon="152.8325583">
<ele>88.115</ele>
<time>2017-01-11T00:36:04.785Z</time>
</trkpt>
<trkpt lat="-27.2396753" lon="152.8325496">
<ele>84.730</ele>
<time>2017-01-11T00:36:06.798Z</time>
</trkpt>
<trkpt lat="-27.2404330" lon="152.8326173">
<ele>82.402</ele>
<time>2017-01-11T00:36:09.799Z</time>
</trkpt>
<trkpt lat="-27.2409339" lon="152.8327289">
<ele>81.329</ele>
<time>2017-01-11T00:36:11.813Z</time>
</trkpt>
<trkpt lat="-27.2416534" lon="152.8329645">
<ele>80.891</ele>
<time>2017-01-11T00:36:14.775Z</time>
</trkpt>
<trkpt lat="-27.2423902" lon="152.8332721">
<ele>80.517</ele>
<time>2017-01-11T00:36:17.887Z</time>
</trkpt>
<trkpt lat="-27.2431133" lon="152.8335265">
<ele>80.172</ele>
<time>2017-01-11T00:36:20.884Z</time>
</trkpt>
<trkpt lat="-27.2438506" lon="152.8336634">
<ele>79.701</ele>
<time>2017-01-11T00:36:23.839Z</time>
</trkpt>
<trkpt lat="-27.2443425" lon="152.8337567">
<ele>78.690</ele>
<time>2017-01-11T00:36:25.816Z</time>
</trkpt>
<trkpt lat="-27.2448344" lon="152.8338963">
<ele>77.424</ele>
<time>2017-01-11T00:36:27.830Z</time>
</trkpt>
<trkpt lat="-27.2453126" lon="152.8340565">
<ele>76.802</ele>
<time>2017-01-11T00:36:29.812Z</time>
</trkpt>
<trkpt lat="-27.2459855" lon="152.8344426">
<ele>77.100</ele>
<time>2017-01-11T00:36:32.799Z</time>
</trkpt>
<trkpt lat="-27.2466071" lon="152.8349258">
<ele>77.562</ele>
<time>2017-01-11T00:36:35.771Z</time>
</trkpt>
<trkpt lat="-27.2471598" lon="152.8355145">
<ele>77.361</ele>
<time>2017-01-11T00:36:38.765Z</time>
</trkpt>
<trkpt lat="-27.2475387" lon="152.8359124">
<ele>76.229</ele>
<time>2017-01-11T00:36:40.811Z</time>
</trkpt>
<trkpt lat="-27.2480771" lon="152.8365011">
<ele>73.841</ele>
<time>2017-01-11T00:36:43.783Z</time>
</trkpt>
<trkpt lat="-27.2484412" lon="152.8368927">
<ele>70.045</ele>
<time>2017-01-11T00:36:45.782Z</time>
</trkpt>
<trkpt lat="-27.2489534" lon="152.8375162">
<ele>65.882</ele>
<time>2017-01-11T00:36:48.784Z</time>
</trkpt>
<trkpt lat="-27.2492481" lon="152.8379623">
<ele>62.905</ele>
<time>2017-01-11T00:36:50.761Z</time>
</trkpt>
<trkpt lat="-27.2496256" lon="152.8386898">
<ele>61.661</ele>
<time>2017-01-11T00:36:53.770Z</time>
</trkpt>
<trkpt lat="-27.2499068" lon="152.8394551">
<ele>61.744</ele>
<time>2017-01-11T00:36:56.721Z</time>
</trkpt>
<trkpt lat="-27.2500825" lon="152.8402597">
<ele>63.230</ele>
<time>2017-01-11T00:36:59.653Z</time>
</trkpt>
<trkpt lat="-27.2501796" lon="152.8408154">
<ele>65.933</ele>
<time>2017-01-11T00:37:01.642Z</time>
</trkpt>
<trkpt lat="-27.2503131" lon="152.8416765">
<ele>68.387</ele>
<time>2017-01-11T00:37:04.702Z</time>
</trkpt>
<trkpt lat="-27.2504285" lon="152.8422257">
<ele>69.277</ele>
<time>2017-01-11T00:37:06.675Z</time>
</trkpt>
<trkpt lat="-27.2506726" lon="152.8430516">
<ele>68.650</ele>
<time>2017-01-11T00:37:09.720Z</time>
</trkpt>
<trkpt lat="-27.2510023" lon="152.8438171">
<ele>66.451</ele>
<time>2017-01-11T00:37:12.703Z</time>
</trkpt>
<trkpt lat="-27.2512568" lon="152.8443129">
<ele>62.679</ele>
<time>2017-01-11T00:37:14.718Z</time>
</trkpt>
<trkpt lat="-27.2515463" lon="152.8447620">
<ele>58.698</ele>
<time>2017-01-11T00:37:16.672Z</time>
</trkpt>
<trkpt lat="-27.2520310" lon="152.8454137">
<ele>56.137</ele>
<time>2017-01-11T00:37:19.665Z</time>
</trkpt>
<trkpt lat="-27.2525050" lon="152.8460601">
<ele>55.072</ele>
<time>2017-01-11T00:37:22.620Z</time>
</trkpt>
<trkpt lat="-27.2528240" lon="152.8465055">
<ele>54.811</ele>
<time>2017-01-11T00:37:24.636Z</time>
</trkpt>
<trkpt lat="-27.2531462" lon="152.8469461">
<ele>54.834</ele>
<time>2017-01-11T00:37:26.645Z</time>
</trkpt>
<trkpt lat="-27.2534620" lon="152.8473740">
<ele>54.779</ele>
<time>2017-01-11T00:37:28.600Z</time>
</trkpt>
<trkpt lat="-27.2539495" lon="152.8480489">
<ele>54.371</ele>
<time>2017-01-11T00:37:31.651Z</time>
</trkpt>
<trkpt lat="-27.2544535" lon="152.8486845">
<ele>53.707</ele>
<time>2017-01-11T00:37:34.640Z</time>
</trkpt>
<trkpt lat="-27.2547845" lon="152.8491036">
<ele>53.196</ele>
<time>2017-01-11T00:37:36.608Z</time>
</trkpt>
<trkpt lat="-27.2553539" lon="152.8496736">
<ele>53.199</ele>
<time>2017-01-11T00:37:39.623Z</time>
</trkpt>
<trkpt lat="-27.2557609" lon="152.8500252">
<ele>53.875</ele>
<time>2017-01-11T00:37:41.653Z</time>
</trkpt>
<trkpt lat="-27.2561704" lon="152.8503274">
<ele>55.087</ele>
<time>2017-01-11T00:37:43.578Z</time>
</trkpt>
<trkpt lat="-27.2566096" lon="152.8506168">
<ele>56.334</ele>
<time>2017-01-11T00:37:45.576Z</time>
</trkpt>
<trkpt lat="-27.2572947" lon="152.8509969">
<ele>57.091</ele>
<time>2017-01-11T00:37:48.583Z</time>
</trkpt>
<trkpt lat="-27.2577652" lon="152.8512010">
<ele>57.084</ele>
<time>2017-01-11T00:37:50.570Z</time>
</trkpt>
<trkpt lat="-27.2584962" lon="152.8514601">
<ele>56.339</ele>
<time>2017-01-11T00:37:53.584Z</time>
</trkpt>
<trkpt lat="-27.2592415" lon="152.8516542">
<ele>55.206</ele>
<time>2017-01-11T00:37:56.592Z</time>
</trkpt>
<trkpt lat="-27.2597501" lon="152.8517220">
<ele>53.876</ele>
<time>2017-01-11T00:37:58.605Z</time>
</trkpt>
<trkpt lat="-27.2602524" lon="152.8517726">
<ele>52.242</ele>
<time>2017-01-11T00:38:00.590Z</time>
</trkpt>
<trkpt lat="-27.2610150" lon="152.8517640">
<ele>50.560</ele>
<time>2017-01-11T00:38:03.589Z</time>
</trkpt>
<trkpt lat="-27.2615412" lon="152.8517159">
<ele>49.146</ele>
<time>2017-01-11T00:38:05.667Z</time>
</trkpt>
<trkpt lat="-27.2620454" lon="152.8516280">
<ele>48.051</ele>
<time>2017-01-11T00:38:07.686Z</time>
</trkpt>
<trkpt lat="-27.2627884" lon="152.8514898">
<ele>47.480</ele>
<time>2017-01-11T00:38:10.674Z</time>
</trkpt>
<trkpt lat="-27.2632812" lon="152.8514242">
<ele>47.535</ele>
<time>2017-01-11T00:38:12.642Z</time>
</trkpt>
<trkpt lat="-27.2640369" lon="152.8513123">
<ele>48.142</ele>
<time>2017-01-11T00:38:15.658Z</time>
</trkpt>
<trkpt lat="-27.2647854" lon="152.8511613">
<ele>49.570</ele>
<time>2017-01-11T00:38:18.671Z</time>
</trkpt>
<trkpt lat="-27.2652732" lon="152.8510535">
<ele>52.101</ele>
<time>2017-01-11T00:38:20.646Z</time>
</trkpt>
<trkpt lat="-27.2657823" lon="152.8509628">
<ele>55.045</ele>
<time>2017-01-11T00:38:22.684Z</time>
</trkpt>
<trkpt lat="-27.2662855" lon="152.8508733">
<ele>57.527</ele>
<time>2017-01-11T00:38:24.715Z</time>
</trkpt>
<trkpt lat="-27.2667739" lon="152.8507699">
<ele>59.345</ele>
<time>2017-01-11T00:38:26.809Z</time>
</trkpt>
<trkpt lat="-27.2674466" lon="152.8506527">
<ele>59.834</ele>
<time>2017-01-11T00:38:29.852Z</time>
</trkpt>
<trkpt lat="-27.2678512" lon="152.8505776">
<ele>58.381</ele>
<time>2017-01-11T00:38:31.912Z</time>
</trkpt>
<trkpt lat="-27.2684056" lon="152.8504842">
<ele>55.622</ele>
<time>2017-01-11T00:38:34.962Z</time>
</trkpt>
<trkpt lat="-27.2689090" lon="152.8504044">
<ele>52.550</ele>
<time>2017-01-11T00:38:37.937Z</time>
</trkpt>
<trkpt lat="-27.2692238" lon="152.8503207">
<ele>49.737</ele>
<time>2017-01-11T00:38:39.627Z</time>
</trkpt>
<trkpt lat="-27.2698445" lon="152.8502055">
<ele>47.628</ele>
<time>2017-01-11T00:38:42.603Z</time>
</trkpt>
<trkpt lat="-27.2703285" lon="152.8501211">
<ele>46.944</ele>
<time>2017-01-11T00:38:44.622Z</time>
</trkpt>
<trkpt lat="-27.2708231" lon="152.8500400">
<ele>48.253</ele>
<time>2017-01-11T00:38:46.616Z</time>
</trkpt>
<trkpt lat="-27.2713182" lon="152.8499372">
<ele>50.682</ele>
<time>2017-01-11T00:38:48.607Z</time>
</trkpt>
<trkpt lat="-27.2720707" lon="152.8498001">
<ele>52.603</ele>
<time>2017-01-11T00:38:51.614Z</time>
</trkpt>
<trkpt lat="-27.2725783" lon="152.8497060">
<ele>53.271</ele>
<time>2017-01-11T00:38:53.642Z</time>
</trkpt>
<trkpt lat="-27.2733371" lon="152.8495672">
<ele>52.909</ele>
<time>2017-01-11T00:38:56.678Z</time>
</trkpt>
<trkpt lat="-27.2738381" lon="152.8494684">
<ele>52.008</ele>
<time>2017-01-11T00:38:58.695Z</time>
</trkpt>
<trkpt lat="-27.2745768" lon="152.8492776">
<ele>51.120</ele>
<time>2017-01-11T00:39:01.701Z</time>
</trkpt>
<trkpt lat="-27.2753030" lon="152.8490491">
<ele>50.636</ele>
<time>2017-01-11T00:39:04.692Z</time>
</trkpt>
<trkpt lat="-27.2757938" lon="152.8489132">
<ele>50.828</ele>
<time>2017-01-11T00:39:06.697Z</time>
</trkpt>
<trkpt lat="-27.2762663" lon="152.8487382">
<ele>52.076</ele>
<time>2017-01-11T00:39:08.667Z</time>
</trkpt>
<trkpt lat="-27.2769798" lon="152.8484721">
<ele>54.197</ele>
<time>2017-01-11T00:39:11.637Z</time>
</trkpt>
<trkpt lat="-27.2776789" lon="152.8481676">
<ele>56.135</ele>
<time>2017-01-11T00:39:14.593Z</time>
</trkpt>
<trkpt lat="-27.2783761" lon="152.8478178">
<ele>57.147</ele>
<time>2017-01-11T00:39:17.602Z</time>
</trkpt>
<trkpt lat="-27.2788399" lon="152.8475626">
<ele>57.160</ele>
<time>2017-01-11T00:39:19.634Z</time>
</trkpt>
<trkpt lat="-27.2795187" lon="152.8471752">
<ele>56.452</ele>
<time>2017-01-11T00:39:22.626Z</time>
</trkpt>
<trkpt lat="-27.2799656" lon="152.8468940">
<ele>55.666</ele>
<time>2017-01-11T00:39:24.634Z</time>
</trkpt>
<trkpt lat="-27.2806624" lon="152.8465195">
<ele>55.232</ele>
<time>2017-01-11T00:39:27.672Z</time>
</trkpt>
<trkpt lat="-27.2811198" lon="152.8462799">
<ele>54.717</ele>
<time>2017-01-11T00:39:29.666Z</time>
</trkpt>
<trkpt lat="-27.2815727" lon="152.8460330">
<ele>53.542</ele>
<time>2017-01-11T00:39:31.652Z</time>
</trkpt>
<trkpt lat="-27.2822560" lon="152.8456634">
<ele>52.028</ele>
<time>2017-01-11T00:39:34.640Z</time>
</trkpt>
<trkpt lat="-27.2827210" lon="152.8454199">
<ele>50.462</ele>
<time>2017-01-11T00:39:36.661Z</time>
</trkpt>
<trkpt lat="-27.2831752" lon="152.8451356">
<ele>48.496</ele>
<time>2017-01-11T00:39:38.716Z</time>
</trkpt>
<trkpt lat="-27.2836223" lon="152.8448835">
<ele>46.437</ele>
<time>2017-01-11T00:39:40.696Z</time>
</trkpt>
<trkpt lat="-27.2842991" lon="152.8445011">
<ele>45.095</ele>
<time>2017-01-11T00:39:43.700Z</time>
</trkpt>
<trkpt lat="-27.2849637" lon="152.8441565">
<ele>44.602</ele>
<time>2017-01-11T00:39:46.608Z</time>
</trkpt>
<trkpt lat="-27.2854382" lon="152.8439294">
<ele>44.783</ele>
<time>2017-01-11T00:39:48.650Z</time>
</trkpt>
<trkpt lat="-27.2861630" lon="152.8436544">
<ele>45.389</ele>
<time>2017-01-11T00:39:51.674Z</time>
</trkpt>
<trkpt lat="-27.2866453" lon="152.8434981">
<ele>45.902</ele>
<time>2017-01-11T00:39:53.655Z</time>
</trkpt>
<trkpt lat="-27.2873941" lon="152.8433208">
<ele>45.986</ele>
<time>2017-01-11T00:39:56.676Z</time>
</trkpt>
<trkpt lat="-27.2878854" lon="152.8431967">
<ele>46.200</ele>
<time>2017-01-11T00:39:58.659Z</time>
</trkpt>
<trkpt lat="-27.2883873" lon="152.8430873">
<ele>47.018</ele>
<time>2017-01-11T00:40:00.664Z</time>
</trkpt>
<trkpt lat="-27.2888899" lon="152.8429605">
<ele>47.892</ele>
<time>2017-01-11T00:40:02.683Z</time>
</trkpt>
<trkpt lat="-27.2896466" lon="152.8427956">
<ele>47.950</ele>
<time>2017-01-11T00:40:05.711Z</time>
</trkpt>
<trkpt lat="-27.2901454" lon="152.8426749">
<ele>47.085</ele>
<time>2017-01-11T00:40:07.721Z</time>
</trkpt>
<trkpt lat="-27.2908914" lon="152.8425014">
<ele>45.950</ele>
<time>2017-01-11T00:40:10.726Z</time>
</trkpt>
<trkpt lat="-27.2913859" lon="152.8423750">
<ele>45.176</ele>
<time>2017-01-11T00:40:12.728Z</time>
</trkpt>
<trkpt lat="-27.2921291" lon="152.8422285">
<ele>44.778</ele>
<time>2017-01-11T00:40:15.713Z</time>
</trkpt>
<trkpt lat="-27.2928681" lon="152.8421384">
<ele>44.535</ele>
<time>2017-01-11T00:40:18.650Z</time>
</trkpt>
<trkpt lat="-27.2936480" lon="152.8421586">
<ele>44.243</ele>
<time>2017-01-11T00:40:21.724Z</time>
</trkpt>
<trkpt lat="-27.2941594" lon="152.8421935">
<ele>43.853</ele>
<time>2017-01-11T00:40:23.744Z</time>
</trkpt>
<trkpt lat="-27.2949152" lon="152.8423238">
<ele>43.575</ele>
<time>2017-01-11T00:40:26.762Z</time>
</trkpt>
<trkpt lat="-27.2956461" lon="152.8424807">
<ele>43.694</ele>
<time>2017-01-11T00:40:29.701Z</time>
</trkpt>
<trkpt lat="-27.2963858" lon="152.8426425">
<ele>44.173</ele>
<time>2017-01-11T00:40:32.675Z</time>
</trkpt>
<trkpt lat="-27.2968902" lon="152.8427403">
<ele>44.673</ele>
<time>2017-01-11T00:40:34.693Z</time>
</trkpt>
<trkpt lat="-27.2976369" lon="152.8429069">
<ele>44.868</ele>
<time>2017-01-11T00:40:37.692Z</time>
</trkpt>
<trkpt lat="-27.2983803" lon="152.8431044">
<ele>44.611</ele>
<time>2017-01-11T00:40:40.700Z</time>
</trkpt>
<trkpt lat="-27.2988699" lon="152.8432131">
<ele>43.994</ele>
<time>2017-01-11T00:40:42.667Z</time>
</trkpt>
<trkpt lat="-27.2996120" lon="152.8433982">
<ele>43.368</ele>
<time>2017-01-11T00:40:45.663Z</time>
</trkpt>
<trkpt lat="-27.3001129" lon="152.8434846">
<ele>43.101</ele>
<time>2017-01-11T00:40:47.666Z</time>
</trkpt>
<trkpt lat="-27.3006293" lon="152.8434963">
<ele>43.321</ele>
<time>2017-01-11T00:40:49.712Z</time>
</trkpt>
<trkpt lat="-27.3013969" lon="152.8434409">
<ele>44.018</ele>
<time>2017-01-11T00:40:52.764Z</time>
</trkpt>
<trkpt lat="-27.3018910" lon="152.8433396">
<ele>45.156</ele>
<time>2017-01-11T00:40:54.763Z</time>
</trkpt>
<trkpt lat="-27.3026281" lon="152.8431527">
<ele>46.538</ele>
<time>2017-01-11T00:40:57.773Z</time>
</trkpt>
<trkpt lat="-27.3033704" lon="152.8429929">
<ele>48.195</ele>
<time>2017-01-11T00:41:00.773Z</time>
</trkpt>
<trkpt lat="-27.3041059" lon="152.8428394">
<ele>50.969</ele>
<time>2017-01-11T00:41:03.717Z</time>
</trkpt>
<trkpt lat="-27.3048688" lon="152.8427073">
<ele>55.018</ele>
<time>2017-01-11T00:41:06.735Z</time>
</trkpt>
<trkpt lat="-27.3053865" lon="152.8426122">
<ele>59.029</ele>
<time>2017-01-11T00:41:08.789Z</time>
</trkpt>
<trkpt lat="-27.3061360" lon="152.8425217">
<ele>61.739</ele>
<time>2017-01-11T00:41:11.751Z</time>
</trkpt>
<trkpt lat="-27.3066460" lon="152.8425321">
<ele>62.279</ele>
<time>2017-01-11T00:41:13.768Z</time>
</trkpt>
<trkpt lat="-27.3071446" lon="152.8426032">
<ele>60.421</ele>
<time>2017-01-11T00:41:15.769Z</time>
</trkpt>
<trkpt lat="-27.3078600" lon="152.8428150">
<ele>57.704</ele>
<time>2017-01-11T00:41:18.711Z</time>
</trkpt>
<trkpt lat="-27.3085445" lon="152.8431784">
<ele>56.183</ele>
<time>2017-01-11T00:41:21.710Z</time>
</trkpt>
<trkpt lat="-27.3089805" lon="152.8434594">
<ele>57.105</ele>
<time>2017-01-11T00:41:23.696Z</time>
</trkpt>
<trkpt lat="-27.3095732" lon="152.8440110">
<ele>60.520</ele>
<time>2017-01-11T00:41:26.726Z</time>
</trkpt>
<trkpt lat="-27.3100795" lon="152.8446565">
<ele>64.627</ele>
<time>2017-01-11T00:41:29.732Z</time>
</trkpt>
<trkpt lat="-27.3103519" lon="152.8451147">
<ele>67.169</ele>
<time>2017-01-11T00:41:31.663Z</time>
</trkpt>
<trkpt lat="-27.3106986" lon="152.8458709">
<ele>67.419</ele>
<time>2017-01-11T00:41:34.652Z</time>
</trkpt>
<trkpt lat="-27.3109290" lon="152.8466725">
<ele>65.707</ele>
<time>2017-01-11T00:41:37.623Z</time>
</trkpt>
<trkpt lat="-27.3110450" lon="152.8475068">
<ele>62.886</ele>
<time>2017-01-11T00:41:40.592Z</time>
</trkpt>
<trkpt lat="-27.3110328" lon="152.8483659">
<ele>60.137</ele>
<time>2017-01-11T00:41:43.604Z</time>
</trkpt>
<trkpt lat="-27.3108999" lon="152.8492000">
<ele>58.250</ele>
<time>2017-01-11T00:41:46.581Z</time>
</trkpt>
<trkpt lat="-27.3106935" lon="152.8500306">
<ele>57.403</ele>
<time>2017-01-11T00:41:49.615Z</time>
</trkpt>
<trkpt lat="-27.3104910" lon="152.8508522">
<ele>57.354</ele>
<time>2017-01-11T00:41:52.602Z</time>
</trkpt>
<trkpt lat="-27.3103860" lon="152.8514066">
<ele>57.641</ele>
<time>2017-01-11T00:41:54.587Z</time>
</trkpt>
<trkpt lat="-27.3103169" lon="152.8519578">
<ele>58.023</ele>
<time>2017-01-11T00:41:56.550Z</time>
</trkpt>
<trkpt lat="-27.3103058" lon="152.8527976">
<ele>58.609</ele>
<time>2017-01-11T00:41:59.514Z</time>
</trkpt>
<trkpt lat="-27.3104544" lon="152.8536301">
<ele>59.649</ele>
<time>2017-01-11T00:42:02.509Z</time>
</trkpt>
<trkpt lat="-27.3107120" lon="152.8544308">
<ele>61.673</ele>
<time>2017-01-11T00:42:05.518Z</time>
</trkpt>
<trkpt lat="-27.3109784" lon="152.8549172">
<ele>65.046</ele>
<time>2017-01-11T00:42:07.533Z</time>
</trkpt>
<trkpt lat="-27.3114602" lon="152.8555844">
<ele>69.051</ele>
<time>2017-01-11T00:42:10.556Z</time>
</trkpt>
<trkpt lat="-27.3120149" lon="152.8561512">
<ele>72.970</ele>
<time>2017-01-11T00:42:13.517Z</time>
</trkpt>
<trkpt lat="-27.3124394" lon="152.8564557">
<ele>76.679</ele>
<time>2017-01-11T00:42:15.506Z</time>
</trkpt>
<trkpt lat="-27.3129003" lon="152.8567083">
<ele>79.647</ele>
<time>2017-01-11T00:42:17.534Z</time>
</trkpt>
<trkpt lat="-27.3133698" lon="152.8569008">
<ele>81.383</ele>
<time>2017-01-11T00:42:19.510Z</time>
</trkpt>
<trkpt lat="-27.3138491" lon="152.8570664">
<ele>82.415</ele>
<time>2017-01-11T00:42:21.493Z</time>
</trkpt>
<trkpt lat="-27.3145396" lon="152.8574297">
<ele>83.411</ele>
<time>2017-01-11T00:42:24.508Z</time>
</trkpt>
<trkpt lat="-27.3149681" lon="152.8577454">
<ele>84.476</ele>
<time>2017-01-11T00:42:26.531Z</time>
</trkpt>
<trkpt lat="-27.3155153" lon="152.8583348">
<ele>85.420</ele>
<time>2017-01-11T00:42:29.515Z</time>
</trkpt>
<trkpt lat="-27.3158459" lon="152.8587730">
<ele>86.050</ele>
<time>2017-01-11T00:42:31.520Z</time>
</trkpt>
<trkpt lat="-27.3163764" lon="152.8594036">
<ele>85.993</ele>
<time>2017-01-11T00:42:34.555Z</time>
</trkpt>
<trkpt lat="-27.3170083" lon="152.8598822">
<ele>85.251</ele>
<time>2017-01-11T00:42:37.565Z</time>
</trkpt>
<trkpt lat="-27.3176996" lon="152.8602117">
<ele>84.367</ele>
<time>2017-01-11T00:42:40.534Z</time>
</trkpt>
<trkpt lat="-27.3184264" lon="152.8604131">
<ele>83.784</ele>
<time>2017-01-11T00:42:43.491Z</time>
</trkpt>
<trkpt lat="-27.3189131" lon="152.8605403">
<ele>83.494</ele>
<time>2017-01-11T00:42:45.463Z</time>
</trkpt>
<trkpt lat="-27.3193993" lon="152.8606654">
<ele>83.313</ele>
<time>2017-01-11T00:42:47.436Z</time>
</trkpt>
<trkpt lat="-27.3199009" lon="152.8607828">
<ele>83.031</ele>
<time>2017-01-11T00:42:49.493Z</time>
</trkpt>
<trkpt lat="-27.3206202" lon="152.8609869">
<ele>82.166</ele>
<time>2017-01-11T00:42:52.582Z</time>
</trkpt>
<trkpt lat="-27.3212861" lon="152.8611651">
<ele>80.305</ele>
<time>2017-01-11T00:42:55.632Z</time>
</trkpt>
<trkpt lat="-27.3217011" lon="152.8612599">
<ele>77.304</ele>
<time>2017-01-11T00:42:57.670Z</time>
</trkpt>
<trkpt lat="-27.3222802" lon="152.8614381">
<ele>73.659</ele>
<time>2017-01-11T00:43:00.634Z</time>
</trkpt>
<trkpt lat="-27.3226684" lon="152.8615492">
<ele>70.304</ele>
<time>2017-01-11T00:43:02.634Z</time>
</trkpt>
<trkpt lat="-27.3230646" lon="152.8616598">
<ele>67.876</ele>
<time>2017-01-11T00:43:04.669Z</time>
</trkpt>
<trkpt lat="-27.3236271" lon="152.8618807">
<ele>66.504</ele>
<time>2017-01-11T00:43:07.650Z</time>
</trkpt>
<trkpt lat="-27.3239867" lon="152.8620869">
<ele>65.834</ele>
<time>2017-01-11T00:43:09.666Z</time>
</trkpt>
<trkpt lat="-27.3244812" lon="152.8624604">
<ele>64.991</ele>
<time>2017-01-11T00:43:12.632Z</time>
</trkpt>
<trkpt lat="-27.3249136" lon="152.8629466">
<ele>63.566</ele>
<time>2017-01-11T00:43:15.677Z</time>
</trkpt>
<trkpt lat="-27.3251599" lon="152.8632986">
<ele>61.914</ele>
<time>2017-01-11T00:43:17.667Z</time>
</trkpt>
<trkpt lat="-27.3253911" lon="152.8636412">
<ele>60.437</ele>
<time>2017-01-11T00:43:19.587Z</time>
</trkpt>
<trkpt lat="-27.3256409" lon="152.8639969">
<ele>59.222</ele>
<time>2017-01-11T00:43:21.610Z</time>
</trkpt>
<trkpt lat="-27.3260182" lon="152.8645189">
<ele>58.296</ele>
<time>2017-01-11T00:43:24.605Z</time>
</trkpt>
<trkpt lat="-27.3262814" lon="152.8648578">
<ele>57.738</ele>
<time>2017-01-11T00:43:26.604Z</time>
</trkpt>
<trkpt lat="-27.3266789" lon="152.8653804">
<ele>57.508</ele>
<time>2017-01-11T00:43:29.655Z</time>
</trkpt>
<trkpt lat="-27.3269559" lon="152.8657181">
<ele>57.490</ele>
<time>2017-01-11T00:43:31.690Z</time>
</trkpt>
<trkpt lat="-27.3272565" lon="152.8660086">
<ele>57.501</ele>
<time>2017-01-11T00:43:33.672Z</time>
</trkpt>
<trkpt lat="-27.3275945" lon="152.8662518">
<ele>57.432</ele>
<time>2017-01-11T00:43:35.683Z</time>
</trkpt>
<trkpt lat="-27.3281170" lon="152.8665563">
<ele>57.199</ele>
<time>2017-01-11T00:43:38.634Z</time>
</trkpt>
<trkpt lat="-27.3286794" lon="152.8667537">
<ele>56.807</ele>
<time>2017-01-11T00:43:41.589Z</time>
</trkpt>
<trkpt lat="-27.3292698" lon="152.8669112">
<ele>56.458</ele>
<time>2017-01-11T00:43:44.637Z</time>
</trkpt>
<trkpt lat="-27.3298433" lon="152.8671075">
<ele>56.459</ele>
<time>2017-01-11T00:43:47.658Z</time>
</trkpt>
<trkpt lat="-27.3301997" lon="152.8672886">
<ele>57.247</ele>
<time>2017-01-11T00:43:49.640Z</time>
</trkpt>
<trkpt lat="-27.3307179" lon="152.8676075">
<ele>59.229</ele>
<time>2017-01-11T00:43:52.623Z</time>
</trkpt>
<trkpt lat="-27.3310459" lon="152.8678747">
<ele>62.391</ele>
<time>2017-01-11T00:43:54.642Z</time>
</trkpt>
<trkpt lat="-27.3313558" lon="152.8681619">
<ele>66.171</ele>
<time>2017-01-11T00:43:56.633Z</time>
</trkpt>
<trkpt lat="-27.3317675" lon="152.8686751">
<ele>69.779</ele>
<time>2017-01-11T00:43:59.678Z</time>
</trkpt>
<trkpt lat="-27.3319871" lon="152.8690551">
<ele>72.557</ele>
<time>2017-01-11T00:44:01.670Z</time>
</trkpt>
<trkpt lat="-27.3322204" lon="152.8696700">
<ele>74.152</ele>
<time>2017-01-11T00:44:04.584Z</time>
</trkpt>
<trkpt lat="-27.3324059" lon="152.8703367">
<ele>74.428</ele>
<time>2017-01-11T00:44:07.583Z</time>
</trkpt>
<trkpt lat="-27.3325665" lon="152.8707713">
<ele>73.061</ele>
<time>2017-01-11T00:44:09.571Z</time>
</trkpt>
<trkpt lat="-27.3329446" lon="152.8713529">
<ele>69.898</ele>
<time>2017-01-11T00:44:12.645Z</time>
</trkpt>
<trkpt lat="-27.3332752" lon="152.8716426">
<ele>65.260</ele>
<time>2017-01-11T00:44:14.756Z</time>
</trkpt>
<trkpt lat="-27.3338040" lon="152.8718884">
<ele>60.350</ele>
<time>2017-01-11T00:44:17.691Z</time>
</trkpt>
<trkpt lat="-27.3341988" lon="152.8719476">
<ele>57.091</ele>
<time>2017-01-11T00:44:19.727Z</time>
</trkpt>
<trkpt lat="-27.3347965" lon="152.8718912">
<ele>56.959</ele>
<time>2017-01-11T00:44:22.765Z</time>
</trkpt>
<trkpt lat="-27.3351838" lon="152.8717872">
<ele>60.225</ele>
<time>2017-01-11T00:44:24.760Z</time>
</trkpt>
<trkpt lat="-27.3355782" lon="152.8716672">
<ele>65.555</ele>
<time>2017-01-11T00:44:26.797Z</time>
</trkpt>
<trkpt lat="-27.3361776" lon="152.8715419">
<ele>70.663</ele>
<time>2017-01-11T00:44:29.828Z</time>
</trkpt>
<trkpt lat="-27.3367776" lon="152.8715098">
<ele>74.706</ele>
<time>2017-01-11T00:44:32.797Z</time>
</trkpt>
<trkpt lat="-27.3373845" lon="152.8715568">
<ele>77.873</ele>
<time>2017-01-11T00:44:35.793Z</time>
</trkpt>
<trkpt lat="-27.3377867" lon="152.8715703">
<ele>79.910</ele>
<time>2017-01-11T00:44:37.802Z</time>
</trkpt>
<trkpt lat="-27.3381646" lon="152.8716015">
<ele>80.497</ele>
<time>2017-01-11T00:44:39.786Z</time>
</trkpt>
<trkpt lat="-27.3387178" lon="152.8716178">
<ele>79.755</ele>
<time>2017-01-11T00:44:42.801Z</time>
</trkpt>
<trkpt lat="-27.3392390" lon="152.8716399">
<ele>78.027</ele>
<time>2017-01-11T00:44:45.701Z</time>
</trkpt>
<trkpt lat="-27.3396153" lon="152.8716482">
<ele>75.805</ele>
<time>2017-01-11T00:44:47.702Z</time>
</trkpt>
<trkpt lat="-27.3401885" lon="152.8716737">
<ele>73.855</ele>
<time>2017-01-11T00:44:50.660Z</time>
</trkpt>
<trkpt lat="-27.3407909" lon="152.8717390">
<ele>73.164</ele>
<time>2017-01-11T00:44:53.705Z</time>
</trkpt>
<trkpt lat="-27.3413815" lon="152.8718116">
<ele>74.118</ele>
<time>2017-01-11T00:44:56.677Z</time>
</trkpt>
<trkpt lat="-27.3417792" lon="152.8718509">
<ele>76.181</ele>
<time>2017-01-11T00:44:58.674Z</time>
</trkpt>
<trkpt lat="-27.3423630" lon="152.8719100">
<ele>78.710</ele>
<time>2017-01-11T00:45:01.630Z</time>
</trkpt>
<trkpt lat="-27.3429086" lon="152.8721217">
<ele>81.146</ele>
<time>2017-01-11T00:45:04.571Z</time>
</trkpt>
<trkpt lat="-27.3433672" lon="152.8724785">
<ele>82.761</ele>
<time>2017-01-11T00:45:07.407Z</time>
</trkpt>
<trkpt lat="-27.3437223" lon="152.8727072">
<ele>83.016</ele>
<time>2017-01-11T00:45:09.486Z</time>
</trkpt>
<trkpt lat="-27.3440488" lon="152.8729351">
<ele>81.610</ele>
<time>2017-01-11T00:45:11.495Z</time>
</trkpt>
<trkpt lat="-27.3445022" lon="152.8732805">
<ele>78.691</ele>
<time>2017-01-11T00:45:14.433Z</time>
</trkpt>
<trkpt lat="-27.3448731" lon="152.8737067">
<ele>75.494</ele>
<time>2017-01-11T00:45:17.315Z</time>
</trkpt>
<trkpt lat="-27.3450764" lon="152.8742994">
<ele>74.100</ele>
<time>2017-01-11T00:45:20.338Z</time>
</trkpt>
<trkpt lat="-27.3451403" lon="152.8747300">
<ele>75.739</ele>
<time>2017-01-11T00:45:22.422Z</time>
</trkpt>
<trkpt lat="-27.3452818" lon="152.8753037">
<ele>79.109</ele>
<time>2017-01-11T00:45:25.368Z</time>
</trkpt>
<trkpt lat="-27.3454873" lon="152.8758464">
<ele>81.781</ele>
<time>2017-01-11T00:45:28.384Z</time>
</trkpt>
<trkpt lat="-27.3456957" lon="152.8763840">
<ele>82.841</ele>
<time>2017-01-11T00:45:31.363Z</time>
</trkpt>
<trkpt lat="-27.3459166" lon="152.8769297">
<ele>83.021</ele>
<time>2017-01-11T00:45:34.378Z</time>
</trkpt>
<trkpt lat="-27.3460948" lon="152.8774807">
<ele>83.414</ele>
<time>2017-01-11T00:45:37.318Z</time>
</trkpt>
<trkpt lat="-27.3461828" lon="152.8780752">
<ele>84.709</ele>
<time>2017-01-11T00:45:40.337Z</time>
</trkpt>
<trkpt lat="-27.3463000" lon="152.8784513">
<ele>86.874</ele>
<time>2017-01-11T00:45:42.329Z</time>
</trkpt>
<trkpt lat="-27.3465946" lon="152.8789536">
<ele>89.288</ele>
<time>2017-01-11T00:45:45.316Z</time>
</trkpt>
<trkpt lat="-27.3468330" lon="152.8792607">
<ele>91.164</ele>
<time>2017-01-11T00:45:47.306Z</time>
</trkpt>
<trkpt lat="-27.3471813" lon="152.8797388">
<ele>92.107</ele>
<time>2017-01-11T00:45:50.326Z</time>
</trkpt>
<trkpt lat="-27.3475201" lon="152.8801998">
<ele>91.837</ele>
<time>2017-01-11T00:45:53.283Z</time>
</trkpt>
<trkpt lat="-27.3478755" lon="152.8806542">
<ele>89.998</ele>
<time>2017-01-11T00:45:56.288Z</time>
</trkpt>
<trkpt lat="-27.3482286" lon="152.8811183">
<ele>87.188</ele>
<time>2017-01-11T00:45:59.304Z</time>
</trkpt>
<trkpt lat="-27.3484850" lon="152.8814014">
<ele>84.807</ele>
<time>2017-01-11T00:46:01.386Z</time>
</trkpt>
<trkpt lat="-27.3488554" lon="152.8817318">
<ele>83.449</ele>
<time>2017-01-11T00:46:04.374Z</time>
</trkpt>
<trkpt lat="-27.3490604" lon="152.8819277">
<ele>82.243</ele>
<time>2017-01-11T00:46:06.389Z</time>
</trkpt>
<trkpt lat="-27.3492375" lon="152.8820998">
<ele>80.056</ele>
<time>2017-01-11T00:46:08.246Z</time>
</trkpt>
<trkpt lat="-27.3494168" lon="152.8824688">
<ele>77.145</ele>
<time>2017-01-11T00:46:11.130Z</time>
</trkpt>
<trkpt lat="-27.3495869" lon="152.8827185">
<ele>74.831</ele>
<time>2017-01-11T00:46:13.127Z</time>
</trkpt>
<trkpt lat="-27.3497742" lon="152.8831518">
<ele>74.019</ele>
<time>2017-01-11T00:46:16.139Z</time>
</trkpt>
<trkpt lat="-27.3498434" lon="152.8834574">
<ele>75.053</ele>
<time>2017-01-11T00:46:18.128Z</time>
</trkpt>
<trkpt lat="-27.3498953" lon="152.8839144">
<ele>77.618</ele>
<time>2017-01-11T00:46:20.975Z</time>
</trkpt>
<trkpt lat="-27.3498537" lon="152.8844474">
<ele>80.955</ele>
<time>2017-01-11T00:46:24.041Z</time>
</trkpt>
<trkpt lat="-27.3497029" lon="152.8850025">
<ele>84.617</ele>
<time>2017-01-11T00:46:27.128Z</time>
</trkpt>
<trkpt lat="-27.3495536" lon="152.8853442">
<ele>88.286</ele>
<time>2017-01-11T00:46:29.048Z</time>
</trkpt>
<trkpt lat="-27.3492605" lon="152.8858625">
<ele>91.182</ele>
<time>2017-01-11T00:46:32.029Z</time>
</trkpt>
<trkpt lat="-27.3489233" lon="152.8863875">
<ele>92.779</ele>
<time>2017-01-11T00:46:35.011Z</time>
</trkpt>
<trkpt lat="-27.3485811" lon="152.8869487">
<ele>93.333</ele>
<time>2017-01-11T00:46:38.017Z</time>
</trkpt>
<trkpt lat="-27.3483460" lon="152.8873246">
<ele>93.312</ele>
<time>2017-01-11T00:46:40.020Z</time>
</trkpt>
<trkpt lat="-27.3480653" lon="152.8876571">
<ele>92.534</ele>
<time>2017-01-11T00:46:42.030Z</time>
</trkpt>
<trkpt lat="-27.3477717" lon="152.8879536">
<ele>90.672</ele>
<time>2017-01-11T00:46:43.987Z</time>
</trkpt>
<trkpt lat="-27.3473051" lon="152.8883985">
<ele>88.280</ele>
<time>2017-01-11T00:46:47.028Z</time>
</trkpt>
<trkpt lat="-27.3470360" lon="152.8887408">
<ele>86.366</ele>
<time>2017-01-11T00:46:49.052Z</time>
</trkpt>
<trkpt lat="-27.3467214" lon="152.8893086">
<ele>85.336</ele>
<time>2017-01-11T00:46:52.023Z</time>
</trkpt>
<trkpt lat="-27.3465082" lon="152.8899403">
<ele>85.438</ele>
<time>2017-01-11T00:46:55.021Z</time>
</trkpt>
<trkpt lat="-27.3464213" lon="152.8903875">
<ele>86.858</ele>
<time>2017-01-11T00:46:57.030Z</time>
</trkpt>
<trkpt lat="-27.3463850" lon="152.8908511">
<ele>88.976</ele>
<time>2017-01-11T00:46:59.054Z</time>
</trkpt>
<trkpt lat="-27.3464559" lon="152.8915373">
<ele>90.686</ele>
<time>2017-01-11T00:47:02.064Z</time>
</trkpt>
<trkpt lat="-27.3465650" lon="152.8919712">
<ele>91.476</ele>
<time>2017-01-11T00:47:04.047Z</time>
</trkpt>
<trkpt lat="-27.3467033" lon="152.8924023">
<ele>91.556</ele>
<time>2017-01-11T00:47:06.062Z</time>
</trkpt>
<trkpt lat="-27.3468135" lon="152.8928463">
<ele>91.551</ele>
<time>2017-01-11T00:47:08.094Z</time>
</trkpt>
<trkpt lat="-27.3468705" lon="152.8932888">
<ele>92.200</ele>
<time>2017-01-11T00:47:10.080Z</time>
</trkpt>
<trkpt lat="-27.3468755" lon="152.8937411">
<ele>93.756</ele>
<time>2017-01-11T00:47:12.091Z</time>
</trkpt>
<trkpt lat="-27.3468938" lon="152.8944185">
<ele>95.907</ele>
<time>2017-01-11T00:47:15.084Z</time>
</trkpt>
<trkpt lat="-27.3469974" lon="152.8950972">
<ele>98.274</ele>
<time>2017-01-11T00:47:18.181Z</time>
</trkpt>
<trkpt lat="-27.3471438" lon="152.8957069">
<ele>100.327</ele>
<time>2017-01-11T00:47:21.237Z</time>
</trkpt>
<trkpt lat="-27.3472692" lon="152.8960482">
<ele>101.633</ele>
<time>2017-01-11T00:47:23.145Z</time>
</trkpt>
<trkpt lat="-27.3474489" lon="152.8965778">
<ele>102.315</ele>
<time>2017-01-11T00:47:26.106Z</time>
</trkpt>
<trkpt lat="-27.3476057" lon="152.8971205">
<ele>103.245</ele>
<time>2017-01-11T00:47:29.098Z</time>
</trkpt>
<trkpt lat="-27.3477329" lon="152.8976784">
<ele>105.114</ele>
<time>2017-01-11T00:47:32.102Z</time>
</trkpt>
<trkpt lat="-27.3477895" lon="152.8980542">
<ele>107.440</ele>
<time>2017-01-11T00:47:34.048Z</time>
</trkpt>
<trkpt lat="-27.3478208" lon="152.8984525">
<ele>109.260</ele>
<time>2017-01-11T00:47:36.011Z</time>
</trkpt>
<trkpt lat="-27.3478247" lon="152.8990929">
<ele>110.194</ele>
<time>2017-01-11T00:47:39.038Z</time>
</trkpt>
<trkpt lat="-27.3478341" lon="152.8995300">
<ele>110.308</ele>
<time>2017-01-11T00:47:41.047Z</time>
</trkpt>
<trkpt lat="-27.3478831" lon="152.9001762">
<ele>110.010</ele>
<time>2017-01-11T00:47:44.028Z</time>
</trkpt>
<trkpt lat="-27.3479299" lon="152.9005974">
<ele>109.810</ele>
<time>2017-01-11T00:47:46.045Z</time>
</trkpt>
<trkpt lat="-27.3479876" lon="152.9009815">
<ele>110.180</ele>
<time>2017-01-11T00:47:47.948Z</time>
</trkpt>
<trkpt lat="-27.3480762" lon="152.9015841">
<ele>111.162</ele>
<time>2017-01-11T00:47:50.924Z</time>
</trkpt>
<trkpt lat="-27.3481464" lon="152.9019949">
<ele>112.697</ele>
<time>2017-01-11T00:47:52.904Z</time>
</trkpt>
<trkpt lat="-27.3481836" lon="152.9024260">
<ele>114.705</ele>
<time>2017-01-11T00:47:54.924Z</time>
</trkpt>
<trkpt lat="-27.3481773" lon="152.9028455">
<ele>116.576</ele>
<time>2017-01-11T00:47:56.872Z</time>
</trkpt>
<trkpt lat="-27.3481277" lon="152.9032818">
<ele>117.643</ele>
<time>2017-01-11T00:47:58.915Z</time>
</trkpt>
<trkpt lat="-27.3480094" lon="152.9036783">
<ele>117.774</ele>
<time>2017-01-11T00:48:00.857Z</time>
</trkpt>
<trkpt lat="-27.3477568" lon="152.9042764">
<ele>117.021</ele>
<time>2017-01-11T00:48:03.914Z</time>
</trkpt>
<trkpt lat="-27.3474326" lon="152.9048589">
<ele>115.561</ele>
<time>2017-01-11T00:48:07.019Z</time>
</trkpt>
<trkpt lat="-27.3471958" lon="152.9052430">
<ele>113.046</ele>
<time>2017-01-11T00:48:09.058Z</time>
</trkpt>
<trkpt lat="-27.3469604" lon="152.9056122">
<ele>109.194</ele>
<time>2017-01-11T00:48:11.016Z</time>
</trkpt>
<trkpt lat="-27.3467576" lon="152.9059639">
<ele>104.910</ele>
<time>2017-01-11T00:48:12.842Z</time>
</trkpt>
<trkpt lat="-27.3463751" lon="152.9064797">
<ele>101.134</ele>
<time>2017-01-11T00:48:15.813Z</time>
</trkpt>
<trkpt lat="-27.3460962" lon="152.9068016">
<ele>97.672</ele>
<time>2017-01-11T00:48:17.832Z</time>
</trkpt>
<trkpt lat="-27.3456790" lon="152.9072631">
<ele>94.126</ele>
<time>2017-01-11T00:48:20.818Z</time>
</trkpt>
<trkpt lat="-27.3452927" lon="152.9077470">
<ele>90.024</ele>
<time>2017-01-11T00:48:23.777Z</time>
</trkpt>
<trkpt lat="-27.3448766" lon="152.9082298">
<ele>84.942</ele>
<time>2017-01-11T00:48:26.815Z</time>
</trkpt>
<trkpt lat="-27.3444745" lon="152.9087285">
<ele>79.068</ele>
<time>2017-01-11T00:48:29.824Z</time>
</trkpt>
<trkpt lat="-27.3442186" lon="152.9090332">
<ele>73.034</ele>
<time>2017-01-11T00:48:31.688Z</time>
</trkpt>
<trkpt lat="-27.3438404" lon="152.9095333">
<ele>67.390</ele>
<time>2017-01-11T00:48:34.606Z</time>
</trkpt>
<trkpt lat="-27.3435814" lon="152.9098957">
<ele>62.094</ele>
<time>2017-01-11T00:48:36.666Z</time>
</trkpt>
<trkpt lat="-27.3434133" lon="152.9103064">
<ele>56.880</ele>
<time>2017-01-11T00:48:38.657Z</time>
</trkpt>
<trkpt lat="-27.3432921" lon="152.9107495">
<ele>52.052</ele>
<time>2017-01-11T00:48:40.702Z</time>
</trkpt>
<trkpt lat="-27.3431996" lon="152.9114145">
<ele>47.808</ele>
<time>2017-01-11T00:48:43.695Z</time>
</trkpt>
<trkpt lat="-27.3432124" lon="152.9118531">
<ele>44.294</ele>
<time>2017-01-11T00:48:45.661Z</time>
</trkpt>
<trkpt lat="-27.3432773" lon="152.9122853">
<ele>42.155</ele>
<time>2017-01-11T00:48:47.637Z</time>
</trkpt>
<trkpt lat="-27.3433895" lon="152.9129410">
<ele>41.564</ele>
<time>2017-01-11T00:48:50.667Z</time>
</trkpt>
<trkpt lat="-27.3434871" lon="152.9135821">
<ele>42.587</ele>
<time>2017-01-11T00:48:53.633Z</time>
</trkpt>
<trkpt lat="-27.3435158" lon="152.9140230">
<ele>45.751</ele>
<time>2017-01-11T00:48:55.648Z</time>
</trkpt>
<trkpt lat="-27.3434038" lon="152.9146756">
<ele>50.428</ele>
<time>2017-01-11T00:48:58.660Z</time>
</trkpt>
<trkpt lat="-27.3431003" lon="152.9152498">
<ele>55.158</ele>
<time>2017-01-11T00:49:01.666Z</time>
</trkpt>
<trkpt lat="-27.3428138" lon="152.9155633">
<ele>59.634</ele>
<time>2017-01-11T00:49:03.693Z</time>
</trkpt>
<trkpt lat="-27.3424857" lon="152.9157835">
<ele>64.012</ele>
<time>2017-01-11T00:49:05.647Z</time>
</trkpt>
<trkpt lat="-27.3418844" lon="152.9159637">
<ele>67.763</ele>
<time>2017-01-11T00:49:08.820Z</time>
</trkpt>
<trkpt lat="-27.3412994" lon="152.9159093">
<ele>70.772</ele>
<time>2017-01-11T00:49:11.778Z</time>
</trkpt>
<trkpt lat="-27.3408984" lon="152.9157947">
<ele>73.690</ele>
<time>2017-01-11T00:49:13.848Z</time>
</trkpt>
<trkpt lat="-27.3403148" lon="152.9156214">
<ele>76.821</ele>
<time>2017-01-11T00:49:16.858Z</time>
</trkpt>
<trkpt lat="-27.3399264" lon="152.9155071">
<ele>79.902</ele>
<time>2017-01-11T00:49:18.857Z</time>
</trkpt>
<trkpt lat="-27.3395436" lon="152.9153852">
<ele>82.551</ele>
<time>2017-01-11T00:49:20.835Z</time>
</trkpt>
<trkpt lat="-27.3389610" lon="152.9152036">
<ele>84.570</ele>
<time>2017-01-11T00:49:23.825Z</time>
</trkpt>
<trkpt lat="-27.3383734" lon="152.9150188">
<ele>86.061</ele>
<time>2017-01-11T00:49:26.822Z</time>
</trkpt>
<trkpt lat="-27.3377670" lon="152.9149225">
<ele>87.066</ele>
<time>2017-01-11T00:49:29.840Z</time>
</trkpt>
<trkpt lat="-27.3371609" lon="152.9149988">
<ele>87.531</ele>
<time>2017-01-11T00:49:32.861Z</time>
</trkpt>
<trkpt lat="-27.3367865" lon="152.9151717">
<ele>87.794</ele>
<time>2017-01-11T00:49:34.871Z</time>
</trkpt>
<trkpt lat="-27.3364412" lon="152.9153984">
<ele>88.220</ele>
<time>2017-01-11T00:49:36.872Z</time>
</trkpt>
<trkpt lat="-27.3360069" lon="152.9158550">
<ele>88.748</ele>
<time>2017-01-11T00:49:39.860Z</time>
</trkpt>
<trkpt lat="-27.3357488" lon="152.9162206">
<ele>89.300</ele>
<time>2017-01-11T00:49:41.932Z</time>
</trkpt>
<trkpt lat="-27.3354924" lon="152.9165413">
<ele>90.095</ele>
<time>2017-01-11T00:49:43.857Z</time>
</trkpt>
<trkpt lat="-27.3350208" lon="152.9169026">
<ele>91.355</ele>
<time>2017-01-11T00:49:46.800Z</time>
</trkpt>
<trkpt lat="-27.3344756" lon="152.9169825">
<ele>93.585</ele>
<time>2017-01-11T00:49:49.781Z</time>
</trkpt>
<trkpt lat="-27.3339350" lon="152.9168622">
<ele>97.219</ele>
<time>2017-01-11T00:49:52.856Z</time>
</trkpt>
<trkpt lat="-27.3334139" lon="152.9167701">
<ele>102.132</ele>
<time>2017-01-11T00:49:55.910Z</time>
</trkpt>
<trkpt lat="-27.3329635" lon="152.9168962">
<ele>107.502</ele>
<time>2017-01-11T00:49:58.793Z</time>
</trkpt>
<trkpt lat="-27.3327470" lon="152.9171588">
<ele>111.929</ele>
<time>2017-01-11T00:50:00.807Z</time>
</trkpt>
<trkpt lat="-27.3325960" lon="152.9177100">
<ele>114.465</ele>
<time>2017-01-11T00:50:03.877Z</time>
</trkpt>
<trkpt lat="-27.3325609" lon="152.9181228">
<ele>115.532</ele>
<time>2017-01-11T00:50:05.921Z</time>
</trkpt>
<trkpt lat="-27.3325269" lon="152.9185387">
<ele>116.020</ele>
<time>2017-01-11T00:50:07.955Z</time>
</trkpt>
<trkpt lat="-27.3323712" lon="152.9191060">
<ele>116.379</ele>
<time>2017-01-11T00:50:10.898Z</time>
</trkpt>
<trkpt lat="-27.3320140" lon="152.9195737">
<ele>116.430</ele>
<time>2017-01-11T00:50:13.970Z</time>
</trkpt>
<trkpt lat="-27.3315493" lon="152.9198838">
<ele>115.882</ele>
<time>2017-01-11T00:50:16.921Z</time>
</trkpt>
<trkpt lat="-27.3312231" lon="152.9201051">
<ele>114.674</ele>
<time>2017-01-11T00:50:18.966Z</time>
</trkpt>
<trkpt lat="-27.3309104" lon="152.9203332">
<ele>112.986</ele>
<time>2017-01-11T00:50:20.990Z</time>
</trkpt>
<trkpt lat="-27.3305268" lon="152.9207664">
<ele>111.228</ele>
<time>2017-01-11T00:50:23.981Z</time>
</trkpt>
<trkpt lat="-27.3303627" lon="152.9211368">
<ele>109.754</ele>
<time>2017-01-11T00:50:25.995Z</time>
</trkpt>
<trkpt lat="-27.3302930" lon="152.9215490">
<ele>108.700</ele>
<time>2017-01-11T00:50:28.014Z</time>
</trkpt>
<trkpt lat="-27.3303741" lon="152.9221680">
<ele>108.133</ele>
<time>2017-01-11T00:50:30.971Z</time>
</trkpt>
<trkpt lat="-27.3305051" lon="152.9225933">
<ele>107.688</ele>
<time>2017-01-11T00:50:33.003Z</time>
</trkpt>
<trkpt lat="-27.3306778" lon="152.9232598">
<ele>106.839</ele>
<time>2017-01-11T00:50:36.067Z</time>
</trkpt>
<trkpt lat="-27.3307769" lon="152.9239431">
<ele>105.307</ele>
<time>2017-01-11T00:50:39.111Z</time>
</trkpt>
<trkpt lat="-27.3307871" lon="152.9244088">
<ele>103.380</ele>
<time>2017-01-11T00:50:41.157Z</time>
</trkpt>
<trkpt lat="-27.3307921" lon="152.9248614">
<ele>102.065</ele>
<time>2017-01-11T00:50:43.135Z</time>
</trkpt>
<trkpt lat="-27.3307989" lon="152.9253245">
<ele>102.096</ele>
<time>2017-01-11T00:50:45.152Z</time>
</trkpt>
<trkpt lat="-27.3308303" lon="152.9257778">
<ele>102.968</ele>
<time>2017-01-11T00:50:47.135Z</time>
</trkpt>
<trkpt lat="-27.3309632" lon="152.9262112">
<ele>103.786</ele>
<time>2017-01-11T00:50:49.137Z</time>
</trkpt>
<trkpt lat="-27.3311164" lon="152.9266430">
<ele>103.814</ele>
<time>2017-01-11T00:50:51.170Z</time>
</trkpt>
<trkpt lat="-27.3312455" lon="152.9273019">
<ele>102.929</ele>
<time>2017-01-11T00:50:54.145Z</time>
</trkpt>
<trkpt lat="-27.3312483" lon="152.9277352">
<ele>101.794</ele>
<time>2017-01-11T00:50:56.084Z</time>
</trkpt>
<trkpt lat="-27.3311384" lon="152.9283737">
<ele>100.899</ele>
<time>2017-01-11T00:50:59.021Z</time>
</trkpt>
<trkpt lat="-27.3310495" lon="152.9287963">
<ele>100.018</ele>
<time>2017-01-11T00:51:01.013Z</time>
</trkpt>
<trkpt lat="-27.3307836" lon="152.9294008">
<ele>99.115</ele>
<time>2017-01-11T00:51:04.118Z</time>
</trkpt>
<trkpt lat="-27.3303959" lon="152.9298628">
<ele>98.842</ele>
<time>2017-01-11T00:51:07.027Z</time>
</trkpt>
<trkpt lat="-27.3300940" lon="152.9301533">
<ele>99.519</ele>
<time>2017-01-11T00:51:09.047Z</time>
</trkpt>
<trkpt lat="-27.3297857" lon="152.9304303">
<ele>100.463</ele>
<time>2017-01-11T00:51:11.048Z</time>
</trkpt>
<trkpt lat="-27.3293943" lon="152.9309286">
<ele>100.908</ele>
<time>2017-01-11T00:51:14.046Z</time>
</trkpt>
<trkpt lat="-27.3291977" lon="152.9313099">
<ele>100.428</ele>
<time>2017-01-11T00:51:16.040Z</time>
</trkpt>
<trkpt lat="-27.3290131" lon="152.9316917">
<ele>98.925</ele>
<time>2017-01-11T00:51:18.052Z</time>
</trkpt>
<trkpt lat="-27.3287499" lon="152.9322384">
<ele>97.015</ele>
<time>2017-01-11T00:51:21.019Z</time>
</trkpt>
<trkpt lat="-27.3285591" lon="152.9325903">
<ele>95.035</ele>
<time>2017-01-11T00:51:23.054Z</time>
</trkpt>
<trkpt lat="-27.3283074" lon="152.9330817">
<ele>92.922</ele>
<time>2017-01-11T00:51:25.914Z</time>
</trkpt>
<trkpt lat="-27.3280621" lon="152.9335903">
<ele>90.972</ele>
<time>2017-01-11T00:51:28.909Z</time>
</trkpt>
<trkpt lat="-27.3278978" lon="152.9339232">
<ele>89.556</ele>
<time>2017-01-11T00:51:30.949Z</time>
</trkpt>
<trkpt lat="-27.3277660" lon="152.9344222">
<ele>88.618</ele>
<time>2017-01-11T00:51:33.788Z</time>
</trkpt>
<trkpt lat="-27.3278353" lon="152.9349963">
<ele>87.828</ele>
<time>2017-01-11T00:51:36.892Z</time>
</trkpt>
<trkpt lat="-27.3280809" lon="152.9354951">
<ele>86.705</ele>
<time>2017-01-11T00:51:39.866Z</time>
</trkpt>
<trkpt lat="-27.3284888" lon="152.9358825">
<ele>84.997</ele>
<time>2017-01-11T00:51:42.931Z</time>
</trkpt>
<trkpt lat="-27.3289251" lon="152.9362300">
<ele>83.107</ele>
<time>2017-01-11T00:51:45.917Z</time>
</trkpt>
<trkpt lat="-27.3292086" lon="152.9365008">
<ele>81.865</ele>
<time>2017-01-11T00:51:47.938Z</time>
</trkpt>
<trkpt lat="-27.3294402" lon="152.9368415">
<ele>81.493</ele>
<time>2017-01-11T00:51:49.987Z</time>
</trkpt>
<trkpt lat="-27.3296588" lon="152.9374051">
<ele>81.316</ele>
<time>2017-01-11T00:51:52.956Z</time>
</trkpt>
<trkpt lat="-27.3297198" lon="152.9377954">
<ele>80.396</ele>
<time>2017-01-11T00:51:54.903Z</time>
</trkpt>
<trkpt lat="-27.3297156" lon="152.9384216">
<ele>78.536</ele>
<time>2017-01-11T00:51:57.953Z</time>
</trkpt>
<trkpt lat="-27.3296727" lon="152.9390468">
<ele>76.119</ele>
<time>2017-01-11T00:52:00.945Z</time>
</trkpt>
<trkpt lat="-27.3296267" lon="152.9396760">
<ele>73.208</ele>
<time>2017-01-11T00:52:03.932Z</time>
</trkpt>
<trkpt lat="-27.3296008" lon="152.9401018">
<ele>69.315</ele>
<time>2017-01-11T00:52:05.922Z</time>
</trkpt>
<trkpt lat="-27.3295853" lon="152.9405287">
<ele>64.370</ele>
<time>2017-01-11T00:52:07.875Z</time>
</trkpt>
<trkpt lat="-27.3295488" lon="152.9409861">
<ele>59.500</ele>
<time>2017-01-11T00:52:09.963Z</time>
</trkpt>
<trkpt lat="-27.3294886" lon="152.9416263">
<ele>55.946</ele>
<time>2017-01-11T00:52:12.927Z</time>
</trkpt>
<trkpt lat="-27.3294581" lon="152.9420512">
<ele>53.723</ele>
<time>2017-01-11T00:52:14.899Z</time>
</trkpt>
<trkpt lat="-27.3294056" lon="152.9427092">
<ele>52.265</ele>
<time>2017-01-11T00:52:17.924Z</time>
</trkpt>
<trkpt lat="-27.3293734" lon="152.9433703">
<ele>51.142</ele>
<time>2017-01-11T00:52:20.933Z</time>
</trkpt>
<trkpt lat="-27.3293182" lon="152.9440123">
<ele>50.216</ele>
<time>2017-01-11T00:52:23.862Z</time>
</trkpt>
<trkpt lat="-27.3292808" lon="152.9444510">
<ele>49.580</ele>
<time>2017-01-11T00:52:25.856Z</time>
</trkpt>
<trkpt lat="-27.3292212" lon="152.9451141">
<ele>49.604</ele>
<time>2017-01-11T00:52:28.860Z</time>
</trkpt>
<trkpt lat="-27.3291885" lon="152.9455602">
<ele>50.899</ele>
<time>2017-01-11T00:52:30.850Z</time>
</trkpt>
<trkpt lat="-27.3291572" lon="152.9462452">
<ele>53.291</ele>
<time>2017-01-11T00:52:33.849Z</time>
</trkpt>
<trkpt lat="-27.3291770" lon="152.9467070">
<ele>55.480</ele>
<time>2017-01-11T00:52:35.860Z</time>
</trkpt>
<trkpt lat="-27.3292356" lon="152.9473839">
<ele>56.136</ele>
<time>2017-01-11T00:52:38.870Z</time>
</trkpt>
<trkpt lat="-27.3293362" lon="152.9480224">
<ele>54.950</ele>
<time>2017-01-11T00:52:41.800Z</time>
</trkpt>
<trkpt lat="-27.3294568" lon="152.9484568">
<ele>52.943</ele>
<time>2017-01-11T00:52:43.848Z</time>
</trkpt>
<trkpt lat="-27.3296796" lon="152.9490732">
<ele>51.808</ele>
<time>2017-01-11T00:52:46.796Z</time>
</trkpt>
<trkpt lat="-27.3298347" lon="152.9494997">
<ele>52.097</ele>
<time>2017-01-11T00:52:48.826Z</time>
</trkpt>
<trkpt lat="-27.3300614" lon="152.9500960">
<ele>52.838</ele>
<time>2017-01-11T00:52:51.731Z</time>
</trkpt>
<trkpt lat="-27.3302176" lon="152.9504881">
<ele>52.611</ele>
<time>2017-01-11T00:52:53.727Z</time>
</trkpt>
<trkpt lat="-27.3303596" lon="152.9508719">
<ele>50.832</ele>
<time>2017-01-11T00:52:55.748Z</time>
</trkpt>
<trkpt lat="-27.3305678" lon="152.9513937">
<ele>47.994</ele>
<time>2017-01-11T00:52:58.698Z</time>
</trkpt>
<trkpt lat="-27.3307104" lon="152.9517055">
<ele>44.970</ele>
<time>2017-01-11T00:53:00.638Z</time>
</trkpt>
<trkpt lat="-27.3309240" lon="152.9521554">
<ele>42.309</ele>
<time>2017-01-11T00:53:03.558Z</time>
</trkpt>
<trkpt lat="-27.3310886" lon="152.9524497">
<ele>40.220</ele>
<time>2017-01-11T00:53:05.566Z</time>
</trkpt>
<trkpt lat="-27.3313509" lon="152.9528954">
<ele>38.671</ele>
<time>2017-01-11T00:53:08.638Z</time>
</trkpt>
<trkpt lat="-27.3316163" lon="152.9533121">
<ele>37.473</ele>
<time>2017-01-11T00:53:11.599Z</time>
</trkpt>
<trkpt lat="-27.3318907" lon="152.9537573">
<ele>36.248</ele>
<time>2017-01-11T00:53:14.721Z</time>
</trkpt>
<trkpt lat="-27.3321432" lon="152.9541635">
<ele>34.782</ele>
<time>2017-01-11T00:53:17.574Z</time>
</trkpt>
<trkpt lat="-27.3324115" lon="152.9545755">
<ele>33.270</ele>
<time>2017-01-11T00:53:20.538Z</time>
</trkpt>
<trkpt lat="-27.3325746" lon="152.9548549">
<ele>31.895</ele>
<time>2017-01-11T00:53:22.508Z</time>
</trkpt>
<trkpt lat="-27.3328208" lon="152.9552551">
<ele>30.590</ele>
<time>2017-01-11T00:53:25.543Z</time>
</trkpt>
<trkpt lat="-27.3329587" lon="152.9554913">
<ele>29.155</ele>
<time>2017-01-11T00:53:27.485Z</time>
</trkpt>
<trkpt lat="-27.3330860" lon="152.9557190">
<ele>27.499</ele>
<time>2017-01-11T00:53:29.502Z</time>
</trkpt>
<trkpt lat="-27.3332037" lon="152.9559110">
<ele>25.839</ele>
<time>2017-01-11T00:53:31.476Z</time>
</trkpt>
<trkpt lat="-27.3333155" lon="152.9561217">
<ele>24.516</ele>
<time>2017-01-11T00:53:34.085Z</time>
</trkpt>
<trkpt lat="-27.3333155" lon="152.9561217">
<ele>23.713</ele>
<time>2017-01-11T00:53:39.065Z</time>
</trkpt>
<trkpt lat="-27.3333155" lon="152.9561217">
<ele>23.426</ele>
<time>2017-01-11T00:53:39.494Z</time>
</trkpt>
<trkpt lat="-27.3334613" lon="152.9563625">
<ele>23.467</ele>
<time>2017-01-11T00:53:44.428Z</time>
</trkpt>
<trkpt lat="-27.3335957" lon="152.9565459">
<ele>23.595</ele>
<time>2017-01-11T00:53:46.247Z</time>
</trkpt>
<trkpt lat="-27.3338786" lon="152.9569021">
<ele>23.770</ele>
<time>2017-01-11T00:53:49.315Z</time>
</trkpt>
<trkpt lat="-27.3340976" lon="152.9571438">
<ele>24.031</ele>
<time>2017-01-11T00:53:51.299Z</time>
</trkpt>
<trkpt lat="-27.3343179" lon="152.9573942">
<ele>24.205</ele>
<time>2017-01-11T00:53:53.284Z</time>
</trkpt>
<trkpt lat="-27.3346350" lon="152.9577598">
<ele>24.148</ele>
<time>2017-01-11T00:53:56.153Z</time>
</trkpt>
<trkpt lat="-27.3348440" lon="152.9580102">
<ele>24.029</ele>
<time>2017-01-11T00:53:58.094Z</time>
</trkpt>
<trkpt lat="-27.3350540" lon="152.9582644">
<ele>24.073</ele>
<time>2017-01-11T00:54:00.063Z</time>
</trkpt>
<trkpt lat="-27.3353750" lon="152.9586405">
<ele>24.380</ele>
<time>2017-01-11T00:54:03.021Z</time>
</trkpt>
<trkpt lat="-27.3355751" lon="152.9588775">
<ele>25.057</ele>
<time>2017-01-11T00:54:04.879Z</time>
</trkpt>
<trkpt lat="-27.3358338" lon="152.9592932">
<ele>26.053</ele>
<time>2017-01-11T00:54:07.785Z</time>
</trkpt>
<trkpt lat="-27.3359790" lon="152.9597836">
<ele>27.079</ele>
<time>2017-01-11T00:54:10.838Z</time>
</trkpt>
<trkpt lat="-27.3360324" lon="152.9600706">
<ele>27.860</ele>
<time>2017-01-11T00:54:12.764Z</time>
</trkpt>
<trkpt lat="-27.3360643" lon="152.9603108">
<ele>28.197</ele>
<time>2017-01-11T00:54:14.691Z</time>
</trkpt>
<trkpt lat="-27.3360930" lon="152.9605491">
<ele>27.894</ele>
<time>2017-01-11T00:54:17.105Z</time>
</trkpt>
<trkpt lat="-27.3360930" lon="152.9605491">
<ele>27.127</ele>
<time>2017-01-11T00:54:22.092Z</time>
</trkpt>
<trkpt lat="-27.3360930" lon="152.9605491">
<ele>26.555</ele>
<time>2017-01-11T00:55:16.901Z</time>
</trkpt>
<trkpt lat="-27.3361849" lon="152.9608126">
<ele>26.668</ele>
<time>2017-01-11T00:55:22.703Z</time>
</trkpt>
<trkpt lat="-27.3364160" lon="152.9608463">
<ele>27.455</ele>
<time>2017-01-11T00:55:25.394Z</time>
</trkpt>
<trkpt lat="-27.3366325" lon="152.9608170">
<ele>28.591</ele>
<time>2017-01-11T00:55:27.383Z</time>
</trkpt>
<trkpt lat="-27.3368681" lon="152.9607940">
<ele>29.742</ele>
<time>2017-01-11T00:55:29.450Z</time>
</trkpt>
<trkpt lat="-27.3371783" lon="152.9607697">
<ele>30.714</ele>
<time>2017-01-11T00:55:32.304Z</time>
</trkpt>
<trkpt lat="-27.3373666" lon="152.9607450">
<ele>31.338</ele>
<time>2017-01-11T00:55:34.297Z</time>
</trkpt>
<trkpt lat="-27.3375338" lon="152.9607150">
<ele>31.457</ele>
<time>2017-01-11T00:55:36.297Z</time>
</trkpt>
<trkpt lat="-27.3376762" lon="152.9606938">
<ele>31.206</ele>
<time>2017-01-11T00:55:38.285Z</time>
</trkpt>
<trkpt lat="-27.3378398" lon="152.9606642">
<ele>30.912</ele>
<time>2017-01-11T00:55:41.371Z</time>
</trkpt>
<trkpt lat="-27.3379373" lon="152.9606496">
<ele>30.793</ele>
<time>2017-01-11T00:55:44.109Z</time>
</trkpt>
<trkpt lat="-27.3379373" lon="152.9606496">
<ele>30.787</ele>
<time>2017-01-11T00:55:46.090Z</time>
</trkpt>
<trkpt lat="-27.3379373" lon="152.9606496">
<ele>30.785</ele>
<time>2017-01-11T00:56:02.850Z</time>
</trkpt>
<trkpt lat="-27.3381248" lon="152.9606497">
<ele>30.768</ele>
<time>2017-01-11T00:56:07.247Z</time>
</trkpt>
<trkpt lat="-27.3384175" lon="152.9606459">
<ele>30.918</ele>
<time>2017-01-11T00:56:10.384Z</time>
</trkpt>
<trkpt lat="-27.3387554" lon="152.9606976">
<ele>31.334</ele>
<time>2017-01-11T00:56:13.315Z</time>
</trkpt>
<trkpt lat="-27.3390089" lon="152.9607705">
<ele>31.816</ele>
<time>2017-01-11T00:56:15.304Z</time>
</trkpt>
<trkpt lat="-27.3392759" lon="152.9608687">
<ele>32.134</ele>
<time>2017-01-11T00:56:17.237Z</time>
</trkpt>
<trkpt lat="-27.3397370" lon="152.9610108">
<ele>32.245</ele>
<time>2017-01-11T00:56:20.261Z</time>
</trkpt>
<trkpt lat="-27.3400817" lon="152.9610776">
<ele>32.056</ele>
<time>2017-01-11T00:56:22.280Z</time>
</trkpt>
<trkpt lat="-27.3406055" lon="152.9611330">
<ele>31.533</ele>
<time>2017-01-11T00:56:25.246Z</time>
</trkpt>
<trkpt lat="-27.3409509" lon="152.9611685">
<ele>30.424</ele>
<time>2017-01-11T00:56:27.196Z</time>
</trkpt>
<trkpt lat="-27.3413016" lon="152.9612019">
<ele>28.524</ele>
<time>2017-01-11T00:56:29.177Z</time>
</trkpt>
<trkpt lat="-27.3416530" lon="152.9612330">
<ele>26.150</ele>
<time>2017-01-11T00:56:31.165Z</time>
</trkpt>
<trkpt lat="-27.3421781" lon="152.9612793">
<ele>23.843</ele>
<time>2017-01-11T00:56:34.139Z</time>
</trkpt>
<trkpt lat="-27.3425236" lon="152.9613121">
<ele>21.941</ele>
<time>2017-01-11T00:56:36.105Z</time>
</trkpt>
<trkpt lat="-27.3428730" lon="152.9613490">
<ele>20.650</ele>
<time>2017-01-11T00:56:38.100Z</time>
</trkpt>
<trkpt lat="-27.3433807" lon="152.9614434">
<ele>19.840</ele>
<time>2017-01-11T00:56:41.035Z</time>
</trkpt>
<trkpt lat="-27.3437077" lon="152.9615575">
<ele>19.336</ele>
<time>2017-01-11T00:56:42.992Z</time>
</trkpt>
<trkpt lat="-27.3440243" lon="152.9617163">
<ele>19.349</ele>
<time>2017-01-11T00:56:44.984Z</time>
</trkpt>
<trkpt lat="-27.3444655" lon="152.9620120">
<ele>20.383</ele>
<time>2017-01-11T00:56:47.996Z</time>
</trkpt>
<trkpt lat="-27.3447181" lon="152.9622219">
<ele>22.193</ele>
<time>2017-01-11T00:56:49.962Z</time>
</trkpt>
<trkpt lat="-27.3450516" lon="152.9625454">
<ele>23.757</ele>
<time>2017-01-11T00:56:52.936Z</time>
</trkpt>
<trkpt lat="-27.3452996" lon="152.9628717">
<ele>24.525</ele>
<time>2017-01-11T00:56:55.892Z</time>
</trkpt>
<trkpt lat="-27.3454172" lon="152.9630464">
<ele>24.701</ele>
<time>2017-01-11T00:56:57.947Z</time>
</trkpt>
<trkpt lat="-27.3455110" lon="152.9631808">
<ele>24.374</ele>
<time>2017-01-11T00:57:00.111Z</time>
</trkpt>
<trkpt lat="-27.3455110" lon="152.9631808">
<ele>23.632</ele>
<time>2017-01-11T00:57:03.167Z</time>
</trkpt>
<trkpt lat="-27.3455110" lon="152.9631808">
<ele>23.050</ele>
<time>2017-01-11T00:58:18.463Z</time>
</trkpt>
<trkpt lat="-27.3456857" lon="152.9632968">
<ele>23.158</ele>
<time>2017-01-11T00:58:23.578Z</time>
</trkpt>
<trkpt lat="-27.3459026" lon="152.9631634">
<ele>23.904</ele>
<time>2017-01-11T00:58:26.445Z</time>
</trkpt>
<trkpt lat="-27.3461598" lon="152.9628982">
<ele>25.315</ele>
<time>2017-01-11T00:58:29.531Z</time>
</trkpt>
<trkpt lat="-27.3463494" lon="152.9627133">
<ele>27.632</ele>
<time>2017-01-11T00:58:31.506Z</time>
</trkpt>
<trkpt lat="-27.3465480" lon="152.9625248">
<ele>30.455</ele>
<time>2017-01-11T00:58:33.523Z</time>
</trkpt>
<trkpt lat="-27.3468401" lon="152.9622439">
<ele>32.702</ele>
<time>2017-01-11T00:58:36.493Z</time>
</trkpt>
<trkpt lat="-27.3471398" lon="152.9619629">
<ele>33.502</ele>
<time>2017-01-11T00:58:39.499Z</time>
</trkpt>
<trkpt lat="-27.3474429" lon="152.9616984">
<ele>32.701</ele>
<time>2017-01-11T00:58:42.479Z</time>
</trkpt>
<trkpt lat="-27.3476936" lon="152.9613765">
<ele>30.776</ele>
<time>2017-01-11T00:58:45.459Z</time>
</trkpt>
<trkpt lat="-27.3478819" lon="152.9609952">
<ele>28.594</ele>
<time>2017-01-11T00:58:48.476Z</time>
</trkpt>
<trkpt lat="-27.3479923" lon="152.9605813">
<ele>26.861</ele>
<time>2017-01-11T00:58:51.418Z</time>
</trkpt>
<trkpt lat="-27.3480099" lon="152.9602861">
<ele>25.633</ele>
<time>2017-01-11T00:58:53.380Z</time>
</trkpt>
<trkpt lat="-27.3479779" lon="152.9599836">
<ele>24.387</ele>
<time>2017-01-11T00:58:55.385Z</time>
</trkpt>
<trkpt lat="-27.3479062" lon="152.9595477">
<ele>22.698</ele>
<time>2017-01-11T00:58:58.329Z</time>
</trkpt>
<trkpt lat="-27.3478678" lon="152.9592667">
<ele>20.631</ele>
<time>2017-01-11T00:59:00.255Z</time>
</trkpt>
<trkpt lat="-27.3478265" lon="152.9589801">
<ele>18.763</ele>
<time>2017-01-11T00:59:02.241Z</time>
</trkpt>
<trkpt lat="-27.3477904" lon="152.9586984">
<ele>17.689</ele>
<time>2017-01-11T00:59:04.189Z</time>
</trkpt>
<trkpt lat="-27.3477256" lon="152.9582689">
<ele>17.495</ele>
<time>2017-01-11T00:59:07.167Z</time>
</trkpt>
<trkpt lat="-27.3477141" lon="152.9578394">
<ele>18.240</ele>
<time>2017-01-11T00:59:10.109Z</time>
</trkpt>
<trkpt lat="-27.3477520" lon="152.9575544">
<ele>20.117</ele>
<time>2017-01-11T00:59:12.086Z</time>
</trkpt>
<trkpt lat="-27.3478293" lon="152.9572800">
<ele>22.757</ele>
<time>2017-01-11T00:59:14.076Z</time>
</trkpt>
<trkpt lat="-27.3480060" lon="152.9569035">
<ele>25.478</ele>
<time>2017-01-11T00:59:17.045Z</time>
</trkpt>
<trkpt lat="-27.3481708" lon="152.9566856">
<ele>27.878</ele>
<time>2017-01-11T00:59:19.049Z</time>
</trkpt>
<trkpt lat="-27.3483534" lon="152.9564898">
<ele>29.751</ele>
<time>2017-01-11T00:59:21.031Z</time>
</trkpt>
<trkpt lat="-27.3486244" lon="152.9561915">
<ele>31.017</ele>
<time>2017-01-11T00:59:23.976Z</time>
</trkpt>
<trkpt lat="-27.3489001" lon="152.9558769">
<ele>31.686</ele>
<time>2017-01-11T00:59:26.968Z</time>
</trkpt>
<trkpt lat="-27.3492520" lon="152.9556438">
<ele>31.775</ele>
<time>2017-01-11T00:59:30.038Z</time>
</trkpt>
<trkpt lat="-27.3496180" lon="152.9554870">
<ele>31.037</ele>
<time>2017-01-11T00:59:32.978Z</time>
</trkpt>
<trkpt lat="-27.3500018" lon="152.9553343">
<ele>29.399</ele>
<time>2017-01-11T00:59:36.003Z</time>
</trkpt>
<trkpt lat="-27.3502576" lon="152.9552295">
<ele>27.620</ele>
<time>2017-01-11T00:59:38.021Z</time>
</trkpt>
<trkpt lat="-27.3506226" lon="152.9550904">
<ele>26.761</ele>
<time>2017-01-11T00:59:40.930Z</time>
</trkpt>
<trkpt lat="-27.3508630" lon="152.9549884">
<ele>27.256</ele>
<time>2017-01-11T00:59:42.926Z</time>
</trkpt>
<trkpt lat="-27.3510998" lon="152.9548969">
<ele>28.848</ele>
<time>2017-01-11T00:59:44.906Z</time>
</trkpt>
<trkpt lat="-27.3513344" lon="152.9548084">
<ele>30.873</ele>
<time>2017-01-11T00:59:46.896Z</time>
</trkpt>
<trkpt lat="-27.3516775" lon="152.9546698">
<ele>32.559</ele>
<time>2017-01-11T00:59:49.877Z</time>
</trkpt>
<trkpt lat="-27.3519033" lon="152.9545951">
<ele>33.146</ele>
<time>2017-01-11T00:59:51.827Z</time>
</trkpt>
<trkpt lat="-27.3521314" lon="152.9545021">
<ele>32.347</ele>
<time>2017-01-11T00:59:53.847Z</time>
</trkpt>
<trkpt lat="-27.3524674" lon="152.9543772">
<ele>30.777</ele>
<time>2017-01-11T00:59:56.876Z</time>
</trkpt>
<trkpt lat="-27.3527782" lon="152.9543041">
<ele>29.428</ele>
<time>2017-01-11T00:59:59.784Z</time>
</trkpt>
<trkpt lat="-27.3529938" lon="152.9542799">
<ele>28.860</ele>
<time>2017-01-11T01:00:01.793Z</time>
</trkpt>
<trkpt lat="-27.3532353" lon="152.9542922">
<ele>29.186</ele>
<time>2017-01-11T01:00:03.858Z</time>
</trkpt>
<trkpt lat="-27.3536145" lon="152.9543807">
<ele>30.467</ele>
<time>2017-01-11T01:00:06.945Z</time>
</trkpt>
<trkpt lat="-27.3538525" lon="152.9544943">
<ele>32.684</ele>
<time>2017-01-11T01:00:08.953Z</time>
</trkpt>
<trkpt lat="-27.3541773" lon="152.9547187">
<ele>35.118</ele>
<time>2017-01-11T01:00:11.969Z</time>
</trkpt>
<trkpt lat="-27.3543449" lon="152.9549003">
<ele>36.492</ele>
<time>2017-01-11T01:00:13.987Z</time>
</trkpt>
<trkpt lat="-27.3544829" lon="152.9550687">
<ele>36.423</ele>
<time>2017-01-11T01:00:15.931Z</time>
</trkpt>
<trkpt lat="-27.3545982" lon="152.9552487">
<ele>35.752</ele>
<time>2017-01-11T01:00:17.872Z</time>
</trkpt>
<trkpt lat="-27.3547415" lon="152.9555667">
<ele>35.171</ele>
<time>2017-01-11T01:00:20.859Z</time>
</trkpt>
<trkpt lat="-27.3548102" lon="152.9558116">
<ele>34.440</ele>
<time>2017-01-11T01:00:22.852Z</time>
</trkpt>
<trkpt lat="-27.3548429" lon="152.9560783">
<ele>32.911</ele>
<time>2017-01-11T01:00:24.884Z</time>
</trkpt>
<trkpt lat="-27.3548702" lon="152.9564615">
<ele>30.511</ele>
<time>2017-01-11T01:00:27.836Z</time>
</trkpt>
<trkpt lat="-27.3548799" lon="152.9568249">
<ele>27.806</ele>
<time>2017-01-11T01:00:30.820Z</time>
</trkpt>
<trkpt lat="-27.3548848" lon="152.9570408">
<ele>25.384</ele>
<time>2017-01-11T01:00:32.824Z</time>
</trkpt>
<trkpt lat="-27.3548396" lon="152.9572840">
<ele>23.588</ele>
<time>2017-01-11T01:00:35.575Z</time>
</trkpt>
<trkpt lat="-27.3549160" lon="152.9574365">
<ele>22.416</ele>
<time>2017-01-11T01:00:38.173Z</time>
</trkpt>
<trkpt lat="-27.3551239" lon="152.9573715">
<ele>21.699</ele>
<time>2017-01-11T01:00:41.521Z</time>
</trkpt>
<trkpt lat="-27.3553081" lon="152.9573524">
<ele>21.415</ele>
<time>2017-01-11T01:00:43.588Z</time>
</trkpt>
<trkpt lat="-27.3556390" lon="152.9572741">
<ele>21.620</ele>
<time>2017-01-11T01:00:46.815Z</time>
</trkpt>
<trkpt lat="-27.3559313" lon="152.9571687">
<ele>22.182</ele>
<time>2017-01-11T01:00:49.664Z</time>
</trkpt>
<trkpt lat="-27.3560996" lon="152.9570415">
<ele>22.717</ele>
<time>2017-01-11T01:00:51.593Z</time>
</trkpt>
<trkpt lat="-27.3563563" lon="152.9568419">
<ele>22.969</ele>
<time>2017-01-11T01:00:54.630Z</time>
</trkpt>
<trkpt lat="-27.3565781" lon="152.9566725">
<ele>23.126</ele>
<time>2017-01-11T01:00:57.598Z</time>
</trkpt>
<trkpt lat="-27.3566727" lon="152.9566056">
<ele>23.397</ele>
<time>2017-01-11T01:00:59.173Z</time>
</trkpt>
<trkpt lat="-27.3566727" lon="152.9566056">
<ele>23.621</ele>
<time>2017-01-11T01:01:04.102Z</time>
</trkpt>
<trkpt lat="-27.3566727" lon="152.9566056">
<ele>23.607</ele>
<time>2017-01-11T01:01:44.826Z</time>
</trkpt>
<trkpt lat="-27.3569615" lon="152.9567923">
<ele>23.490</ele>
<time>2017-01-11T01:01:59.000Z</time>
</trkpt>
<trkpt lat="-27.3569615" lon="152.9567923">
<ele>23.429</ele>
<time>2017-01-11T01:02:04.000Z</time>
</trkpt>
</trkseg>
</trk>
<extensions>
<fpdata xmlns="http://www.motionx.com/GPX-Extensions/1/1" sfv="10" origin="MotionXGPSFull 24.1 Build 5049R64">
<bin enc="base64">
RgIAAAACAAAAdHgVpFUd1kEBAAAA5Gc3HmEd1kEAAGzNJX23QD4JAADl55oArk7Ir4kI
PUAQTJYUyW03QAAAAAAPAAAATkcgMTEgSmFuIDIwMTcAFQAAADExIEphbiAyMDE3ICA3
OjQ4IGFtAAAAAAAKaDceYR3WQYKr+SdhHdZBLxldAAp67i0kYZpALAAAAAIAAACUEwfQ
BR9jQAMcmLquWzvArk7Ir4kIPUAAAAAAAAAUQAAAAAAAAAhAAAAAAAAaq0AAAAAAAAAA
AAAAAABlZmZmZmJ4QBc3yOyYdEBAAQAAAMB1e4zQGUK/AQAAAAEAAADg63seKTm+P2uv
Hr7YWbe/AQAAAAEAAAABAAAArk7Ir4kIPUAAAAAAAAAAAAEAAAATAAAATkdfMTFfSmFu
XzIwMTcuZ3B4AAEAAADhtvonYR3WQQoAAAABAAAADwAAAE5HIDExIEphbiAyMDE3AAAA
AAAMAAAAAAAAAAAAAAAAAAAAKQUAA2Ed1kEAAAAAAAAAAAAAAAAAAAAA/yVEvAIAAAAA
AAAAAAAAAAEAAAAnAAAAMjQuMSBCdWlsZCA1MDQ5UjY0LCBNWEFFIDguMSBiLiA2MjZS
NjQAAAAAABFgAAABAAAAARIAAACQVnVYDIR1WATyeRWkVR3WQfJ5FaRVHdZBAAAAAABU
Fz8AAAAAAop4FaRVHdZBoDeHtFUd1kEAAAAWv3FQQAAAAAACduKKzFUd1kH2mcnTVR3W
QQAAAJZ2sFdAAAAAAALyXgpOWB3WQYFcClpYHdZBAACAEjrYYUAAAAAAAuZaDV5YHdZB
Q4/Iplgd1kEAAIAg6hp7QAAAAAAC3XnKrFgd1kFOCMrlWB3WQQAAYN5mrYRAAAAAAAJT
zMvuWB3WQTY5CQNZHdZBAADAehQ1h0AAAAAAAmLVygRZHdZBZhcKE1kd1kEAAEC7/PyI
QAAAAAACbM/NFFkd1kFky8kXWR3WQQAAQDp8XIlAAAAAAALItQslWR3WQZpFiFBaHdZB
AABAGgdmn0AAAAAAAj4lSlJaHdZBjX7IoFwd1kEAAMwrexOxQAAAAAACtmpKtlwd1kEg
8Eu8XB3WQQAAdEGBK7FAAAAAAAILYUs4Xx3WQSHNyIRgHdZBAADM8XZdtkAAAAAAAv2H
y4VgHdZBhqyKj2Ad1kEAAPCDc4S2QAAAAAACQ5FMnmAd1kEmbIqkYB3WQQAAfO9qnbZA
AAAAAALWPI2pYB3WQcpwz7dgHdZBAABMv3PWtkAAAAAAAjZZkstgHdZBnn0L9GAd1kEA
AOxQWHi3QAAAAAACAd7SAWEd1kEhPQYDYR3WQQAAbM0lfbdAAAAAAAAAAAA=
</bin>
</fpdata>
</extensions>
</gpx>